<?xml version="1.0" encoding="UTF-8" standalone="no" ?>
<gpx xmlns="http://www.topografix.com/GPX/1/1" xmlns:xsi="http://www.w3.org/2001/XMLSchema-instance" xsi:schemaLocation="http://www.topografix.com/GPX/1/1 http://www.topografix.com/GPX/1/1/gpx.xsd" version="1.1" creator="VisuGPX - https://www.visugpx.com">
  <metadata>
    <name>LABASTIDE ROUAIROUX</name>
    <desc><![CDATA[TRES CHAUDE JOURNEE A LABASTIDE ]]></desc>
  </metadata>
  <trk>
    <name><![CDATA[LABASTIDE ROUAI]]></name>
    <trkseg>
      <trkpt lat="43.4764" lon="2.63986">
        <ele>397.16</ele>
        <time>2011-10-02T07:40:01Z</time>
      </trkpt>
      <trkpt lat="43.47634" lon="2.63985">
        <ele>403.89</ele>
        <time>2011-10-02T07:40:52Z</time>
      </trkpt>
      <trkpt lat="43.47638" lon="2.63979">
        <ele>402.93</ele>
        <time>2011-10-02T07:40:58Z</time>
      </trkpt>
      <trkpt lat="43.4764" lon="2.63962">
        <ele>401.01</ele>
        <time>2011-10-02T07:41:10Z</time>
      </trkpt>
      <trkpt lat="43.47639" lon="2.63958">
        <ele>401.01</ele>
        <time>2011-10-02T07:41:14Z</time>
      </trkpt>
      <trkpt lat="43.47627" lon="2.63951">
        <ele>399.08</ele>
        <time>2011-10-02T07:41:26Z</time>
      </trkpt>
      <trkpt lat="43.47626" lon="2.63948">
        <ele>398.6</ele>
        <time>2011-10-02T07:41:30Z</time>
      </trkpt>
      <trkpt lat="43.47622" lon="2.63947">
        <ele>398.12</ele>
        <time>2011-10-02T07:41:36Z</time>
      </trkpt>
      <trkpt lat="43.47604" lon="2.63957">
        <ele>396.2</ele>
        <time>2011-10-02T07:41:53Z</time>
      </trkpt>
      <trkpt lat="43.47588" lon="2.63967">
        <ele>395.24</ele>
        <time>2011-10-02T07:42:10Z</time>
      </trkpt>
      <trkpt lat="43.47586" lon="2.63968">
        <ele>395.24</ele>
        <time>2011-10-02T07:42:12Z</time>
      </trkpt>
      <trkpt lat="43.47577" lon="2.63988">
        <ele>395.24</ele>
        <time>2011-10-02T07:42:26Z</time>
      </trkpt>
      <trkpt lat="43.47574" lon="2.63985">
        <ele>395.72</ele>
        <time>2011-10-02T07:42:36Z</time>
      </trkpt>
      <trkpt lat="43.4757" lon="2.6398">
        <ele>395.24</ele>
        <time>2011-10-02T07:42:42Z</time>
      </trkpt>
      <trkpt lat="43.4756" lon="2.63972">
        <ele>393.32</ele>
        <time>2011-10-02T07:42:58Z</time>
      </trkpt>
      <trkpt lat="43.47559" lon="2.63973">
        <ele>393.8</ele>
        <time>2011-10-02T07:43:00Z</time>
      </trkpt>
      <trkpt lat="43.4755" lon="2.63973">
        <ele>392.84</ele>
        <time>2011-10-02T07:43:08Z</time>
      </trkpt>
      <trkpt lat="43.47544" lon="2.63989">
        <ele>392.36</ele>
        <time>2011-10-02T07:43:22Z</time>
      </trkpt>
      <trkpt lat="43.47528" lon="2.64001">
        <ele>393.32</ele>
        <time>2011-10-02T07:43:35Z</time>
      </trkpt>
      <trkpt lat="43.47522" lon="2.64005">
        <ele>393.8</ele>
        <time>2011-10-02T07:43:41Z</time>
      </trkpt>
      <trkpt lat="43.47499" lon="2.6399">
        <ele>394.76</ele>
        <time>2011-10-02T07:43:57Z</time>
      </trkpt>
      <trkpt lat="43.47484" lon="2.63984">
        <ele>395.72</ele>
        <time>2011-10-02T07:44:11Z</time>
      </trkpt>
      <trkpt lat="43.47476" lon="2.63981">
        <ele>396.2</ele>
        <time>2011-10-02T07:44:19Z</time>
      </trkpt>
      <trkpt lat="43.47465" lon="2.6398">
        <ele>395.72</ele>
        <time>2011-10-02T07:44:28Z</time>
      </trkpt>
      <trkpt lat="43.47446" lon="2.6397">
        <ele>396.68</ele>
        <time>2011-10-02T07:44:43Z</time>
      </trkpt>
      <trkpt lat="43.47435" lon="2.63967">
        <ele>397.64</ele>
        <time>2011-10-02T07:44:56Z</time>
      </trkpt>
      <trkpt lat="43.4742" lon="2.63966">
        <ele>399.08</ele>
        <time>2011-10-02T07:45:09Z</time>
      </trkpt>
      <trkpt lat="43.47403" lon="2.63958">
        <ele>400.53</ele>
        <time>2011-10-02T07:45:24Z</time>
      </trkpt>
      <trkpt lat="43.47389" lon="2.63947">
        <ele>402.45</ele>
        <time>2011-10-02T07:45:37Z</time>
      </trkpt>
      <trkpt lat="43.47376" lon="2.63933">
        <ele>405.81</ele>
        <time>2011-10-02T07:45:50Z</time>
      </trkpt>
      <trkpt lat="43.47365" lon="2.6392">
        <ele>408.7</ele>
        <time>2011-10-02T07:46:04Z</time>
      </trkpt>
      <trkpt lat="43.47355" lon="2.63917">
        <ele>409.18</ele>
        <time>2011-10-02T07:46:13Z</time>
      </trkpt>
      <trkpt lat="43.47348" lon="2.63925">
        <ele>409.18</ele>
        <time>2011-10-02T07:46:20Z</time>
      </trkpt>
      <trkpt lat="43.47348" lon="2.63938">
        <ele>409.66</ele>
        <time>2011-10-02T07:46:31Z</time>
      </trkpt>
      <trkpt lat="43.47361" lon="2.63957">
        <ele>412.54</ele>
        <time>2011-10-02T07:46:46Z</time>
      </trkpt>
      <trkpt lat="43.47364" lon="2.63972">
        <ele>414.95</ele>
        <time>2011-10-02T07:46:56Z</time>
      </trkpt>
      <trkpt lat="43.47369" lon="2.63992">
        <ele>415.91</ele>
        <time>2011-10-02T07:47:09Z</time>
      </trkpt>
      <trkpt lat="43.47371" lon="2.64013">
        <ele>415.43</ele>
        <time>2011-10-02T07:47:22Z</time>
      </trkpt>
      <trkpt lat="43.47372" lon="2.64034">
        <ele>413.98</ele>
        <time>2011-10-02T07:47:35Z</time>
      </trkpt>
      <trkpt lat="43.47368" lon="2.64054">
        <ele>413.02</ele>
        <time>2011-10-02T07:47:49Z</time>
      </trkpt>
      <trkpt lat="43.47363" lon="2.64058">
        <ele>413.02</ele>
        <time>2011-10-02T07:47:53Z</time>
      </trkpt>
      <trkpt lat="43.47359" lon="2.64059">
        <ele>413.5</ele>
        <time>2011-10-02T07:47:57Z</time>
      </trkpt>
      <trkpt lat="43.47353" lon="2.64057">
        <ele>413.98</ele>
        <time>2011-10-02T07:48:11Z</time>
      </trkpt>
      <trkpt lat="43.4735" lon="2.64053">
        <ele>416.39</ele>
        <time>2011-10-02T07:48:23Z</time>
      </trkpt>
      <trkpt lat="43.47349" lon="2.64052">
        <ele>417.35</ele>
        <time>2011-10-02T07:48:36Z</time>
      </trkpt>
      <trkpt lat="43.47349" lon="2.64029">
        <ele>423.12</ele>
        <time>2011-10-02T07:48:52Z</time>
      </trkpt>
      <trkpt lat="43.47348" lon="2.64021">
        <ele>425.52</ele>
        <time>2011-10-02T07:48:58Z</time>
      </trkpt>
      <trkpt lat="43.47346" lon="2.64018">
        <ele>426.48</ele>
        <time>2011-10-02T07:49:01Z</time>
      </trkpt>
      <trkpt lat="43.47331" lon="2.64015">
        <ele>431.29</ele>
        <time>2011-10-02T07:49:16Z</time>
      </trkpt>
      <trkpt lat="43.47326" lon="2.64016">
        <ele>433.21</ele>
        <time>2011-10-02T07:49:21Z</time>
      </trkpt>
      <trkpt lat="43.4732" lon="2.64014">
        <ele>435.61</ele>
        <time>2011-10-02T07:49:29Z</time>
      </trkpt>
      <trkpt lat="43.47315" lon="2.64014">
        <ele>436.58</ele>
        <time>2011-10-02T07:49:34Z</time>
      </trkpt>
      <trkpt lat="43.47302" lon="2.64014">
        <ele>438.98</ele>
        <time>2011-10-02T07:49:49Z</time>
      </trkpt>
      <trkpt lat="43.47287" lon="2.64014">
        <ele>439.94</ele>
        <time>2011-10-02T07:50:03Z</time>
      </trkpt>
      <trkpt lat="43.47271" lon="2.64015">
        <ele>442.34</ele>
        <time>2011-10-02T07:50:20Z</time>
      </trkpt>
      <trkpt lat="43.47256" lon="2.64014">
        <ele>442.82</ele>
        <time>2011-10-02T07:50:36Z</time>
      </trkpt>
      <trkpt lat="43.47244" lon="2.64013">
        <ele>444.75</ele>
        <time>2011-10-02T07:50:50Z</time>
      </trkpt>
      <trkpt lat="43.47231" lon="2.64015">
        <ele>447.15</ele>
        <time>2011-10-02T07:51:04Z</time>
      </trkpt>
      <trkpt lat="43.47215" lon="2.64016">
        <ele>449.07</ele>
        <time>2011-10-02T07:51:20Z</time>
      </trkpt>
      <trkpt lat="43.472" lon="2.64017">
        <ele>450.03</ele>
        <time>2011-10-02T07:51:36Z</time>
      </trkpt>
      <trkpt lat="43.47188" lon="2.64019">
        <ele>449.07</ele>
        <time>2011-10-02T07:51:51Z</time>
      </trkpt>
      <trkpt lat="43.47175" lon="2.64021">
        <ele>449.07</ele>
        <time>2011-10-02T07:52:05Z</time>
      </trkpt>
      <trkpt lat="43.47165" lon="2.64022">
        <ele>450.03</ele>
        <time>2011-10-02T07:52:16Z</time>
      </trkpt>
      <trkpt lat="43.4716" lon="2.64022">
        <ele>451</ele>
        <time>2011-10-02T07:52:21Z</time>
      </trkpt>
      <trkpt lat="43.47146" lon="2.64024">
        <ele>454.36</ele>
        <time>2011-10-02T07:52:36Z</time>
      </trkpt>
      <trkpt lat="43.47135" lon="2.64024">
        <ele>457.24</ele>
        <time>2011-10-02T07:52:46Z</time>
      </trkpt>
      <trkpt lat="43.47133" lon="2.64024">
        <ele>457.24</ele>
        <time>2011-10-02T07:52:48Z</time>
      </trkpt>
      <trkpt lat="43.47118" lon="2.64024">
        <ele>459.17</ele>
        <time>2011-10-02T07:53:03Z</time>
      </trkpt>
      <trkpt lat="43.47104" lon="2.64023">
        <ele>461.57</ele>
        <time>2011-10-02T07:53:18Z</time>
      </trkpt>
      <trkpt lat="43.47092" lon="2.64021">
        <ele>462.53</ele>
        <time>2011-10-02T07:53:32Z</time>
      </trkpt>
      <trkpt lat="43.47079" lon="2.64018">
        <ele>463.49</ele>
        <time>2011-10-02T07:53:45Z</time>
      </trkpt>
      <trkpt lat="43.47076" lon="2.64017">
        <ele>463.49</ele>
        <time>2011-10-02T07:53:47Z</time>
      </trkpt>
      <trkpt lat="43.47065" lon="2.64013">
        <ele>463.97</ele>
        <time>2011-10-02T07:53:58Z</time>
      </trkpt>
      <trkpt lat="43.47048" lon="2.64006">
        <ele>463.01</ele>
        <time>2011-10-02T07:54:14Z</time>
      </trkpt>
      <trkpt lat="43.47038" lon="2.64002">
        <ele>462.05</ele>
        <time>2011-10-02T07:54:22Z</time>
      </trkpt>
      <trkpt lat="43.47019" lon="2.63991">
        <ele>465.42</ele>
        <time>2011-10-02T07:54:38Z</time>
      </trkpt>
      <trkpt lat="43.47005" lon="2.63984">
        <ele>467.82</ele>
        <time>2011-10-02T07:54:52Z</time>
      </trkpt>
      <trkpt lat="43.4699" lon="2.63977">
        <ele>470.22</ele>
        <time>2011-10-02T07:55:06Z</time>
      </trkpt>
      <trkpt lat="43.4698" lon="2.6397">
        <ele>472.14</ele>
        <time>2011-10-02T07:55:17Z</time>
      </trkpt>
      <trkpt lat="43.46975" lon="2.63962">
        <ele>473.59</ele>
        <time>2011-10-02T07:55:25Z</time>
      </trkpt>
      <trkpt lat="43.46968" lon="2.63951">
        <ele>473.59</ele>
        <time>2011-10-02T07:55:38Z</time>
      </trkpt>
      <trkpt lat="43.46967" lon="2.63945">
        <ele>474.07</ele>
        <time>2011-10-02T07:55:43Z</time>
      </trkpt>
      <trkpt lat="43.46966" lon="2.6393">
        <ele>474.07</ele>
        <time>2011-10-02T07:55:57Z</time>
      </trkpt>
      <trkpt lat="43.46967" lon="2.6392">
        <ele>472.63</ele>
        <time>2011-10-02T07:56:03Z</time>
      </trkpt>
      <trkpt lat="43.46972" lon="2.63908">
        <ele>472.63</ele>
        <time>2011-10-02T07:56:11Z</time>
      </trkpt>
      <trkpt lat="43.46972" lon="2.639">
        <ele>474.07</ele>
        <time>2011-10-02T07:56:16Z</time>
      </trkpt>
      <trkpt lat="43.46972" lon="2.63882">
        <ele>475.99</ele>
        <time>2011-10-02T07:56:28Z</time>
      </trkpt>
      <trkpt lat="43.46976" lon="2.63866">
        <ele>475.99</ele>
        <time>2011-10-02T07:56:40Z</time>
      </trkpt>
      <trkpt lat="43.46975" lon="2.63861">
        <ele>476.95</ele>
        <time>2011-10-02T07:56:43Z</time>
      </trkpt>
      <trkpt lat="43.46979" lon="2.63834">
        <ele>479.84</ele>
        <time>2011-10-02T07:56:58Z</time>
      </trkpt>
      <trkpt lat="43.46979" lon="2.63827">
        <ele>479.35</ele>
        <time>2011-10-02T07:57:03Z</time>
      </trkpt>
      <trkpt lat="43.46978" lon="2.63822">
        <ele>480.32</ele>
        <time>2011-10-02T07:57:06Z</time>
      </trkpt>
      <trkpt lat="43.46974" lon="2.63803">
        <ele>484.16</ele>
        <time>2011-10-02T07:57:19Z</time>
      </trkpt>
      <trkpt lat="43.46971" lon="2.63796">
        <ele>483.68</ele>
        <time>2011-10-02T07:57:25Z</time>
      </trkpt>
      <trkpt lat="43.46969" lon="2.63791">
        <ele>483.68</ele>
        <time>2011-10-02T07:57:29Z</time>
      </trkpt>
      <trkpt lat="43.46974" lon="2.63776">
        <ele>483.68</ele>
        <time>2011-10-02T07:57:43Z</time>
      </trkpt>
      <trkpt lat="43.46983" lon="2.63756">
        <ele>487.53</ele>
        <time>2011-10-02T07:57:58Z</time>
      </trkpt>
      <trkpt lat="43.46985" lon="2.63754">
        <ele>487.53</ele>
        <time>2011-10-02T07:58:01Z</time>
      </trkpt>
      <trkpt lat="43.46986" lon="2.63739">
        <ele>489.93</ele>
        <time>2011-10-02T07:58:12Z</time>
      </trkpt>
      <trkpt lat="43.46988" lon="2.63724">
        <ele>490.41</ele>
        <time>2011-10-02T07:58:26Z</time>
      </trkpt>
      <trkpt lat="43.46991" lon="2.63707">
        <ele>493.29</ele>
        <time>2011-10-02T07:58:40Z</time>
      </trkpt>
      <trkpt lat="43.4699" lon="2.63699">
        <ele>495.7</ele>
        <time>2011-10-02T07:58:49Z</time>
      </trkpt>
      <trkpt lat="43.46989" lon="2.63684">
        <ele>496.18</ele>
        <time>2011-10-02T07:59:03Z</time>
      </trkpt>
      <trkpt lat="43.46988" lon="2.63668">
        <ele>499.54</ele>
        <time>2011-10-02T07:59:17Z</time>
      </trkpt>
      <trkpt lat="43.46989" lon="2.63664">
        <ele>500.5</ele>
        <time>2011-10-02T07:59:21Z</time>
      </trkpt>
      <trkpt lat="43.46992" lon="2.63654">
        <ele>499.54</ele>
        <time>2011-10-02T07:59:29Z</time>
      </trkpt>
      <trkpt lat="43.46992" lon="2.63645">
        <ele>500.98</ele>
        <time>2011-10-02T07:59:54Z</time>
      </trkpt>
      <trkpt lat="43.46991" lon="2.6364">
        <ele>501.46</ele>
        <time>2011-10-02T07:59:57Z</time>
      </trkpt>
      <trkpt lat="43.46982" lon="2.63622">
        <ele>505.31</ele>
        <time>2011-10-02T08:00:11Z</time>
      </trkpt>
      <trkpt lat="43.46973" lon="2.63606">
        <ele>510.6</ele>
        <time>2011-10-02T08:00:27Z</time>
      </trkpt>
      <trkpt lat="43.4697" lon="2.63599">
        <ele>512.04</ele>
        <time>2011-10-02T08:00:35Z</time>
      </trkpt>
      <trkpt lat="43.46963" lon="2.63588">
        <ele>516.37</ele>
        <time>2011-10-02T08:00:49Z</time>
      </trkpt>
      <trkpt lat="43.46961" lon="2.63583">
        <ele>516.85</ele>
        <time>2011-10-02T08:00:56Z</time>
      </trkpt>
      <trkpt lat="43.46953" lon="2.63569">
        <ele>519.25</ele>
        <time>2011-10-02T08:01:12Z</time>
      </trkpt>
      <trkpt lat="43.46948" lon="2.63559">
        <ele>522.13</ele>
        <time>2011-10-02T08:01:26Z</time>
      </trkpt>
      <trkpt lat="43.46943" lon="2.63548">
        <ele>522.13</ele>
        <time>2011-10-02T08:01:41Z</time>
      </trkpt>
      <trkpt lat="43.4694" lon="2.63535">
        <ele>523.58</ele>
        <time>2011-10-02T08:01:56Z</time>
      </trkpt>
      <trkpt lat="43.46938" lon="2.63529">
        <ele>523.58</ele>
        <time>2011-10-02T08:02:02Z</time>
      </trkpt>
      <trkpt lat="43.46934" lon="2.63518">
        <ele>525.5</ele>
        <time>2011-10-02T08:02:11Z</time>
      </trkpt>
      <trkpt lat="43.46928" lon="2.63505">
        <ele>527.9</ele>
        <time>2011-10-02T08:02:25Z</time>
      </trkpt>
      <trkpt lat="43.46919" lon="2.63491">
        <ele>530.3</ele>
        <time>2011-10-02T08:02:40Z</time>
      </trkpt>
      <trkpt lat="43.46912" lon="2.6348">
        <ele>532.23</ele>
        <time>2011-10-02T08:02:53Z</time>
      </trkpt>
      <trkpt lat="43.46907" lon="2.63468">
        <ele>532.23</ele>
        <time>2011-10-02T08:03:08Z</time>
      </trkpt>
      <trkpt lat="43.46901" lon="2.63454">
        <ele>532.71</ele>
        <time>2011-10-02T08:03:22Z</time>
      </trkpt>
      <trkpt lat="43.46897" lon="2.63441">
        <ele>536.07</ele>
        <time>2011-10-02T08:03:35Z</time>
      </trkpt>
      <trkpt lat="43.46893" lon="2.63431">
        <ele>537.99</ele>
        <time>2011-10-02T08:03:48Z</time>
      </trkpt>
      <trkpt lat="43.46892" lon="2.63422">
        <ele>538.96</ele>
        <time>2011-10-02T08:03:55Z</time>
      </trkpt>
      <trkpt lat="43.4689" lon="2.63412">
        <ele>539.44</ele>
        <time>2011-10-02T08:04:03Z</time>
      </trkpt>
      <trkpt lat="43.46887" lon="2.63391">
        <ele>542.8</ele>
        <time>2011-10-02T08:04:19Z</time>
      </trkpt>
      <trkpt lat="43.46886" lon="2.63389">
        <ele>543.28</ele>
        <time>2011-10-02T08:04:21Z</time>
      </trkpt>
      <trkpt lat="43.46884" lon="2.63373">
        <ele>545.69</ele>
        <time>2011-10-02T08:04:32Z</time>
      </trkpt>
      <trkpt lat="43.46885" lon="2.63359">
        <ele>546.65</ele>
        <time>2011-10-02T08:04:46Z</time>
      </trkpt>
      <trkpt lat="43.46885" lon="2.63359">
        <ele>546.65</ele>
        <time>2011-10-02T08:04:50Z</time>
      </trkpt>
      <trkpt lat="43.46884" lon="2.63355">
        <ele>546.65</ele>
        <time>2011-10-02T08:04:53Z</time>
      </trkpt>
      <trkpt lat="43.46885" lon="2.63347">
        <ele>547.13</ele>
        <time>2011-10-02T08:04:59Z</time>
      </trkpt>
      <trkpt lat="43.46885" lon="2.63324">
        <ele>549.53</ele>
        <time>2011-10-02T08:05:16Z</time>
      </trkpt>
      <trkpt lat="43.46885" lon="2.6332">
        <ele>550.97</ele>
        <time>2011-10-02T08:05:19Z</time>
      </trkpt>
      <trkpt lat="43.46885" lon="2.63317">
        <ele>551.45</ele>
        <time>2011-10-02T08:05:21Z</time>
      </trkpt>
      <trkpt lat="43.46885" lon="2.63298">
        <ele>551.93</ele>
        <time>2011-10-02T08:05:36Z</time>
      </trkpt>
      <trkpt lat="43.46883" lon="2.63284">
        <ele>552.9</ele>
        <time>2011-10-02T08:05:48Z</time>
      </trkpt>
      <trkpt lat="43.46881" lon="2.63273">
        <ele>554.34</ele>
        <time>2011-10-02T08:05:56Z</time>
      </trkpt>
      <trkpt lat="43.46873" lon="2.63257">
        <ele>555.3</ele>
        <time>2011-10-02T08:06:12Z</time>
      </trkpt>
      <trkpt lat="43.46865" lon="2.63244">
        <ele>558.66</ele>
        <time>2011-10-02T08:06:27Z</time>
      </trkpt>
      <trkpt lat="43.46858" lon="2.63228">
        <ele>562.51</ele>
        <time>2011-10-02T08:06:42Z</time>
      </trkpt>
      <trkpt lat="43.46852" lon="2.63213">
        <ele>564.43</ele>
        <time>2011-10-02T08:06:57Z</time>
      </trkpt>
      <trkpt lat="43.4685" lon="2.63206">
        <ele>564.91</ele>
        <time>2011-10-02T08:07:03Z</time>
      </trkpt>
      <trkpt lat="43.46847" lon="2.63196">
        <ele>565.87</ele>
        <time>2011-10-02T08:07:12Z</time>
      </trkpt>
      <trkpt lat="43.46835" lon="2.63177">
        <ele>567.32</ele>
        <time>2011-10-02T08:07:29Z</time>
      </trkpt>
      <trkpt lat="43.46819" lon="2.63163">
        <ele>570.2</ele>
        <time>2011-10-02T08:07:46Z</time>
      </trkpt>
      <trkpt lat="43.46803" lon="2.63151">
        <ele>571.64</ele>
        <time>2011-10-02T08:08:03Z</time>
      </trkpt>
      <trkpt lat="43.46787" lon="2.63143">
        <ele>571.16</ele>
        <time>2011-10-02T08:08:18Z</time>
      </trkpt>
      <trkpt lat="43.46772" lon="2.63138">
        <ele>570.2</ele>
        <time>2011-10-02T08:08:33Z</time>
      </trkpt>
      <trkpt lat="43.46754" lon="2.63125">
        <ele>569.72</ele>
        <time>2011-10-02T08:08:49Z</time>
      </trkpt>
      <trkpt lat="43.4675" lon="2.63116">
        <ele>568.28</ele>
        <time>2011-10-02T08:08:58Z</time>
      </trkpt>
      <trkpt lat="43.46749" lon="2.63114">
        <ele>568.28</ele>
        <time>2011-10-02T08:09:04Z</time>
      </trkpt>
      <trkpt lat="43.46746" lon="2.63109">
        <ele>567.8</ele>
        <time>2011-10-02T08:09:09Z</time>
      </trkpt>
      <trkpt lat="43.46743" lon="2.63104">
        <ele>567.8</ele>
        <time>2011-10-02T08:09:16Z</time>
      </trkpt>
      <trkpt lat="43.46736" lon="2.63078">
        <ele>568.76</ele>
        <time>2011-10-02T08:09:33Z</time>
      </trkpt>
      <trkpt lat="43.46733" lon="2.63071">
        <ele>569.72</ele>
        <time>2011-10-02T08:09:39Z</time>
      </trkpt>
      <trkpt lat="43.46732" lon="2.63067">
        <ele>569.72</ele>
        <time>2011-10-02T08:09:42Z</time>
      </trkpt>
      <trkpt lat="43.46717" lon="2.63047">
        <ele>573.56</ele>
        <time>2011-10-02T08:10:01Z</time>
      </trkpt>
      <trkpt lat="43.46716" lon="2.63044">
        <ele>574.04</ele>
        <time>2011-10-02T08:10:03Z</time>
      </trkpt>
      <trkpt lat="43.46715" lon="2.63031">
        <ele>575.01</ele>
        <time>2011-10-02T08:10:15Z</time>
      </trkpt>
      <trkpt lat="43.46717" lon="2.63023">
        <ele>574.04</ele>
        <time>2011-10-02T08:10:20Z</time>
      </trkpt>
      <trkpt lat="43.46715" lon="2.62999">
        <ele>572.12</ele>
        <time>2011-10-02T08:10:35Z</time>
      </trkpt>
      <trkpt lat="43.46698" lon="2.62975">
        <ele>570.68</ele>
        <time>2011-10-02T08:10:51Z</time>
      </trkpt>
      <trkpt lat="43.46686" lon="2.62958">
        <ele>571.16</ele>
        <time>2011-10-02T08:11:05Z</time>
      </trkpt>
      <trkpt lat="43.46685" lon="2.62955">
        <ele>571.16</ele>
        <time>2011-10-02T08:11:07Z</time>
      </trkpt>
      <trkpt lat="43.46682" lon="2.62945">
        <ele>571.64</ele>
        <time>2011-10-02T08:11:12Z</time>
      </trkpt>
      <trkpt lat="43.46674" lon="2.62936">
        <ele>572.12</ele>
        <time>2011-10-02T08:11:18Z</time>
      </trkpt>
      <trkpt lat="43.4667" lon="2.62928">
        <ele>574.04</ele>
        <time>2011-10-02T08:11:25Z</time>
      </trkpt>
      <trkpt lat="43.46668" lon="2.62913">
        <ele>575.97</ele>
        <time>2011-10-02T08:11:32Z</time>
      </trkpt>
      <trkpt lat="43.4667" lon="2.62908">
        <ele>576.93</ele>
        <time>2011-10-02T08:11:37Z</time>
      </trkpt>
      <trkpt lat="43.46668" lon="2.62901">
        <ele>578.37</ele>
        <time>2011-10-02T08:11:46Z</time>
      </trkpt>
      <trkpt lat="43.46674" lon="2.62895">
        <ele>579.81</ele>
        <time>2011-10-02T08:11:53Z</time>
      </trkpt>
      <trkpt lat="43.4668" lon="2.6289">
        <ele>578.85</ele>
        <time>2011-10-02T08:12:00Z</time>
      </trkpt>
      <trkpt lat="43.46685" lon="2.6289">
        <ele>577.89</ele>
        <time>2011-10-02T08:12:03Z</time>
      </trkpt>
      <trkpt lat="43.46701" lon="2.6288">
        <ele>577.41</ele>
        <time>2011-10-02T08:12:16Z</time>
      </trkpt>
      <trkpt lat="43.4671" lon="2.62869">
        <ele>577.89</ele>
        <time>2011-10-02T08:12:26Z</time>
      </trkpt>
      <trkpt lat="43.46713" lon="2.62867">
        <ele>577.41</ele>
        <time>2011-10-02T08:12:29Z</time>
      </trkpt>
      <trkpt lat="43.46717" lon="2.62864">
        <ele>576.93</ele>
        <time>2011-10-02T08:12:32Z</time>
      </trkpt>
      <trkpt lat="43.46719" lon="2.62861">
        <ele>576.93</ele>
        <time>2011-10-02T08:12:36Z</time>
      </trkpt>
      <trkpt lat="43.46721" lon="2.62858">
        <ele>576.93</ele>
        <time>2011-10-02T08:12:39Z</time>
      </trkpt>
      <trkpt lat="43.46727" lon="2.62854">
        <ele>576.93</ele>
        <time>2011-10-02T08:12:43Z</time>
      </trkpt>
      <trkpt lat="43.46742" lon="2.62846">
        <ele>580.29</ele>
        <time>2011-10-02T08:12:58Z</time>
      </trkpt>
      <trkpt lat="43.46752" lon="2.62841">
        <ele>581.25</ele>
        <time>2011-10-02T08:13:06Z</time>
      </trkpt>
      <trkpt lat="43.46755" lon="2.6284">
        <ele>581.25</ele>
        <time>2011-10-02T08:13:08Z</time>
      </trkpt>
      <trkpt lat="43.46768" lon="2.62832">
        <ele>582.22</ele>
        <time>2011-10-02T08:13:19Z</time>
      </trkpt>
      <trkpt lat="43.46771" lon="2.62824">
        <ele>582.22</ele>
        <time>2011-10-02T08:13:23Z</time>
      </trkpt>
      <trkpt lat="43.46778" lon="2.62803">
        <ele>581.73</ele>
        <time>2011-10-02T08:13:36Z</time>
      </trkpt>
      <trkpt lat="43.46778" lon="2.62798">
        <ele>582.22</ele>
        <time>2011-10-02T08:13:39Z</time>
      </trkpt>
      <trkpt lat="43.46778" lon="2.62788">
        <ele>582.7</ele>
        <time>2011-10-02T08:13:45Z</time>
      </trkpt>
      <trkpt lat="43.46781" lon="2.62781">
        <ele>582.7</ele>
        <time>2011-10-02T08:13:50Z</time>
      </trkpt>
      <trkpt lat="43.46778" lon="2.62769">
        <ele>584.14</ele>
        <time>2011-10-02T08:13:56Z</time>
      </trkpt>
      <trkpt lat="43.46778" lon="2.62764">
        <ele>584.62</ele>
        <time>2011-10-02T08:13:58Z</time>
      </trkpt>
      <trkpt lat="43.46781" lon="2.62744">
        <ele>585.58</ele>
        <time>2011-10-02T08:14:13Z</time>
      </trkpt>
      <trkpt lat="43.46781" lon="2.62742">
        <ele>585.58</ele>
        <time>2011-10-02T08:14:14Z</time>
      </trkpt>
      <trkpt lat="43.46783" lon="2.62734">
        <ele>587.02</ele>
        <time>2011-10-02T08:14:24Z</time>
      </trkpt>
      <trkpt lat="43.46788" lon="2.62731">
        <ele>587.5</ele>
        <time>2011-10-02T08:14:28Z</time>
      </trkpt>
      <trkpt lat="43.46797" lon="2.62708">
        <ele>589.43</ele>
        <time>2011-10-02T08:14:43Z</time>
      </trkpt>
      <trkpt lat="43.46798" lon="2.62707">
        <ele>589.43</ele>
        <time>2011-10-02T08:14:44Z</time>
      </trkpt>
      <trkpt lat="43.46799" lon="2.62703">
        <ele>589.43</ele>
        <time>2011-10-02T08:14:47Z</time>
      </trkpt>
      <trkpt lat="43.46803" lon="2.62688">
        <ele>589.43</ele>
        <time>2011-10-02T08:14:59Z</time>
      </trkpt>
      <trkpt lat="43.46804" lon="2.62667">
        <ele>587.98</ele>
        <time>2011-10-02T08:15:13Z</time>
      </trkpt>
      <trkpt lat="43.46805" lon="2.62655">
        <ele>587.02</ele>
        <time>2011-10-02T08:15:22Z</time>
      </trkpt>
      <trkpt lat="43.46807" lon="2.62643">
        <ele>586.54</ele>
        <time>2011-10-02T08:15:31Z</time>
      </trkpt>
      <trkpt lat="43.46806" lon="2.62638">
        <ele>587.5</ele>
        <time>2011-10-02T08:15:36Z</time>
      </trkpt>
      <trkpt lat="43.46807" lon="2.62625">
        <ele>591.35</ele>
        <time>2011-10-02T08:15:43Z</time>
      </trkpt>
      <trkpt lat="43.4681" lon="2.62611">
        <ele>593.75</ele>
        <time>2011-10-02T08:15:55Z</time>
      </trkpt>
      <trkpt lat="43.46808" lon="2.62589">
        <ele>595.67</ele>
        <time>2011-10-02T08:16:10Z</time>
      </trkpt>
      <trkpt lat="43.46809" lon="2.62578">
        <ele>597.6</ele>
        <time>2011-10-02T08:16:17Z</time>
      </trkpt>
      <trkpt lat="43.46806" lon="2.62558">
        <ele>601.92</ele>
        <time>2011-10-02T08:16:31Z</time>
      </trkpt>
      <trkpt lat="43.46803" lon="2.62558">
        <ele>602.4</ele>
        <time>2011-10-02T08:16:43Z</time>
      </trkpt>
      <trkpt lat="43.46803" lon="2.62561">
        <ele>602.4</ele>
        <time>2011-10-02T08:17:04Z</time>
      </trkpt>
      <trkpt lat="43.46803" lon="2.62568">
        <ele>599.52</ele>
        <time>2011-10-02T08:17:46Z</time>
      </trkpt>
      <trkpt lat="43.46802" lon="2.62571">
        <ele>598.56</ele>
        <time>2011-10-02T08:17:48Z</time>
      </trkpt>
      <trkpt lat="43.468" lon="2.62587">
        <ele>597.12</ele>
        <time>2011-10-02T08:18:02Z</time>
      </trkpt>
      <trkpt lat="43.46799" lon="2.62591">
        <ele>599.04</ele>
        <time>2011-10-02T08:18:11Z</time>
      </trkpt>
      <trkpt lat="43.46793" lon="2.62605">
        <ele>600</ele>
        <time>2011-10-02T08:18:24Z</time>
      </trkpt>
      <trkpt lat="43.46787" lon="2.62619">
        <ele>602.88</ele>
        <time>2011-10-02T08:18:38Z</time>
      </trkpt>
      <trkpt lat="43.46784" lon="2.62625">
        <ele>603.36</ele>
        <time>2011-10-02T08:18:42Z</time>
      </trkpt>
      <trkpt lat="43.46783" lon="2.62627">
        <ele>603.85</ele>
        <time>2011-10-02T08:18:44Z</time>
      </trkpt>
      <trkpt lat="43.46772" lon="2.62642">
        <ele>609.61</ele>
        <time>2011-10-02T08:19:00Z</time>
      </trkpt>
      <trkpt lat="43.46771" lon="2.62651">
        <ele>612.5</ele>
        <time>2011-10-02T08:19:10Z</time>
      </trkpt>
      <trkpt lat="43.46766" lon="2.62665">
        <ele>614.9</ele>
        <time>2011-10-02T08:19:21Z</time>
      </trkpt>
      <trkpt lat="43.46764" lon="2.6267">
        <ele>615.86</ele>
        <time>2011-10-02T08:19:26Z</time>
      </trkpt>
      <trkpt lat="43.46763" lon="2.62672">
        <ele>615.86</ele>
        <time>2011-10-02T08:19:28Z</time>
      </trkpt>
      <trkpt lat="43.46759" lon="2.62676">
        <ele>616.34</ele>
        <time>2011-10-02T08:19:31Z</time>
      </trkpt>
      <trkpt lat="43.46756" lon="2.62681">
        <ele>613.94</ele>
        <time>2011-10-02T08:19:36Z</time>
      </trkpt>
      <trkpt lat="43.46755" lon="2.62683">
        <ele>612.98</ele>
        <time>2011-10-02T08:19:38Z</time>
      </trkpt>
      <trkpt lat="43.46748" lon="2.62699">
        <ele>609.13</ele>
        <time>2011-10-02T08:19:51Z</time>
      </trkpt>
      <trkpt lat="43.46743" lon="2.62695">
        <ele>607.69</ele>
        <time>2011-10-02T08:20:02Z</time>
      </trkpt>
      <trkpt lat="43.46742" lon="2.62687">
        <ele>607.69</ele>
        <time>2011-10-02T08:20:07Z</time>
      </trkpt>
      <trkpt lat="43.46747" lon="2.62664">
        <ele>608.65</ele>
        <time>2011-10-02T08:20:20Z</time>
      </trkpt>
      <trkpt lat="43.46753" lon="2.62649">
        <ele>610.09</ele>
        <time>2011-10-02T08:20:35Z</time>
      </trkpt>
      <trkpt lat="43.46756" lon="2.62627">
        <ele>610.57</ele>
        <time>2011-10-02T08:20:49Z</time>
      </trkpt>
      <trkpt lat="43.46755" lon="2.62605">
        <ele>612.02</ele>
        <time>2011-10-02T08:21:04Z</time>
      </trkpt>
      <trkpt lat="43.46754" lon="2.62597">
        <ele>612.5</ele>
        <time>2011-10-02T08:21:10Z</time>
      </trkpt>
      <trkpt lat="43.46756" lon="2.62591">
        <ele>613.46</ele>
        <time>2011-10-02T08:21:14Z</time>
      </trkpt>
      <trkpt lat="43.46757" lon="2.62568">
        <ele>614.9</ele>
        <time>2011-10-02T08:21:29Z</time>
      </trkpt>
      <trkpt lat="43.46757" lon="2.6256">
        <ele>614.9</ele>
        <time>2011-10-02T08:21:34Z</time>
      </trkpt>
      <trkpt lat="43.46755" lon="2.62542">
        <ele>615.86</ele>
        <time>2011-10-02T08:21:45Z</time>
      </trkpt>
      <trkpt lat="43.46741" lon="2.62518">
        <ele>617.78</ele>
        <time>2011-10-02T08:22:03Z</time>
      </trkpt>
      <trkpt lat="43.46736" lon="2.62508">
        <ele>619.23</ele>
        <time>2011-10-02T08:22:11Z</time>
      </trkpt>
      <trkpt lat="43.4673" lon="2.62501">
        <ele>620.67</ele>
        <time>2011-10-02T08:22:17Z</time>
      </trkpt>
      <trkpt lat="43.46719" lon="2.62484">
        <ele>624.03</ele>
        <time>2011-10-02T08:22:31Z</time>
      </trkpt>
      <trkpt lat="43.46703" lon="2.62469">
        <ele>628.36</ele>
        <time>2011-10-02T08:22:47Z</time>
      </trkpt>
      <trkpt lat="43.46688" lon="2.62453">
        <ele>633.65</ele>
        <time>2011-10-02T08:23:02Z</time>
      </trkpt>
      <trkpt lat="43.4667" lon="2.62445">
        <ele>636.53</ele>
        <time>2011-10-02T08:23:18Z</time>
      </trkpt>
      <trkpt lat="43.46656" lon="2.62435">
        <ele>638.93</ele>
        <time>2011-10-02T08:23:33Z</time>
      </trkpt>
      <trkpt lat="43.46645" lon="2.62431">
        <ele>638.93</ele>
        <time>2011-10-02T08:23:45Z</time>
      </trkpt>
      <trkpt lat="43.46634" lon="2.62425">
        <ele>638.45</ele>
        <time>2011-10-02T08:23:58Z</time>
      </trkpt>
      <trkpt lat="43.46622" lon="2.6242">
        <ele>639.89</ele>
        <time>2011-10-02T08:24:12Z</time>
      </trkpt>
      <trkpt lat="43.46611" lon="2.62416">
        <ele>642.3</ele>
        <time>2011-10-02T08:24:23Z</time>
      </trkpt>
      <trkpt lat="43.46609" lon="2.62416">
        <ele>643.74</ele>
        <time>2011-10-02T08:24:26Z</time>
      </trkpt>
      <trkpt lat="43.466" lon="2.62404">
        <ele>645.18</ele>
        <time>2011-10-02T08:24:40Z</time>
      </trkpt>
      <trkpt lat="43.46598" lon="2.62386">
        <ele>646.14</ele>
        <time>2011-10-02T08:24:55Z</time>
      </trkpt>
      <trkpt lat="43.46598" lon="2.6237">
        <ele>646.14</ele>
        <time>2011-10-02T08:25:05Z</time>
      </trkpt>
      <trkpt lat="43.46587" lon="2.62347">
        <ele>649.03</ele>
        <time>2011-10-02T08:25:23Z</time>
      </trkpt>
      <trkpt lat="43.46584" lon="2.62323">
        <ele>649.03</ele>
        <time>2011-10-02T08:25:39Z</time>
      </trkpt>
      <trkpt lat="43.46589" lon="2.62309">
        <ele>646.62</ele>
        <time>2011-10-02T08:25:52Z</time>
      </trkpt>
      <trkpt lat="43.4659" lon="2.62307">
        <ele>646.62</ele>
        <time>2011-10-02T08:25:53Z</time>
      </trkpt>
      <trkpt lat="43.4659" lon="2.62294">
        <ele>644.22</ele>
        <time>2011-10-02T08:26:08Z</time>
      </trkpt>
      <trkpt lat="43.4659" lon="2.62291">
        <ele>644.22</ele>
        <time>2011-10-02T08:26:10Z</time>
      </trkpt>
      <trkpt lat="43.46594" lon="2.62279">
        <ele>644.22</ele>
        <time>2011-10-02T08:26:24Z</time>
      </trkpt>
      <trkpt lat="43.46584" lon="2.62279">
        <ele>645.66</ele>
        <time>2011-10-02T08:27:01Z</time>
      </trkpt>
      <trkpt lat="43.46581" lon="2.62282">
        <ele>646.14</ele>
        <time>2011-10-02T08:27:05Z</time>
      </trkpt>
      <trkpt lat="43.46574" lon="2.62302">
        <ele>646.62</ele>
        <time>2011-10-02T08:27:21Z</time>
      </trkpt>
      <trkpt lat="43.46573" lon="2.62306">
        <ele>647.1</ele>
        <time>2011-10-02T08:27:24Z</time>
      </trkpt>
      <trkpt lat="43.4657" lon="2.62321">
        <ele>649.51</ele>
        <time>2011-10-02T08:27:36Z</time>
      </trkpt>
      <trkpt lat="43.46565" lon="2.62336">
        <ele>649.99</ele>
        <time>2011-10-02T08:27:50Z</time>
      </trkpt>
      <trkpt lat="43.46563" lon="2.62355">
        <ele>651.43</ele>
        <time>2011-10-02T08:28:04Z</time>
      </trkpt>
      <trkpt lat="43.46563" lon="2.62368">
        <ele>651.43</ele>
        <time>2011-10-02T08:28:15Z</time>
      </trkpt>
      <trkpt lat="43.46561" lon="2.62392">
        <ele>651.43</ele>
        <time>2011-10-02T08:28:33Z</time>
      </trkpt>
      <trkpt lat="43.46563" lon="2.62411">
        <ele>652.39</ele>
        <time>2011-10-02T08:28:47Z</time>
      </trkpt>
      <trkpt lat="43.4656" lon="2.62433">
        <ele>652.87</ele>
        <time>2011-10-02T08:29:03Z</time>
      </trkpt>
      <trkpt lat="43.46555" lon="2.62451">
        <ele>656.72</ele>
        <time>2011-10-02T08:29:18Z</time>
      </trkpt>
      <trkpt lat="43.46555" lon="2.62461">
        <ele>659.6</ele>
        <time>2011-10-02T08:29:25Z</time>
      </trkpt>
      <trkpt lat="43.46561" lon="2.62481">
        <ele>662.97</ele>
        <time>2011-10-02T08:29:40Z</time>
      </trkpt>
      <trkpt lat="43.46569" lon="2.62491">
        <ele>665.37</ele>
        <time>2011-10-02T08:29:49Z</time>
      </trkpt>
      <trkpt lat="43.46574" lon="2.62498">
        <ele>667.77</ele>
        <time>2011-10-02T08:29:56Z</time>
      </trkpt>
      <trkpt lat="43.46584" lon="2.6251">
        <ele>669.22</ele>
        <time>2011-10-02T08:30:08Z</time>
      </trkpt>
      <trkpt lat="43.46595" lon="2.62522">
        <ele>670.18</ele>
        <time>2011-10-02T08:30:21Z</time>
      </trkpt>
      <trkpt lat="43.46602" lon="2.62534">
        <ele>670.18</ele>
        <time>2011-10-02T08:30:36Z</time>
      </trkpt>
      <trkpt lat="43.46604" lon="2.6254">
        <ele>670.18</ele>
        <time>2011-10-02T08:30:41Z</time>
      </trkpt>
      <trkpt lat="43.46611" lon="2.62559">
        <ele>666.33</ele>
        <time>2011-10-02T08:30:57Z</time>
      </trkpt>
      <trkpt lat="43.46613" lon="2.62571">
        <ele>664.89</ele>
        <time>2011-10-02T08:31:07Z</time>
      </trkpt>
      <trkpt lat="43.46611" lon="2.62583">
        <ele>665.85</ele>
        <time>2011-10-02T08:31:16Z</time>
      </trkpt>
      <trkpt lat="43.46602" lon="2.62591">
        <ele>669.22</ele>
        <time>2011-10-02T08:31:27Z</time>
      </trkpt>
      <trkpt lat="43.46588" lon="2.62602">
        <ele>675.46</ele>
        <time>2011-10-02T08:31:44Z</time>
      </trkpt>
      <trkpt lat="43.4658" lon="2.62605">
        <ele>677.39</ele>
        <time>2011-10-02T08:31:51Z</time>
      </trkpt>
      <trkpt lat="43.46575" lon="2.62606">
        <ele>678.83</ele>
        <time>2011-10-02T08:31:57Z</time>
      </trkpt>
      <trkpt lat="43.46563" lon="2.62599">
        <ele>682.67</ele>
        <time>2011-10-02T08:32:09Z</time>
      </trkpt>
      <trkpt lat="43.46555" lon="2.62588">
        <ele>682.67</ele>
        <time>2011-10-02T08:32:24Z</time>
      </trkpt>
      <trkpt lat="43.46546" lon="2.62575">
        <ele>682.19</ele>
        <time>2011-10-02T08:32:38Z</time>
      </trkpt>
      <trkpt lat="43.46535" lon="2.62559">
        <ele>681.71</ele>
        <time>2011-10-02T08:32:53Z</time>
      </trkpt>
      <trkpt lat="43.46525" lon="2.62542">
        <ele>684.12</ele>
        <time>2011-10-02T08:33:08Z</time>
      </trkpt>
      <trkpt lat="43.46517" lon="2.6253">
        <ele>684.6</ele>
        <time>2011-10-02T08:33:21Z</time>
      </trkpt>
      <trkpt lat="43.46515" lon="2.62517">
        <ele>684.12</ele>
        <time>2011-10-02T08:33:35Z</time>
      </trkpt>
      <trkpt lat="43.46514" lon="2.62499">
        <ele>684.6</ele>
        <time>2011-10-02T08:33:50Z</time>
      </trkpt>
      <trkpt lat="43.46515" lon="2.62497">
        <ele>685.08</ele>
        <time>2011-10-02T08:33:52Z</time>
      </trkpt>
      <trkpt lat="43.4651" lon="2.62482">
        <ele>686.04</ele>
        <time>2011-10-02T08:34:05Z</time>
      </trkpt>
      <trkpt lat="43.46504" lon="2.6247">
        <ele>687</ele>
        <time>2011-10-02T08:34:15Z</time>
      </trkpt>
      <trkpt lat="43.46496" lon="2.62452">
        <ele>690.36</ele>
        <time>2011-10-02T08:34:31Z</time>
      </trkpt>
      <trkpt lat="43.46491" lon="2.62435">
        <ele>690.36</ele>
        <time>2011-10-02T08:34:47Z</time>
      </trkpt>
      <trkpt lat="43.46489" lon="2.62432">
        <ele>689.88</ele>
        <time>2011-10-02T08:34:50Z</time>
      </trkpt>
      <trkpt lat="43.46488" lon="2.62415">
        <ele>691.33</ele>
        <time>2011-10-02T08:35:04Z</time>
      </trkpt>
      <trkpt lat="43.46485" lon="2.62403">
        <ele>691.81</ele>
        <time>2011-10-02T08:35:19Z</time>
      </trkpt>
      <trkpt lat="43.46478" lon="2.62393">
        <ele>694.21</ele>
        <time>2011-10-02T08:35:33Z</time>
      </trkpt>
      <trkpt lat="43.46475" lon="2.62396">
        <ele>694.69</ele>
        <time>2011-10-02T08:35:37Z</time>
      </trkpt>
      <trkpt lat="43.46472" lon="2.62409">
        <ele>695.17</ele>
        <time>2011-10-02T08:35:45Z</time>
      </trkpt>
      <trkpt lat="43.46469" lon="2.62418">
        <ele>696.61</ele>
        <time>2011-10-02T08:35:51Z</time>
      </trkpt>
      <trkpt lat="43.46466" lon="2.62439">
        <ele>699.5</ele>
        <time>2011-10-02T08:36:08Z</time>
      </trkpt>
      <trkpt lat="43.46462" lon="2.62463">
        <ele>702.38</ele>
        <time>2011-10-02T08:36:23Z</time>
      </trkpt>
      <trkpt lat="43.46461" lon="2.62465">
        <ele>702.86</ele>
        <time>2011-10-02T08:36:25Z</time>
      </trkpt>
      <trkpt lat="43.46456" lon="2.62476">
        <ele>704.3</ele>
        <time>2011-10-02T08:36:33Z</time>
      </trkpt>
      <trkpt lat="43.46447" lon="2.62491">
        <ele>708.15</ele>
        <time>2011-10-02T08:36:45Z</time>
      </trkpt>
      <trkpt lat="43.46446" lon="2.62495">
        <ele>708.63</ele>
        <time>2011-10-02T08:36:47Z</time>
      </trkpt>
      <trkpt lat="43.46436" lon="2.62507">
        <ele>712.47</ele>
        <time>2011-10-02T08:37:01Z</time>
      </trkpt>
      <trkpt lat="43.46425" lon="2.62525">
        <ele>713.92</ele>
        <time>2011-10-02T08:37:18Z</time>
      </trkpt>
      <trkpt lat="43.46418" lon="2.62533">
        <ele>716.32</ele>
        <time>2011-10-02T08:37:31Z</time>
      </trkpt>
      <trkpt lat="43.46413" lon="2.62544">
        <ele>717.76</ele>
        <time>2011-10-02T08:37:45Z</time>
      </trkpt>
      <trkpt lat="43.46415" lon="2.62546">
        <ele>717.76</ele>
        <time>2011-10-02T08:38:26Z</time>
      </trkpt>
      <trkpt lat="43.46408" lon="2.62543">
        <ele>718.24</ele>
        <time>2011-10-02T08:39:12Z</time>
      </trkpt>
      <trkpt lat="43.46395" lon="2.62559">
        <ele>719.68</ele>
        <time>2011-10-02T08:39:27Z</time>
      </trkpt>
      <trkpt lat="43.46386" lon="2.62568">
        <ele>720.16</ele>
        <time>2011-10-02T08:39:39Z</time>
      </trkpt>
      <trkpt lat="43.46381" lon="2.62569">
        <ele>720.16</ele>
        <time>2011-10-02T08:39:45Z</time>
      </trkpt>
      <trkpt lat="43.46374" lon="2.62568">
        <ele>720.65</ele>
        <time>2011-10-02T08:39:56Z</time>
      </trkpt>
      <trkpt lat="43.46353" lon="2.62571">
        <ele>719.68</ele>
        <time>2011-10-02T08:40:14Z</time>
      </trkpt>
      <trkpt lat="43.46339" lon="2.62582">
        <ele>718.24</ele>
        <time>2011-10-02T08:40:31Z</time>
      </trkpt>
      <trkpt lat="43.46324" lon="2.62589">
        <ele>718.72</ele>
        <time>2011-10-02T08:40:47Z</time>
      </trkpt>
      <trkpt lat="43.46306" lon="2.62594">
        <ele>723.05</ele>
        <time>2011-10-02T08:41:03Z</time>
      </trkpt>
      <trkpt lat="43.46287" lon="2.62605">
        <ele>726.41</ele>
        <time>2011-10-02T08:41:19Z</time>
      </trkpt>
      <trkpt lat="43.46269" lon="2.6261">
        <ele>724.49</ele>
        <time>2011-10-02T08:41:34Z</time>
      </trkpt>
      <trkpt lat="43.46265" lon="2.62612">
        <ele>724.01</ele>
        <time>2011-10-02T08:41:37Z</time>
      </trkpt>
      <trkpt lat="43.46262" lon="2.62613">
        <ele>724.01</ele>
        <time>2011-10-02T08:41:40Z</time>
      </trkpt>
      <trkpt lat="43.46244" lon="2.62613">
        <ele>721.13</ele>
        <time>2011-10-02T08:41:55Z</time>
      </trkpt>
      <trkpt lat="43.46228" lon="2.62609">
        <ele>720.16</ele>
        <time>2011-10-02T08:42:09Z</time>
      </trkpt>
      <trkpt lat="43.46214" lon="2.62612">
        <ele>718.24</ele>
        <time>2011-10-02T08:42:23Z</time>
      </trkpt>
      <trkpt lat="43.46203" lon="2.62618">
        <ele>719.2</ele>
        <time>2011-10-02T08:42:31Z</time>
      </trkpt>
      <trkpt lat="43.46185" lon="2.62639">
        <ele>717.28</ele>
        <time>2011-10-02T08:42:48Z</time>
      </trkpt>
      <trkpt lat="43.46169" lon="2.62649">
        <ele>712.47</ele>
        <time>2011-10-02T08:43:04Z</time>
      </trkpt>
      <trkpt lat="43.46156" lon="2.62645">
        <ele>708.63</ele>
        <time>2011-10-02T08:43:17Z</time>
      </trkpt>
      <trkpt lat="43.46147" lon="2.62643">
        <ele>707.67</ele>
        <time>2011-10-02T08:43:25Z</time>
      </trkpt>
      <trkpt lat="43.4613" lon="2.62644">
        <ele>703.34</ele>
        <time>2011-10-02T08:43:40Z</time>
      </trkpt>
      <trkpt lat="43.46113" lon="2.62641">
        <ele>698.05</ele>
        <time>2011-10-02T08:43:55Z</time>
      </trkpt>
      <trkpt lat="43.46098" lon="2.62639">
        <ele>697.09</ele>
        <time>2011-10-02T08:44:07Z</time>
      </trkpt>
      <trkpt lat="43.46093" lon="2.62637">
        <ele>697.09</ele>
        <time>2011-10-02T08:44:12Z</time>
      </trkpt>
      <trkpt lat="43.46081" lon="2.6263">
        <ele>697.09</ele>
        <time>2011-10-02T08:44:21Z</time>
      </trkpt>
      <trkpt lat="43.46066" lon="2.62619">
        <ele>696.61</ele>
        <time>2011-10-02T08:44:36Z</time>
      </trkpt>
      <trkpt lat="43.46048" lon="2.6261">
        <ele>700.46</ele>
        <time>2011-10-02T08:44:50Z</time>
      </trkpt>
      <trkpt lat="43.46033" lon="2.62612">
        <ele>700.94</ele>
        <time>2011-10-02T08:45:05Z</time>
      </trkpt>
      <trkpt lat="43.46027" lon="2.62617">
        <ele>699.02</ele>
        <time>2011-10-02T08:45:11Z</time>
      </trkpt>
      <trkpt lat="43.46025" lon="2.62639">
        <ele>695.17</ele>
        <time>2011-10-02T08:45:23Z</time>
      </trkpt>
      <trkpt lat="43.46028" lon="2.62671">
        <ele>694.69</ele>
        <time>2011-10-02T08:45:40Z</time>
      </trkpt>
      <trkpt lat="43.46028" lon="2.62673">
        <ele>694.69</ele>
        <time>2011-10-02T08:45:41Z</time>
      </trkpt>
      <trkpt lat="43.46028" lon="2.62698">
        <ele>695.17</ele>
        <time>2011-10-02T08:45:56Z</time>
      </trkpt>
      <trkpt lat="43.4602" lon="2.62717">
        <ele>695.17</ele>
        <time>2011-10-02T08:46:10Z</time>
      </trkpt>
      <trkpt lat="43.46017" lon="2.62721">
        <ele>695.65</ele>
        <time>2011-10-02T08:46:14Z</time>
      </trkpt>
      <trkpt lat="43.4601" lon="2.62742">
        <ele>695.17</ele>
        <time>2011-10-02T08:46:28Z</time>
      </trkpt>
      <trkpt lat="43.46009" lon="2.62759">
        <ele>693.25</ele>
        <time>2011-10-02T08:46:39Z</time>
      </trkpt>
      <trkpt lat="43.4601" lon="2.62763">
        <ele>692.77</ele>
        <time>2011-10-02T08:46:42Z</time>
      </trkpt>
      <trkpt lat="43.4601" lon="2.62772">
        <ele>692.29</ele>
        <time>2011-10-02T08:46:48Z</time>
      </trkpt>
      <trkpt lat="43.46011" lon="2.62797">
        <ele>692.29</ele>
        <time>2011-10-02T08:47:04Z</time>
      </trkpt>
      <trkpt lat="43.46009" lon="2.62823">
        <ele>689.4</ele>
        <time>2011-10-02T08:47:21Z</time>
      </trkpt>
      <trkpt lat="43.46007" lon="2.62842">
        <ele>687</ele>
        <time>2011-10-02T08:47:35Z</time>
      </trkpt>
      <trkpt lat="43.46009" lon="2.62851">
        <ele>685.56</ele>
        <time>2011-10-02T08:47:41Z</time>
      </trkpt>
      <trkpt lat="43.46009" lon="2.62878">
        <ele>687.96</ele>
        <time>2011-10-02T08:47:57Z</time>
      </trkpt>
      <trkpt lat="43.46011" lon="2.62894">
        <ele>687.96</ele>
        <time>2011-10-02T08:48:07Z</time>
      </trkpt>
      <trkpt lat="43.46013" lon="2.62904">
        <ele>688.92</ele>
        <time>2011-10-02T08:48:13Z</time>
      </trkpt>
      <trkpt lat="43.46017" lon="2.62918">
        <ele>689.4</ele>
        <time>2011-10-02T08:48:22Z</time>
      </trkpt>
      <trkpt lat="43.46021" lon="2.62934">
        <ele>688.92</ele>
        <time>2011-10-02T08:48:32Z</time>
      </trkpt>
      <trkpt lat="43.46021" lon="2.62938">
        <ele>688.44</ele>
        <time>2011-10-02T08:48:34Z</time>
      </trkpt>
      <trkpt lat="43.46021" lon="2.62965">
        <ele>688.44</ele>
        <time>2011-10-02T08:48:50Z</time>
      </trkpt>
      <trkpt lat="43.4602" lon="2.6299">
        <ele>684.6</ele>
        <time>2011-10-02T08:49:06Z</time>
      </trkpt>
      <trkpt lat="43.46019" lon="2.62999">
        <ele>682.19</ele>
        <time>2011-10-02T08:49:12Z</time>
      </trkpt>
      <trkpt lat="43.46022" lon="2.63016">
        <ele>678.83</ele>
        <time>2011-10-02T08:49:24Z</time>
      </trkpt>
      <trkpt lat="43.46019" lon="2.63029">
        <ele>677.87</ele>
        <time>2011-10-02T08:49:32Z</time>
      </trkpt>
      <trkpt lat="43.46017" lon="2.63034">
        <ele>677.39</ele>
        <time>2011-10-02T08:49:36Z</time>
      </trkpt>
      <trkpt lat="43.46014" lon="2.63041">
        <ele>677.39</ele>
        <time>2011-10-02T08:49:42Z</time>
      </trkpt>
      <trkpt lat="43.46007" lon="2.63054">
        <ele>677.39</ele>
        <time>2011-10-02T08:49:56Z</time>
      </trkpt>
      <trkpt lat="43.46006" lon="2.63058">
        <ele>677.39</ele>
        <time>2011-10-02T08:49:59Z</time>
      </trkpt>
      <trkpt lat="43.45999" lon="2.63066">
        <ele>676.42</ele>
        <time>2011-10-02T08:50:07Z</time>
      </trkpt>
      <trkpt lat="43.45988" lon="2.63081">
        <ele>675.46</ele>
        <time>2011-10-02T08:50:21Z</time>
      </trkpt>
      <trkpt lat="43.45977" lon="2.63093">
        <ele>678.35</ele>
        <time>2011-10-02T08:50:34Z</time>
      </trkpt>
      <trkpt lat="43.45972" lon="2.63096">
        <ele>679.31</ele>
        <time>2011-10-02T08:50:39Z</time>
      </trkpt>
      <trkpt lat="43.45953" lon="2.631">
        <ele>681.71</ele>
        <time>2011-10-02T08:50:55Z</time>
      </trkpt>
      <trkpt lat="43.45934" lon="2.63102">
        <ele>687.96</ele>
        <time>2011-10-02T08:51:11Z</time>
      </trkpt>
      <trkpt lat="43.45914" lon="2.63114">
        <ele>683.15</ele>
        <time>2011-10-02T08:51:27Z</time>
      </trkpt>
      <trkpt lat="43.45898" lon="2.63131">
        <ele>687.96</ele>
        <time>2011-10-02T08:51:42Z</time>
      </trkpt>
      <trkpt lat="43.45887" lon="2.63148">
        <ele>688.44</ele>
        <time>2011-10-02T08:51:56Z</time>
      </trkpt>
      <trkpt lat="43.45871" lon="2.63164">
        <ele>685.08</ele>
        <time>2011-10-02T08:52:12Z</time>
      </trkpt>
      <trkpt lat="43.45865" lon="2.63174">
        <ele>681.71</ele>
        <time>2011-10-02T08:52:22Z</time>
      </trkpt>
      <trkpt lat="43.4586" lon="2.63199">
        <ele>686.04</ele>
        <time>2011-10-02T08:52:37Z</time>
      </trkpt>
      <trkpt lat="43.45868" lon="2.63217">
        <ele>681.71</ele>
        <time>2011-10-02T08:52:48Z</time>
      </trkpt>
      <trkpt lat="43.4588" lon="2.63232">
        <ele>679.79</ele>
        <time>2011-10-02T08:53:03Z</time>
      </trkpt>
      <trkpt lat="43.45882" lon="2.63234">
        <ele>680.27</ele>
        <time>2011-10-02T08:53:18Z</time>
      </trkpt>
      <trkpt lat="43.45892" lon="2.63228">
        <ele>679.79</ele>
        <time>2011-10-02T08:53:46Z</time>
      </trkpt>
      <trkpt lat="43.45892" lon="2.63227">
        <ele>679.79</ele>
        <time>2011-10-02T08:54:46Z</time>
      </trkpt>
      <trkpt lat="43.45891" lon="2.63226">
        <ele>679.79</ele>
        <time>2011-10-02T08:55:33Z</time>
      </trkpt>
      <trkpt lat="43.4589" lon="2.63226">
        <ele>679.79</ele>
        <time>2011-10-02T08:55:43Z</time>
      </trkpt>
      <trkpt lat="43.45884" lon="2.63229">
        <ele>679.79</ele>
        <time>2011-10-02T08:55:59Z</time>
      </trkpt>
      <trkpt lat="43.45884" lon="2.6323">
        <ele>679.79</ele>
        <time>2011-10-02T08:57:33Z</time>
      </trkpt>
      <trkpt lat="43.45885" lon="2.6323">
        <ele>679.79</ele>
        <time>2011-10-02T08:58:16Z</time>
      </trkpt>
      <trkpt lat="43.45889" lon="2.63241">
        <ele>678.83</ele>
        <time>2011-10-02T08:59:15Z</time>
      </trkpt>
      <trkpt lat="43.45896" lon="2.63269">
        <ele>678.35</ele>
        <time>2011-10-02T08:59:31Z</time>
      </trkpt>
      <trkpt lat="43.45896" lon="2.63276">
        <ele>678.35</ele>
        <time>2011-10-02T08:59:35Z</time>
      </trkpt>
      <trkpt lat="43.45898" lon="2.63294">
        <ele>677.87</ele>
        <time>2011-10-02T08:59:45Z</time>
      </trkpt>
      <trkpt lat="43.45901" lon="2.63315">
        <ele>676.91</ele>
        <time>2011-10-02T08:59:58Z</time>
      </trkpt>
      <trkpt lat="43.45904" lon="2.63338">
        <ele>674.5</ele>
        <time>2011-10-02T09:00:13Z</time>
      </trkpt>
      <trkpt lat="43.45905" lon="2.63357">
        <ele>671.62</ele>
        <time>2011-10-02T09:00:26Z</time>
      </trkpt>
      <trkpt lat="43.45906" lon="2.63379">
        <ele>670.18</ele>
        <time>2011-10-02T09:00:41Z</time>
      </trkpt>
      <trkpt lat="43.45903" lon="2.63399">
        <ele>670.18</ele>
        <time>2011-10-02T09:00:55Z</time>
      </trkpt>
      <trkpt lat="43.45903" lon="2.63403">
        <ele>670.18</ele>
        <time>2011-10-02T09:00:57Z</time>
      </trkpt>
      <trkpt lat="43.45902" lon="2.63437">
        <ele>671.14</ele>
        <time>2011-10-02T09:01:15Z</time>
      </trkpt>
      <trkpt lat="43.45901" lon="2.63461">
        <ele>670.66</ele>
        <time>2011-10-02T09:01:29Z</time>
      </trkpt>
      <trkpt lat="43.45898" lon="2.6348">
        <ele>667.77</ele>
        <time>2011-10-02T09:01:39Z</time>
      </trkpt>
      <trkpt lat="43.45898" lon="2.63498">
        <ele>666.33</ele>
        <time>2011-10-02T09:01:49Z</time>
      </trkpt>
      <trkpt lat="43.45898" lon="2.63523">
        <ele>661.52</ele>
        <time>2011-10-02T09:02:05Z</time>
      </trkpt>
      <trkpt lat="43.45897" lon="2.6355">
        <ele>660.56</ele>
        <time>2011-10-02T09:02:21Z</time>
      </trkpt>
      <trkpt lat="43.45896" lon="2.63577">
        <ele>656.24</ele>
        <time>2011-10-02T09:02:38Z</time>
      </trkpt>
      <trkpt lat="43.45879" lon="2.63593">
        <ele>654.31</ele>
        <time>2011-10-02T09:02:54Z</time>
      </trkpt>
      <trkpt lat="43.45858" lon="2.63593">
        <ele>653.83</ele>
        <time>2011-10-02T09:03:10Z</time>
      </trkpt>
      <trkpt lat="43.45841" lon="2.63591">
        <ele>653.35</ele>
        <time>2011-10-02T09:03:23Z</time>
      </trkpt>
      <trkpt lat="43.4584" lon="2.63618">
        <ele>655.28</ele>
        <time>2011-10-02T09:03:37Z</time>
      </trkpt>
      <trkpt lat="43.45844" lon="2.63643">
        <ele>655.28</ele>
        <time>2011-10-02T09:03:51Z</time>
      </trkpt>
      <trkpt lat="43.45846" lon="2.6365">
        <ele>654.8</ele>
        <time>2011-10-02T09:03:56Z</time>
      </trkpt>
      <trkpt lat="43.45847" lon="2.63657">
        <ele>654.8</ele>
        <time>2011-10-02T09:04:00Z</time>
      </trkpt>
      <trkpt lat="43.4585" lon="2.6368">
        <ele>655.76</ele>
        <time>2011-10-02T09:04:15Z</time>
      </trkpt>
      <trkpt lat="43.4585" lon="2.63705">
        <ele>655.76</ele>
        <time>2011-10-02T09:04:31Z</time>
      </trkpt>
      <trkpt lat="43.45849" lon="2.63716">
        <ele>654.8</ele>
        <time>2011-10-02T09:04:39Z</time>
      </trkpt>
      <trkpt lat="43.45843" lon="2.63739">
        <ele>652.87</ele>
        <time>2011-10-02T09:04:54Z</time>
      </trkpt>
      <trkpt lat="43.45832" lon="2.6376">
        <ele>649.99</ele>
        <time>2011-10-02T09:05:11Z</time>
      </trkpt>
      <trkpt lat="43.45827" lon="2.63772">
        <ele>649.03</ele>
        <time>2011-10-02T09:05:22Z</time>
      </trkpt>
      <trkpt lat="43.45817" lon="2.63785">
        <ele>647.59</ele>
        <time>2011-10-02T09:05:35Z</time>
      </trkpt>
      <trkpt lat="43.45802" lon="2.63792">
        <ele>649.51</ele>
        <time>2011-10-02T09:05:50Z</time>
      </trkpt>
      <trkpt lat="43.45793" lon="2.63792">
        <ele>650.95</ele>
        <time>2011-10-02T09:05:59Z</time>
      </trkpt>
      <trkpt lat="43.45778" lon="2.63778">
        <ele>652.87</ele>
        <time>2011-10-02T09:06:14Z</time>
      </trkpt>
      <trkpt lat="43.45777" lon="2.63777">
        <ele>653.35</ele>
        <time>2011-10-02T09:06:15Z</time>
      </trkpt>
      <trkpt lat="43.45767" lon="2.63764">
        <ele>653.83</ele>
        <time>2011-10-02T09:06:29Z</time>
      </trkpt>
      <trkpt lat="43.45754" lon="2.63748">
        <ele>650.95</ele>
        <time>2011-10-02T09:06:45Z</time>
      </trkpt>
      <trkpt lat="43.45747" lon="2.63726">
        <ele>650.95</ele>
        <time>2011-10-02T09:07:02Z</time>
      </trkpt>
      <trkpt lat="43.45743" lon="2.63713">
        <ele>652.39</ele>
        <time>2011-10-02T09:07:11Z</time>
      </trkpt>
      <trkpt lat="43.4574" lon="2.63709">
        <ele>652.39</ele>
        <time>2011-10-02T09:07:15Z</time>
      </trkpt>
      <trkpt lat="43.45739" lon="2.63706">
        <ele>652.39</ele>
        <time>2011-10-02T09:07:17Z</time>
      </trkpt>
      <trkpt lat="43.45726" lon="2.63691">
        <ele>656.72</ele>
        <time>2011-10-02T09:07:31Z</time>
      </trkpt>
      <trkpt lat="43.45712" lon="2.63677">
        <ele>657.68</ele>
        <time>2011-10-02T09:07:45Z</time>
      </trkpt>
      <trkpt lat="43.45704" lon="2.63668">
        <ele>656.24</ele>
        <time>2011-10-02T09:07:54Z</time>
      </trkpt>
      <trkpt lat="43.45692" lon="2.63656">
        <ele>652.87</ele>
        <time>2011-10-02T09:08:08Z</time>
      </trkpt>
      <trkpt lat="43.4568" lon="2.63641">
        <ele>653.35</ele>
        <time>2011-10-02T09:08:22Z</time>
      </trkpt>
      <trkpt lat="43.45671" lon="2.63624">
        <ele>654.31</ele>
        <time>2011-10-02T09:08:35Z</time>
      </trkpt>
      <trkpt lat="43.45668" lon="2.63616">
        <ele>654.31</ele>
        <time>2011-10-02T09:08:41Z</time>
      </trkpt>
      <trkpt lat="43.45666" lon="2.63606">
        <ele>655.28</ele>
        <time>2011-10-02T09:08:47Z</time>
      </trkpt>
      <trkpt lat="43.45664" lon="2.63594">
        <ele>656.72</ele>
        <time>2011-10-02T09:08:56Z</time>
      </trkpt>
      <trkpt lat="43.45662" lon="2.63591">
        <ele>657.2</ele>
        <time>2011-10-02T09:08:59Z</time>
      </trkpt>
      <trkpt lat="43.45656" lon="2.63578">
        <ele>657.68</ele>
        <time>2011-10-02T09:09:09Z</time>
      </trkpt>
      <trkpt lat="43.45645" lon="2.63559">
        <ele>660.08</ele>
        <time>2011-10-02T09:09:24Z</time>
      </trkpt>
      <trkpt lat="43.45644" lon="2.63557">
        <ele>660.08</ele>
        <time>2011-10-02T09:09:25Z</time>
      </trkpt>
      <trkpt lat="43.45641" lon="2.63553">
        <ele>660.56</ele>
        <time>2011-10-02T09:09:28Z</time>
      </trkpt>
      <trkpt lat="43.45632" lon="2.63536">
        <ele>661.04</ele>
        <time>2011-10-02T09:09:42Z</time>
      </trkpt>
      <trkpt lat="43.45629" lon="2.63529">
        <ele>661.04</ele>
        <time>2011-10-02T09:09:48Z</time>
      </trkpt>
      <trkpt lat="43.45625" lon="2.63524">
        <ele>660.56</ele>
        <time>2011-10-02T09:09:52Z</time>
      </trkpt>
      <trkpt lat="43.45624" lon="2.63521">
        <ele>660.56</ele>
        <time>2011-10-02T09:09:55Z</time>
      </trkpt>
      <trkpt lat="43.45619" lon="2.63506">
        <ele>660.56</ele>
        <time>2011-10-02T09:10:07Z</time>
      </trkpt>
      <trkpt lat="43.4561" lon="2.63483">
        <ele>662.49</ele>
        <time>2011-10-02T09:10:22Z</time>
      </trkpt>
      <trkpt lat="43.45598" lon="2.63462">
        <ele>670.18</ele>
        <time>2011-10-02T09:10:37Z</time>
      </trkpt>
      <trkpt lat="43.45585" lon="2.63449">
        <ele>675.94</ele>
        <time>2011-10-02T09:10:51Z</time>
      </trkpt>
      <trkpt lat="43.45572" lon="2.63439">
        <ele>677.87</ele>
        <time>2011-10-02T09:11:05Z</time>
      </trkpt>
      <trkpt lat="43.45558" lon="2.63428">
        <ele>678.35</ele>
        <time>2011-10-02T09:11:19Z</time>
      </trkpt>
      <trkpt lat="43.45545" lon="2.63413">
        <ele>678.83</ele>
        <time>2011-10-02T09:11:35Z</time>
      </trkpt>
      <trkpt lat="43.45544" lon="2.63411">
        <ele>679.31</ele>
        <time>2011-10-02T09:11:37Z</time>
      </trkpt>
      <trkpt lat="43.45532" lon="2.63395">
        <ele>680.75</ele>
        <time>2011-10-02T09:11:51Z</time>
      </trkpt>
      <trkpt lat="43.45518" lon="2.63383">
        <ele>681.23</ele>
        <time>2011-10-02T09:12:05Z</time>
      </trkpt>
      <trkpt lat="43.45501" lon="2.63377">
        <ele>679.31</ele>
        <time>2011-10-02T09:12:19Z</time>
      </trkpt>
      <trkpt lat="43.45487" lon="2.63364">
        <ele>678.83</ele>
        <time>2011-10-02T09:12:32Z</time>
      </trkpt>
      <trkpt lat="43.45476" lon="2.63353">
        <ele>678.35</ele>
        <time>2011-10-02T09:12:44Z</time>
      </trkpt>
      <trkpt lat="43.45465" lon="2.63342">
        <ele>676.42</ele>
        <time>2011-10-02T09:12:57Z</time>
      </trkpt>
      <trkpt lat="43.45454" lon="2.63332">
        <ele>676.91</ele>
        <time>2011-10-02T09:13:09Z</time>
      </trkpt>
      <trkpt lat="43.45439" lon="2.63326">
        <ele>677.87</ele>
        <time>2011-10-02T09:13:23Z</time>
      </trkpt>
      <trkpt lat="43.45428" lon="2.63318">
        <ele>678.35</ele>
        <time>2011-10-02T09:13:36Z</time>
      </trkpt>
      <trkpt lat="43.45416" lon="2.63305">
        <ele>678.83</ele>
        <time>2011-10-02T09:13:50Z</time>
      </trkpt>
      <trkpt lat="43.4541" lon="2.63295">
        <ele>679.79</ele>
        <time>2011-10-02T09:13:57Z</time>
      </trkpt>
      <trkpt lat="43.45406" lon="2.63289">
        <ele>680.27</ele>
        <time>2011-10-02T09:14:01Z</time>
      </trkpt>
      <trkpt lat="43.45396" lon="2.63269">
        <ele>685.08</ele>
        <time>2011-10-02T09:14:17Z</time>
      </trkpt>
      <trkpt lat="43.45384" lon="2.63252">
        <ele>688.92</ele>
        <time>2011-10-02T09:14:31Z</time>
      </trkpt>
      <trkpt lat="43.45379" lon="2.63241">
        <ele>690.84</ele>
        <time>2011-10-02T09:14:40Z</time>
      </trkpt>
      <trkpt lat="43.45373" lon="2.6323">
        <ele>692.29</ele>
        <time>2011-10-02T09:14:50Z</time>
      </trkpt>
      <trkpt lat="43.45363" lon="2.63214">
        <ele>690.36</ele>
        <time>2011-10-02T09:15:02Z</time>
      </trkpt>
      <trkpt lat="43.45362" lon="2.6321">
        <ele>689.4</ele>
        <time>2011-10-02T09:15:05Z</time>
      </trkpt>
      <trkpt lat="43.45361" lon="2.63196">
        <ele>687.48</ele>
        <time>2011-10-02T09:15:14Z</time>
      </trkpt>
      <trkpt lat="43.45359" lon="2.63179">
        <ele>689.4</ele>
        <time>2011-10-02T09:15:24Z</time>
      </trkpt>
      <trkpt lat="43.45354" lon="2.63164">
        <ele>692.77</ele>
        <time>2011-10-02T09:15:35Z</time>
      </trkpt>
      <trkpt lat="43.45352" lon="2.63159">
        <ele>695.17</ele>
        <time>2011-10-02T09:15:38Z</time>
      </trkpt>
      <trkpt lat="43.45342" lon="2.63151">
        <ele>699.98</ele>
        <time>2011-10-02T09:15:49Z</time>
      </trkpt>
      <trkpt lat="43.45327" lon="2.63148">
        <ele>702.38</ele>
        <time>2011-10-02T09:16:03Z</time>
      </trkpt>
      <trkpt lat="43.45314" lon="2.63144">
        <ele>701.9</ele>
        <time>2011-10-02T09:16:17Z</time>
      </trkpt>
      <trkpt lat="43.45311" lon="2.63142">
        <ele>701.42</ele>
        <time>2011-10-02T09:16:20Z</time>
      </trkpt>
      <trkpt lat="43.45299" lon="2.63125">
        <ele>698.05</ele>
        <time>2011-10-02T09:16:36Z</time>
      </trkpt>
      <trkpt lat="43.45291" lon="2.63113">
        <ele>699.98</ele>
        <time>2011-10-02T09:16:49Z</time>
      </trkpt>
      <trkpt lat="43.45281" lon="2.631">
        <ele>697.57</ele>
        <time>2011-10-02T09:17:04Z</time>
      </trkpt>
      <trkpt lat="43.45279" lon="2.63097">
        <ele>697.09</ele>
        <time>2011-10-02T09:17:07Z</time>
      </trkpt>
      <trkpt lat="43.45267" lon="2.63081">
        <ele>701.42</ele>
        <time>2011-10-02T09:17:22Z</time>
      </trkpt>
      <trkpt lat="43.45252" lon="2.63073">
        <ele>702.86</ele>
        <time>2011-10-02T09:17:36Z</time>
      </trkpt>
      <trkpt lat="43.45251" lon="2.63072">
        <ele>702.86</ele>
        <time>2011-10-02T09:17:39Z</time>
      </trkpt>
      <trkpt lat="43.45245" lon="2.63073">
        <ele>702.38</ele>
        <time>2011-10-02T09:17:43Z</time>
      </trkpt>
      <trkpt lat="43.45234" lon="2.63054">
        <ele>704.78</ele>
        <time>2011-10-02T09:17:57Z</time>
      </trkpt>
      <trkpt lat="43.45233" lon="2.63053">
        <ele>704.78</ele>
        <time>2011-10-02T09:17:58Z</time>
      </trkpt>
      <trkpt lat="43.45229" lon="2.63043">
        <ele>705.75</ele>
        <time>2011-10-02T09:18:05Z</time>
      </trkpt>
      <trkpt lat="43.45229" lon="2.6302">
        <ele>706.71</ele>
        <time>2011-10-02T09:18:19Z</time>
      </trkpt>
      <trkpt lat="43.45229" lon="2.63007">
        <ele>708.15</ele>
        <time>2011-10-02T09:18:27Z</time>
      </trkpt>
      <trkpt lat="43.45229" lon="2.62982">
        <ele>712.47</ele>
        <time>2011-10-02T09:18:43Z</time>
      </trkpt>
      <trkpt lat="43.45232" lon="2.62959">
        <ele>712.95</ele>
        <time>2011-10-02T09:18:57Z</time>
      </trkpt>
      <trkpt lat="43.45232" lon="2.62955">
        <ele>713.44</ele>
        <time>2011-10-02T09:19:00Z</time>
      </trkpt>
      <trkpt lat="43.45227" lon="2.6293">
        <ele>715.36</ele>
        <time>2011-10-02T09:19:16Z</time>
      </trkpt>
      <trkpt lat="43.4522" lon="2.62911">
        <ele>717.28</ele>
        <time>2011-10-02T09:19:29Z</time>
      </trkpt>
      <trkpt lat="43.45219" lon="2.6291">
        <ele>717.76</ele>
        <time>2011-10-02T09:19:31Z</time>
      </trkpt>
      <trkpt lat="43.45213" lon="2.62909">
        <ele>718.24</ele>
        <time>2011-10-02T09:19:36Z</time>
      </trkpt>
      <trkpt lat="43.45202" lon="2.62913">
        <ele>719.2</ele>
        <time>2011-10-02T09:19:47Z</time>
      </trkpt>
      <trkpt lat="43.45181" lon="2.62922">
        <ele>722.57</ele>
        <time>2011-10-02T09:20:03Z</time>
      </trkpt>
      <trkpt lat="43.4518" lon="2.62923">
        <ele>723.05</ele>
        <time>2011-10-02T09:20:05Z</time>
      </trkpt>
      <trkpt lat="43.45175" lon="2.62921">
        <ele>724.49</ele>
        <time>2011-10-02T09:20:09Z</time>
      </trkpt>
      <trkpt lat="43.45172" lon="2.6292">
        <ele>725.45</ele>
        <time>2011-10-02T09:20:11Z</time>
      </trkpt>
      <trkpt lat="43.4517" lon="2.62918">
        <ele>726.41</ele>
        <time>2011-10-02T09:20:13Z</time>
      </trkpt>
      <trkpt lat="43.45166" lon="2.62913">
        <ele>726.89</ele>
        <time>2011-10-02T09:20:18Z</time>
      </trkpt>
      <trkpt lat="43.45164" lon="2.6291">
        <ele>726.41</ele>
        <time>2011-10-02T09:20:21Z</time>
      </trkpt>
      <trkpt lat="43.45164" lon="2.62902">
        <ele>726.41</ele>
        <time>2011-10-02T09:20:26Z</time>
      </trkpt>
      <trkpt lat="43.4516" lon="2.62892">
        <ele>726.89</ele>
        <time>2011-10-02T09:20:33Z</time>
      </trkpt>
      <trkpt lat="43.45157" lon="2.62868">
        <ele>727.86</ele>
        <time>2011-10-02T09:20:48Z</time>
      </trkpt>
      <trkpt lat="43.45156" lon="2.62866">
        <ele>727.86</ele>
        <time>2011-10-02T09:20:50Z</time>
      </trkpt>
      <trkpt lat="43.45148" lon="2.62845">
        <ele>729.3</ele>
        <time>2011-10-02T09:21:05Z</time>
      </trkpt>
      <trkpt lat="43.45148" lon="2.6284">
        <ele>728.82</ele>
        <time>2011-10-02T09:21:08Z</time>
      </trkpt>
      <trkpt lat="43.45143" lon="2.62815">
        <ele>731.7</ele>
        <time>2011-10-02T09:21:24Z</time>
      </trkpt>
      <trkpt lat="43.45137" lon="2.62798">
        <ele>733.62</ele>
        <time>2011-10-02T09:21:38Z</time>
      </trkpt>
      <trkpt lat="43.45127" lon="2.62784">
        <ele>735.07</ele>
        <time>2011-10-02T09:21:50Z</time>
      </trkpt>
      <trkpt lat="43.45112" lon="2.62776">
        <ele>737.47</ele>
        <time>2011-10-02T09:22:04Z</time>
      </trkpt>
      <trkpt lat="43.45097" lon="2.6277">
        <ele>740.35</ele>
        <time>2011-10-02T09:22:17Z</time>
      </trkpt>
      <trkpt lat="43.45084" lon="2.62766">
        <ele>743.24</ele>
        <time>2011-10-02T09:22:28Z</time>
      </trkpt>
      <trkpt lat="43.45065" lon="2.62751">
        <ele>750.93</ele>
        <time>2011-10-02T09:22:45Z</time>
      </trkpt>
      <trkpt lat="43.45047" lon="2.62747">
        <ele>752.37</ele>
        <time>2011-10-02T09:23:01Z</time>
      </trkpt>
      <trkpt lat="43.45043" lon="2.62748">
        <ele>752.37</ele>
        <time>2011-10-02T09:23:06Z</time>
      </trkpt>
      <trkpt lat="43.45043" lon="2.62755">
        <ele>751.41</ele>
        <time>2011-10-02T09:23:51Z</time>
      </trkpt>
      <trkpt lat="43.45044" lon="2.62756">
        <ele>751.89</ele>
        <time>2011-10-02T09:26:18Z</time>
      </trkpt>
      <trkpt lat="43.45038" lon="2.62754">
        <ele>751.41</ele>
        <time>2011-10-02T09:26:24Z</time>
      </trkpt>
      <trkpt lat="43.45018" lon="2.62747">
        <ele>748.52</ele>
        <time>2011-10-02T09:26:40Z</time>
      </trkpt>
      <trkpt lat="43.45006" lon="2.62743">
        <ele>747.08</ele>
        <time>2011-10-02T09:26:53Z</time>
      </trkpt>
      <trkpt lat="43.44995" lon="2.62734">
        <ele>747.08</ele>
        <time>2011-10-02T09:27:04Z</time>
      </trkpt>
      <trkpt lat="43.44991" lon="2.62732">
        <ele>745.64</ele>
        <time>2011-10-02T09:27:09Z</time>
      </trkpt>
      <trkpt lat="43.44989" lon="2.62731">
        <ele>744.68</ele>
        <time>2011-10-02T09:27:11Z</time>
      </trkpt>
      <trkpt lat="43.4498" lon="2.62727">
        <ele>742.28</ele>
        <time>2011-10-02T09:27:21Z</time>
      </trkpt>
      <trkpt lat="43.44976" lon="2.62724">
        <ele>741.31</ele>
        <time>2011-10-02T09:27:26Z</time>
      </trkpt>
      <trkpt lat="43.44971" lon="2.62717">
        <ele>740.83</ele>
        <time>2011-10-02T09:27:31Z</time>
      </trkpt>
      <trkpt lat="43.44969" lon="2.62712">
        <ele>741.79</ele>
        <time>2011-10-02T09:27:35Z</time>
      </trkpt>
      <trkpt lat="43.44955" lon="2.62697">
        <ele>745.64</ele>
        <time>2011-10-02T09:27:46Z</time>
      </trkpt>
      <trkpt lat="43.44942" lon="2.62683">
        <ele>748.04</ele>
        <time>2011-10-02T09:28:02Z</time>
      </trkpt>
      <trkpt lat="43.4493" lon="2.62669">
        <ele>744.2</ele>
        <time>2011-10-02T09:28:16Z</time>
      </trkpt>
      <trkpt lat="43.44912" lon="2.62651">
        <ele>744.68</ele>
        <time>2011-10-02T09:28:29Z</time>
      </trkpt>
      <trkpt lat="43.44905" lon="2.62647">
        <ele>745.64</ele>
        <time>2011-10-02T09:28:35Z</time>
      </trkpt>
      <trkpt lat="43.44886" lon="2.62638">
        <ele>743.72</ele>
        <time>2011-10-02T09:28:52Z</time>
      </trkpt>
      <trkpt lat="43.44873" lon="2.62629">
        <ele>743.72</ele>
        <time>2011-10-02T09:29:03Z</time>
      </trkpt>
      <trkpt lat="43.44862" lon="2.62627">
        <ele>744.2</ele>
        <time>2011-10-02T09:29:10Z</time>
      </trkpt>
      <trkpt lat="43.44856" lon="2.62623">
        <ele>743.72</ele>
        <time>2011-10-02T09:29:16Z</time>
      </trkpt>
      <trkpt lat="43.44833" lon="2.62616">
        <ele>748.04</ele>
        <time>2011-10-02T09:29:33Z</time>
      </trkpt>
      <trkpt lat="43.44828" lon="2.62615">
        <ele>747.56</ele>
        <time>2011-10-02T09:29:38Z</time>
      </trkpt>
      <trkpt lat="43.44823" lon="2.62618">
        <ele>746.6</ele>
        <time>2011-10-02T09:29:43Z</time>
      </trkpt>
      <trkpt lat="43.44802" lon="2.62617">
        <ele>745.64</ele>
        <time>2011-10-02T09:29:58Z</time>
      </trkpt>
      <trkpt lat="43.44786" lon="2.6261">
        <ele>746.12</ele>
        <time>2011-10-02T09:30:14Z</time>
      </trkpt>
      <trkpt lat="43.44776" lon="2.62611">
        <ele>741.79</ele>
        <time>2011-10-02T09:30:31Z</time>
      </trkpt>
      <trkpt lat="43.44774" lon="2.62611">
        <ele>740.83</ele>
        <time>2011-10-02T09:30:34Z</time>
      </trkpt>
      <trkpt lat="43.44773" lon="2.62614">
        <ele>739.87</ele>
        <time>2011-10-02T09:31:07Z</time>
      </trkpt>
      <trkpt lat="43.44767" lon="2.62609">
        <ele>738.91</ele>
        <time>2011-10-02T09:31:57Z</time>
      </trkpt>
      <trkpt lat="43.44766" lon="2.62609">
        <ele>739.87</ele>
        <time>2011-10-02T09:32:15Z</time>
      </trkpt>
      <trkpt lat="43.44766" lon="2.62609">
        <ele>739.87</ele>
        <time>2011-10-02T09:32:37Z</time>
      </trkpt>
      <trkpt lat="43.44766" lon="2.62609">
        <ele>739.39</ele>
        <time>2011-10-02T09:33:10Z</time>
      </trkpt>
      <trkpt lat="43.44771" lon="2.62606">
        <ele>739.39</ele>
        <time>2011-10-02T09:33:42Z</time>
      </trkpt>
      <trkpt lat="43.44772" lon="2.62598">
        <ele>737.95</ele>
        <time>2011-10-02T09:33:55Z</time>
      </trkpt>
      <trkpt lat="43.44768" lon="2.6259">
        <ele>737.95</ele>
        <time>2011-10-02T09:33:59Z</time>
      </trkpt>
      <trkpt lat="43.44767" lon="2.62589">
        <ele>737.95</ele>
        <time>2011-10-02T09:34:02Z</time>
      </trkpt>
      <trkpt lat="43.44749" lon="2.62568">
        <ele>737.47</ele>
        <time>2011-10-02T09:34:18Z</time>
      </trkpt>
      <trkpt lat="43.44737" lon="2.62557">
        <ele>743.24</ele>
        <time>2011-10-02T09:34:32Z</time>
      </trkpt>
      <trkpt lat="43.44721" lon="2.62547">
        <ele>743.72</ele>
        <time>2011-10-02T09:34:46Z</time>
      </trkpt>
      <trkpt lat="43.44707" lon="2.62537">
        <ele>745.16</ele>
        <time>2011-10-02T09:35:00Z</time>
      </trkpt>
      <trkpt lat="43.44698" lon="2.62534">
        <ele>744.68</ele>
        <time>2011-10-02T09:35:14Z</time>
      </trkpt>
      <trkpt lat="43.44683" lon="2.62534">
        <ele>736.99</ele>
        <time>2011-10-02T09:35:29Z</time>
      </trkpt>
      <trkpt lat="43.44671" lon="2.62524">
        <ele>730.74</ele>
        <time>2011-10-02T09:35:43Z</time>
      </trkpt>
      <trkpt lat="43.44659" lon="2.62512">
        <ele>722.57</ele>
        <time>2011-10-02T09:35:58Z</time>
      </trkpt>
      <trkpt lat="43.44649" lon="2.625">
        <ele>717.28</ele>
        <time>2011-10-02T09:36:12Z</time>
      </trkpt>
      <trkpt lat="43.44648" lon="2.62499">
        <ele>716.8</ele>
        <time>2011-10-02T09:36:13Z</time>
      </trkpt>
      <trkpt lat="43.44644" lon="2.62494">
        <ele>715.84</ele>
        <time>2011-10-02T09:36:27Z</time>
      </trkpt>
      <trkpt lat="43.44631" lon="2.62474">
        <ele>713.92</ele>
        <time>2011-10-02T09:36:42Z</time>
      </trkpt>
      <trkpt lat="43.44626" lon="2.62449">
        <ele>715.36</ele>
        <time>2011-10-02T09:37:00Z</time>
      </trkpt>
      <trkpt lat="43.44622" lon="2.62434">
        <ele>717.28</ele>
        <time>2011-10-02T09:37:14Z</time>
      </trkpt>
      <trkpt lat="43.44622" lon="2.62431">
        <ele>717.76</ele>
        <time>2011-10-02T09:37:27Z</time>
      </trkpt>
      <trkpt lat="43.44616" lon="2.62425">
        <ele>717.28</ele>
        <time>2011-10-02T09:37:38Z</time>
      </trkpt>
      <trkpt lat="43.446" lon="2.62402">
        <ele>720.16</ele>
        <time>2011-10-02T09:37:54Z</time>
      </trkpt>
      <trkpt lat="43.44596" lon="2.62394">
        <ele>722.09</ele>
        <time>2011-10-02T09:38:00Z</time>
      </trkpt>
      <trkpt lat="43.44586" lon="2.62386">
        <ele>722.57</ele>
        <time>2011-10-02T09:38:16Z</time>
      </trkpt>
      <trkpt lat="43.44577" lon="2.62366">
        <ele>736.03</ele>
        <time>2011-10-02T09:38:30Z</time>
      </trkpt>
      <trkpt lat="43.44577" lon="2.62362">
        <ele>739.87</ele>
        <time>2011-10-02T09:38:31Z</time>
      </trkpt>
      <trkpt lat="43.44565" lon="2.62351">
        <ele>756.69</ele>
        <time>2011-10-02T09:38:44Z</time>
      </trkpt>
      <trkpt lat="43.44554" lon="2.62339">
        <ele>766.31</ele>
        <time>2011-10-02T09:38:59Z</time>
      </trkpt>
      <trkpt lat="43.44547" lon="2.62328">
        <ele>764.39</ele>
        <time>2011-10-02T09:39:14Z</time>
      </trkpt>
      <trkpt lat="43.44544" lon="2.62323">
        <ele>764.39</ele>
        <time>2011-10-02T09:39:20Z</time>
      </trkpt>
      <trkpt lat="43.44542" lon="2.62319">
        <ele>764.39</ele>
        <time>2011-10-02T09:39:24Z</time>
      </trkpt>
      <trkpt lat="43.44535" lon="2.62312">
        <ele>768.23</ele>
        <time>2011-10-02T09:39:34Z</time>
      </trkpt>
      <trkpt lat="43.44525" lon="2.623">
        <ele>773.04</ele>
        <time>2011-10-02T09:39:48Z</time>
      </trkpt>
      <trkpt lat="43.44524" lon="2.62301">
        <ele>772.56</ele>
        <time>2011-10-02T09:40:06Z</time>
      </trkpt>
      <trkpt lat="43.44524" lon="2.62299">
        <ele>773.52</ele>
        <time>2011-10-02T09:40:40Z</time>
      </trkpt>
      <trkpt lat="43.44524" lon="2.62299">
        <ele>773.52</ele>
        <time>2011-10-02T09:41:03Z</time>
      </trkpt>
      <trkpt lat="43.44516" lon="2.62296">
        <ele>774</ele>
        <time>2011-10-02T09:42:36Z</time>
      </trkpt>
      <trkpt lat="43.44507" lon="2.62294">
        <ele>774.96</ele>
        <time>2011-10-02T09:42:44Z</time>
      </trkpt>
      <trkpt lat="43.44486" lon="2.62288">
        <ele>774</ele>
        <time>2011-10-02T09:43:01Z</time>
      </trkpt>
      <trkpt lat="43.44476" lon="2.62282">
        <ele>774.48</ele>
        <time>2011-10-02T09:43:11Z</time>
      </trkpt>
      <trkpt lat="43.44459" lon="2.62271">
        <ele>772.56</ele>
        <time>2011-10-02T09:43:27Z</time>
      </trkpt>
      <trkpt lat="43.44446" lon="2.62262">
        <ele>774</ele>
        <time>2011-10-02T09:43:40Z</time>
      </trkpt>
      <trkpt lat="43.4443" lon="2.62257">
        <ele>772.56</ele>
        <time>2011-10-02T09:43:55Z</time>
      </trkpt>
      <trkpt lat="43.44416" lon="2.62255">
        <ele>773.04</ele>
        <time>2011-10-02T09:44:08Z</time>
      </trkpt>
      <trkpt lat="43.44398" lon="2.62254">
        <ele>773.52</ele>
        <time>2011-10-02T09:44:24Z</time>
      </trkpt>
      <trkpt lat="43.44382" lon="2.62258">
        <ele>773.52</ele>
        <time>2011-10-02T09:44:38Z</time>
      </trkpt>
      <trkpt lat="43.44367" lon="2.62263">
        <ele>776.88</ele>
        <time>2011-10-02T09:44:51Z</time>
      </trkpt>
      <trkpt lat="43.44353" lon="2.6226">
        <ele>775.92</ele>
        <time>2011-10-02T09:45:06Z</time>
      </trkpt>
      <trkpt lat="43.44341" lon="2.6225">
        <ele>775.92</ele>
        <time>2011-10-02T09:45:18Z</time>
      </trkpt>
      <trkpt lat="43.4434" lon="2.62247">
        <ele>776.4</ele>
        <time>2011-10-02T09:45:20Z</time>
      </trkpt>
      <trkpt lat="43.44325" lon="2.62229">
        <ele>778.81</ele>
        <time>2011-10-02T09:45:35Z</time>
      </trkpt>
      <trkpt lat="43.4432" lon="2.62226">
        <ele>778.32</ele>
        <time>2011-10-02T09:45:40Z</time>
      </trkpt>
      <trkpt lat="43.44311" lon="2.62218">
        <ele>775.44</ele>
        <time>2011-10-02T09:45:49Z</time>
      </trkpt>
      <trkpt lat="43.4431" lon="2.62214">
        <ele>774.48</ele>
        <time>2011-10-02T09:45:52Z</time>
      </trkpt>
      <trkpt lat="43.44302" lon="2.62191">
        <ele>774</ele>
        <time>2011-10-02T09:46:07Z</time>
      </trkpt>
      <trkpt lat="43.44297" lon="2.62166">
        <ele>775.92</ele>
        <time>2011-10-02T09:46:21Z</time>
      </trkpt>
      <trkpt lat="43.44292" lon="2.62142">
        <ele>779.29</ele>
        <time>2011-10-02T09:46:36Z</time>
      </trkpt>
      <trkpt lat="43.44279" lon="2.62125">
        <ele>782.65</ele>
        <time>2011-10-02T09:46:51Z</time>
      </trkpt>
      <trkpt lat="43.44274" lon="2.62099">
        <ele>786.5</ele>
        <time>2011-10-02T09:47:06Z</time>
      </trkpt>
      <trkpt lat="43.4427" lon="2.62091">
        <ele>788.42</ele>
        <time>2011-10-02T09:47:12Z</time>
      </trkpt>
      <trkpt lat="43.44257" lon="2.62072">
        <ele>791.78</ele>
        <time>2011-10-02T09:47:27Z</time>
      </trkpt>
      <trkpt lat="43.44251" lon="2.62056">
        <ele>789.86</ele>
        <time>2011-10-02T09:47:38Z</time>
      </trkpt>
      <trkpt lat="43.44248" lon="2.62052">
        <ele>789.38</ele>
        <time>2011-10-02T09:47:41Z</time>
      </trkpt>
      <trkpt lat="43.44242" lon="2.62031">
        <ele>787.46</ele>
        <time>2011-10-02T09:47:55Z</time>
      </trkpt>
      <trkpt lat="43.44236" lon="2.62009">
        <ele>787.46</ele>
        <time>2011-10-02T09:48:09Z</time>
      </trkpt>
      <trkpt lat="43.44224" lon="2.61993">
        <ele>789.38</ele>
        <time>2011-10-02T09:48:23Z</time>
      </trkpt>
      <trkpt lat="43.44218" lon="2.61991">
        <ele>790.34</ele>
        <time>2011-10-02T09:48:29Z</time>
      </trkpt>
      <trkpt lat="43.44197" lon="2.61991">
        <ele>790.34</ele>
        <time>2011-10-02T09:48:44Z</time>
      </trkpt>
      <trkpt lat="43.44187" lon="2.61985">
        <ele>793.22</ele>
        <time>2011-10-02T09:48:52Z</time>
      </trkpt>
      <trkpt lat="43.44177" lon="2.61972">
        <ele>798.03</ele>
        <time>2011-10-02T09:49:02Z</time>
      </trkpt>
      <trkpt lat="43.4417" lon="2.61965">
        <ele>798.99</ele>
        <time>2011-10-02T09:49:09Z</time>
      </trkpt>
      <trkpt lat="43.44161" lon="2.61954">
        <ele>797.55</ele>
        <time>2011-10-02T09:49:23Z</time>
      </trkpt>
      <trkpt lat="43.44157" lon="2.61949">
        <ele>798.03</ele>
        <time>2011-10-02T09:49:28Z</time>
      </trkpt>
      <trkpt lat="43.44155" lon="2.61945">
        <ele>797.07</ele>
        <time>2011-10-02T09:49:32Z</time>
      </trkpt>
      <trkpt lat="43.44152" lon="2.61945">
        <ele>797.55</ele>
        <time>2011-10-02T09:49:36Z</time>
      </trkpt>
      <trkpt lat="43.4416" lon="2.61966">
        <ele>792.26</ele>
        <time>2011-10-02T09:49:51Z</time>
      </trkpt>
      <trkpt lat="43.44163" lon="2.61977">
        <ele>789.38</ele>
        <time>2011-10-02T09:50:14Z</time>
      </trkpt>
      <trkpt lat="43.44163" lon="2.61994">
        <ele>786.02</ele>
        <time>2011-10-02T09:50:28Z</time>
      </trkpt>
      <trkpt lat="43.44162" lon="2.62023">
        <ele>786.02</ele>
        <time>2011-10-02T09:50:44Z</time>
      </trkpt>
      <trkpt lat="43.44159" lon="2.62055">
        <ele>785.53</ele>
        <time>2011-10-02T09:51:02Z</time>
      </trkpt>
      <trkpt lat="43.44158" lon="2.62079">
        <ele>786.5</ele>
        <time>2011-10-02T09:51:18Z</time>
      </trkpt>
      <trkpt lat="43.44155" lon="2.62108">
        <ele>790.34</ele>
        <time>2011-10-02T09:51:34Z</time>
      </trkpt>
      <trkpt lat="43.44151" lon="2.62118">
        <ele>791.78</ele>
        <time>2011-10-02T09:51:43Z</time>
      </trkpt>
      <trkpt lat="43.44148" lon="2.62136">
        <ele>792.26</ele>
        <time>2011-10-02T09:51:58Z</time>
      </trkpt>
      <trkpt lat="43.44147" lon="2.62145">
        <ele>793.71</ele>
        <time>2011-10-02T09:52:29Z</time>
      </trkpt>
      <trkpt lat="43.44147" lon="2.62145">
        <ele>794.19</ele>
        <time>2011-10-02T09:53:10Z</time>
      </trkpt>
      <trkpt lat="43.44145" lon="2.62146">
        <ele>794.19</ele>
        <time>2011-10-02T09:53:48Z</time>
      </trkpt>
      <trkpt lat="43.44148" lon="2.62149">
        <ele>793.71</ele>
        <time>2011-10-02T09:54:43Z</time>
      </trkpt>
      <trkpt lat="43.44153" lon="2.62176">
        <ele>792.26</ele>
        <time>2011-10-02T09:54:58Z</time>
      </trkpt>
      <trkpt lat="43.44157" lon="2.62196">
        <ele>793.71</ele>
        <time>2011-10-02T09:55:12Z</time>
      </trkpt>
      <trkpt lat="43.44155" lon="2.62218">
        <ele>796.11</ele>
        <time>2011-10-02T09:55:26Z</time>
      </trkpt>
      <trkpt lat="43.44155" lon="2.62239">
        <ele>798.99</ele>
        <time>2011-10-02T09:55:41Z</time>
      </trkpt>
      <trkpt lat="43.44155" lon="2.62245">
        <ele>798.99</ele>
        <time>2011-10-02T09:55:46Z</time>
      </trkpt>
      <trkpt lat="43.44159" lon="2.62258">
        <ele>803.32</ele>
        <time>2011-10-02T09:55:57Z</time>
      </trkpt>
      <trkpt lat="43.44162" lon="2.62278">
        <ele>806.68</ele>
        <time>2011-10-02T09:56:13Z</time>
      </trkpt>
      <trkpt lat="43.44166" lon="2.62296">
        <ele>808.13</ele>
        <time>2011-10-02T09:56:27Z</time>
      </trkpt>
      <trkpt lat="43.4417" lon="2.62311">
        <ele>810.05</ele>
        <time>2011-10-02T09:56:39Z</time>
      </trkpt>
      <trkpt lat="43.44172" lon="2.62331">
        <ele>813.89</ele>
        <time>2011-10-02T09:56:53Z</time>
      </trkpt>
      <trkpt lat="43.44172" lon="2.62337">
        <ele>815.34</ele>
        <time>2011-10-02T09:56:58Z</time>
      </trkpt>
      <trkpt lat="43.44173" lon="2.6234">
        <ele>815.34</ele>
        <time>2011-10-02T09:57:00Z</time>
      </trkpt>
      <trkpt lat="43.44175" lon="2.62362">
        <ele>819.18</ele>
        <time>2011-10-02T09:57:16Z</time>
      </trkpt>
      <trkpt lat="43.44178" lon="2.62382">
        <ele>821.58</ele>
        <time>2011-10-02T09:57:32Z</time>
      </trkpt>
      <trkpt lat="43.44177" lon="2.62391">
        <ele>823.03</ele>
        <time>2011-10-02T09:57:41Z</time>
      </trkpt>
      <trkpt lat="43.44171" lon="2.62411">
        <ele>824.47</ele>
        <time>2011-10-02T09:57:58Z</time>
      </trkpt>
      <trkpt lat="43.44164" lon="2.62428">
        <ele>824.47</ele>
        <time>2011-10-02T09:58:13Z</time>
      </trkpt>
      <trkpt lat="43.4417" lon="2.62429">
        <ele>823.51</ele>
        <time>2011-10-02T09:58:39Z</time>
      </trkpt>
      <trkpt lat="43.44175" lon="2.62432">
        <ele>823.51</ele>
        <time>2011-10-02T09:58:57Z</time>
      </trkpt>
      <trkpt lat="43.44179" lon="2.62433">
        <ele>823.51</ele>
        <time>2011-10-02T09:59:18Z</time>
      </trkpt>
      <trkpt lat="43.44182" lon="2.62436">
        <ele>823.51</ele>
        <time>2011-10-02T09:59:49Z</time>
      </trkpt>
      <trkpt lat="43.44183" lon="2.62437">
        <ele>823.51</ele>
        <time>2011-10-02T09:59:51Z</time>
      </trkpt>
      <trkpt lat="43.44197" lon="2.62451">
        <ele>827.35</ele>
        <time>2011-10-02T10:00:07Z</time>
      </trkpt>
      <trkpt lat="43.44211" lon="2.62462">
        <ele>828.79</ele>
        <time>2011-10-02T10:00:22Z</time>
      </trkpt>
      <trkpt lat="43.44222" lon="2.62476">
        <ele>829.27</ele>
        <time>2011-10-02T10:00:37Z</time>
      </trkpt>
      <trkpt lat="43.44227" lon="2.62481">
        <ele>829.76</ele>
        <time>2011-10-02T10:00:43Z</time>
      </trkpt>
      <trkpt lat="43.44239" lon="2.62495">
        <ele>828.31</ele>
        <time>2011-10-02T10:00:59Z</time>
      </trkpt>
      <trkpt lat="43.4425" lon="2.62513">
        <ele>829.27</ele>
        <time>2011-10-02T10:01:14Z</time>
      </trkpt>
      <trkpt lat="43.4426" lon="2.62527">
        <ele>827.83</ele>
        <time>2011-10-02T10:01:28Z</time>
      </trkpt>
      <trkpt lat="43.4427" lon="2.62545">
        <ele>825.91</ele>
        <time>2011-10-02T10:01:43Z</time>
      </trkpt>
      <trkpt lat="43.44281" lon="2.62557">
        <ele>824.95</ele>
        <time>2011-10-02T10:01:57Z</time>
      </trkpt>
      <trkpt lat="43.44286" lon="2.62563">
        <ele>823.99</ele>
        <time>2011-10-02T10:02:09Z</time>
      </trkpt>
      <trkpt lat="43.44286" lon="2.62566">
        <ele>823.51</ele>
        <time>2011-10-02T10:02:23Z</time>
      </trkpt>
      <trkpt lat="43.44287" lon="2.62552">
        <ele>823.03</ele>
        <time>2011-10-02T10:03:30Z</time>
      </trkpt>
      <trkpt lat="43.44286" lon="2.62549">
        <ele>823.03</ele>
        <time>2011-10-02T10:03:32Z</time>
      </trkpt>
      <trkpt lat="43.4428" lon="2.62528">
        <ele>824.95</ele>
        <time>2011-10-02T10:03:48Z</time>
      </trkpt>
      <trkpt lat="43.44275" lon="2.62518">
        <ele>825.43</ele>
        <time>2011-10-02T10:03:57Z</time>
      </trkpt>
      <trkpt lat="43.44268" lon="2.62511">
        <ele>825.43</ele>
        <time>2011-10-02T10:04:11Z</time>
      </trkpt>
      <trkpt lat="43.44264" lon="2.62505">
        <ele>825.91</ele>
        <time>2011-10-02T10:04:25Z</time>
      </trkpt>
      <trkpt lat="43.44254" lon="2.62492">
        <ele>825.43</ele>
        <time>2011-10-02T10:04:38Z</time>
      </trkpt>
      <trkpt lat="43.44242" lon="2.62484">
        <ele>826.39</ele>
        <time>2011-10-02T10:04:51Z</time>
      </trkpt>
      <trkpt lat="43.44238" lon="2.62484">
        <ele>826.87</ele>
        <time>2011-10-02T10:04:59Z</time>
      </trkpt>
      <trkpt lat="43.44236" lon="2.62504">
        <ele>827.83</ele>
        <time>2011-10-02T10:05:14Z</time>
      </trkpt>
      <trkpt lat="43.44234" lon="2.62514">
        <ele>829.76</ele>
        <time>2011-10-02T10:05:28Z</time>
      </trkpt>
      <trkpt lat="43.44236" lon="2.62514">
        <ele>830.24</ele>
        <time>2011-10-02T10:05:35Z</time>
      </trkpt>
      <trkpt lat="43.44239" lon="2.62508">
        <ele>829.76</ele>
        <time>2011-10-02T10:05:39Z</time>
      </trkpt>
      <trkpt lat="43.44237" lon="2.62503">
        <ele>829.27</ele>
        <time>2011-10-02T10:05:43Z</time>
      </trkpt>
      <trkpt lat="43.44228" lon="2.62488">
        <ele>828.79</ele>
        <time>2011-10-02T10:05:56Z</time>
      </trkpt>
      <trkpt lat="43.44217" lon="2.62476">
        <ele>828.31</ele>
        <time>2011-10-02T10:06:08Z</time>
      </trkpt>
      <trkpt lat="43.44209" lon="2.62462">
        <ele>827.35</ele>
        <time>2011-10-02T10:06:19Z</time>
      </trkpt>
      <trkpt lat="43.44206" lon="2.62458">
        <ele>826.39</ele>
        <time>2011-10-02T10:06:23Z</time>
      </trkpt>
      <trkpt lat="43.44202" lon="2.62449">
        <ele>825.43</ele>
        <time>2011-10-02T10:06:29Z</time>
      </trkpt>
      <trkpt lat="43.44194" lon="2.6243">
        <ele>823.03</ele>
        <time>2011-10-02T10:06:43Z</time>
      </trkpt>
      <trkpt lat="43.44188" lon="2.62411">
        <ele>822.06</ele>
        <time>2011-10-02T10:06:58Z</time>
      </trkpt>
      <trkpt lat="43.44188" lon="2.62403">
        <ele>821.1</ele>
        <time>2011-10-02T10:07:05Z</time>
      </trkpt>
      <trkpt lat="43.44188" lon="2.62397">
        <ele>821.1</ele>
        <time>2011-10-02T10:07:09Z</time>
      </trkpt>
      <trkpt lat="43.44184" lon="2.62362">
        <ele>817.74</ele>
        <time>2011-10-02T10:07:28Z</time>
      </trkpt>
      <trkpt lat="43.44179" lon="2.62342">
        <ele>815.34</ele>
        <time>2011-10-02T10:07:43Z</time>
      </trkpt>
      <trkpt lat="43.44176" lon="2.62321">
        <ele>811.97</ele>
        <time>2011-10-02T10:07:56Z</time>
      </trkpt>
      <trkpt lat="43.44174" lon="2.62296">
        <ele>806.2</ele>
        <time>2011-10-02T10:08:12Z</time>
      </trkpt>
      <trkpt lat="43.44168" lon="2.62275">
        <ele>799.95</ele>
        <time>2011-10-02T10:08:27Z</time>
      </trkpt>
      <trkpt lat="43.44163" lon="2.62251">
        <ele>798.99</ele>
        <time>2011-10-02T10:08:39Z</time>
      </trkpt>
      <trkpt lat="43.44164" lon="2.62238">
        <ele>798.99</ele>
        <time>2011-10-02T10:08:49Z</time>
      </trkpt>
      <trkpt lat="43.44166" lon="2.62215">
        <ele>797.55</ele>
        <time>2011-10-02T10:09:05Z</time>
      </trkpt>
      <trkpt lat="43.44168" lon="2.62197">
        <ele>796.11</ele>
        <time>2011-10-02T10:09:17Z</time>
      </trkpt>
      <trkpt lat="43.44169" lon="2.62188">
        <ele>795.63</ele>
        <time>2011-10-02T10:09:23Z</time>
      </trkpt>
      <trkpt lat="43.44167" lon="2.6218">
        <ele>794.67</ele>
        <time>2011-10-02T10:09:28Z</time>
      </trkpt>
      <trkpt lat="43.44171" lon="2.62172">
        <ele>794.19</ele>
        <time>2011-10-02T10:09:34Z</time>
      </trkpt>
      <trkpt lat="43.4417" lon="2.62165">
        <ele>794.19</ele>
        <time>2011-10-02T10:09:39Z</time>
      </trkpt>
      <trkpt lat="43.44173" lon="2.62158">
        <ele>792.26</ele>
        <time>2011-10-02T10:09:54Z</time>
      </trkpt>
      <trkpt lat="43.44174" lon="2.62166">
        <ele>792.26</ele>
        <time>2011-10-02T10:10:11Z</time>
      </trkpt>
      <trkpt lat="43.44177" lon="2.6217">
        <ele>791.78</ele>
        <time>2011-10-02T10:10:17Z</time>
      </trkpt>
      <trkpt lat="43.44179" lon="2.62172">
        <ele>791.3</ele>
        <time>2011-10-02T10:10:19Z</time>
      </trkpt>
      <trkpt lat="43.44187" lon="2.62178">
        <ele>788.9</ele>
        <time>2011-10-02T10:10:28Z</time>
      </trkpt>
      <trkpt lat="43.44191" lon="2.62181">
        <ele>788.42</ele>
        <time>2011-10-02T10:10:35Z</time>
      </trkpt>
      <trkpt lat="43.44207" lon="2.62192">
        <ele>786.98</ele>
        <time>2011-10-02T10:10:51Z</time>
      </trkpt>
      <trkpt lat="43.44226" lon="2.62207">
        <ele>789.86</ele>
        <time>2011-10-02T10:11:07Z</time>
      </trkpt>
      <trkpt lat="43.4424" lon="2.62225">
        <ele>790.34</ele>
        <time>2011-10-02T10:11:24Z</time>
      </trkpt>
      <trkpt lat="43.44241" lon="2.62228">
        <ele>790.34</ele>
        <time>2011-10-02T10:11:26Z</time>
      </trkpt>
      <trkpt lat="43.44244" lon="2.62238">
        <ele>787.46</ele>
        <time>2011-10-02T10:11:36Z</time>
      </trkpt>
      <trkpt lat="43.44252" lon="2.6225">
        <ele>784.57</ele>
        <time>2011-10-02T10:11:46Z</time>
      </trkpt>
      <trkpt lat="43.44254" lon="2.62252">
        <ele>784.09</ele>
        <time>2011-10-02T10:11:49Z</time>
      </trkpt>
      <trkpt lat="43.44264" lon="2.62269">
        <ele>782.17</ele>
        <time>2011-10-02T10:12:04Z</time>
      </trkpt>
      <trkpt lat="43.44279" lon="2.62287">
        <ele>785.05</ele>
        <time>2011-10-02T10:12:18Z</time>
      </trkpt>
      <trkpt lat="43.44287" lon="2.6231">
        <ele>786.98</ele>
        <time>2011-10-02T10:12:36Z</time>
      </trkpt>
      <trkpt lat="43.44297" lon="2.62325">
        <ele>785.05</ele>
        <time>2011-10-02T10:12:50Z</time>
      </trkpt>
      <trkpt lat="43.44302" lon="2.62332">
        <ele>784.57</ele>
        <time>2011-10-02T10:12:55Z</time>
      </trkpt>
      <trkpt lat="43.44307" lon="2.62338">
        <ele>783.13</ele>
        <time>2011-10-02T10:12:59Z</time>
      </trkpt>
      <trkpt lat="43.44309" lon="2.62342">
        <ele>783.13</ele>
        <time>2011-10-02T10:13:01Z</time>
      </trkpt>
      <trkpt lat="43.44325" lon="2.62362">
        <ele>782.65</ele>
        <time>2011-10-02T10:13:16Z</time>
      </trkpt>
      <trkpt lat="43.44331" lon="2.62375">
        <ele>783.13</ele>
        <time>2011-10-02T10:13:30Z</time>
      </trkpt>
      <trkpt lat="43.44344" lon="2.62385">
        <ele>781.69</ele>
        <time>2011-10-02T10:13:44Z</time>
      </trkpt>
      <trkpt lat="43.44356" lon="2.62394">
        <ele>780.73</ele>
        <time>2011-10-02T10:13:52Z</time>
      </trkpt>
      <trkpt lat="43.44358" lon="2.62396">
        <ele>780.25</ele>
        <time>2011-10-02T10:13:55Z</time>
      </trkpt>
      <trkpt lat="43.44367" lon="2.62412">
        <ele>778.32</ele>
        <time>2011-10-02T10:14:09Z</time>
      </trkpt>
      <trkpt lat="43.44378" lon="2.62427">
        <ele>773.04</ele>
        <time>2011-10-02T10:14:23Z</time>
      </trkpt>
      <trkpt lat="43.44391" lon="2.62445">
        <ele>766.79</ele>
        <time>2011-10-02T10:14:38Z</time>
      </trkpt>
      <trkpt lat="43.44401" lon="2.62462">
        <ele>764.87</ele>
        <time>2011-10-02T10:14:51Z</time>
      </trkpt>
      <trkpt lat="43.44408" lon="2.6247">
        <ele>762.94</ele>
        <time>2011-10-02T10:14:58Z</time>
      </trkpt>
      <trkpt lat="43.44414" lon="2.62488">
        <ele>760.06</ele>
        <time>2011-10-02T10:15:13Z</time>
      </trkpt>
      <trkpt lat="43.44414" lon="2.62489">
        <ele>759.58</ele>
        <time>2011-10-02T10:15:14Z</time>
      </trkpt>
      <trkpt lat="43.44415" lon="2.62498">
        <ele>757.18</ele>
        <time>2011-10-02T10:15:22Z</time>
      </trkpt>
      <trkpt lat="43.44411" lon="2.62499">
        <ele>756.21</ele>
        <time>2011-10-02T10:15:27Z</time>
      </trkpt>
      <trkpt lat="43.44404" lon="2.6251">
        <ele>753.81</ele>
        <time>2011-10-02T10:15:41Z</time>
      </trkpt>
      <trkpt lat="43.44404" lon="2.6251">
        <ele>753.81</ele>
        <time>2011-10-02T10:15:42Z</time>
      </trkpt>
      <trkpt lat="43.44409" lon="2.62519">
        <ele>755.73</ele>
        <time>2011-10-02T10:16:03Z</time>
      </trkpt>
      <trkpt lat="43.44418" lon="2.62531">
        <ele>758.14</ele>
        <time>2011-10-02T10:16:21Z</time>
      </trkpt>
      <trkpt lat="43.44426" lon="2.62538">
        <ele>758.62</ele>
        <time>2011-10-02T10:16:26Z</time>
      </trkpt>
      <trkpt lat="43.44445" lon="2.62563">
        <ele>761.5</ele>
        <time>2011-10-02T10:16:43Z</time>
      </trkpt>
      <trkpt lat="43.4445" lon="2.62575">
        <ele>760.54</ele>
        <time>2011-10-02T10:16:54Z</time>
      </trkpt>
      <trkpt lat="43.44452" lon="2.62577">
        <ele>760.06</ele>
        <time>2011-10-02T10:17:01Z</time>
      </trkpt>
      <trkpt lat="43.44462" lon="2.62587">
        <ele>757.66</ele>
        <time>2011-10-02T10:17:17Z</time>
      </trkpt>
      <trkpt lat="43.44465" lon="2.62591">
        <ele>757.18</ele>
        <time>2011-10-02T10:17:20Z</time>
      </trkpt>
      <trkpt lat="43.44477" lon="2.62604">
        <ele>753.33</ele>
        <time>2011-10-02T10:17:33Z</time>
      </trkpt>
      <trkpt lat="43.44486" lon="2.62626">
        <ele>749.97</ele>
        <time>2011-10-02T10:17:48Z</time>
      </trkpt>
      <trkpt lat="43.44489" lon="2.62637">
        <ele>749</ele>
        <time>2011-10-02T10:18:01Z</time>
      </trkpt>
      <trkpt lat="43.44502" lon="2.62652">
        <ele>745.16</ele>
        <time>2011-10-02T10:18:16Z</time>
      </trkpt>
      <trkpt lat="43.44511" lon="2.62664">
        <ele>741.31</ele>
        <time>2011-10-02T10:18:24Z</time>
      </trkpt>
      <trkpt lat="43.44512" lon="2.62666">
        <ele>740.35</ele>
        <time>2011-10-02T10:18:26Z</time>
      </trkpt>
      <trkpt lat="43.44517" lon="2.62685">
        <ele>732.18</ele>
        <time>2011-10-02T10:18:42Z</time>
      </trkpt>
      <trkpt lat="43.44521" lon="2.62694">
        <ele>728.82</ele>
        <time>2011-10-02T10:18:55Z</time>
      </trkpt>
      <trkpt lat="43.44527" lon="2.62701">
        <ele>725.45</ele>
        <time>2011-10-02T10:19:09Z</time>
      </trkpt>
      <trkpt lat="43.44537" lon="2.62705">
        <ele>724.01</ele>
        <time>2011-10-02T10:19:17Z</time>
      </trkpt>
      <trkpt lat="43.44554" lon="2.62718">
        <ele>721.61</ele>
        <time>2011-10-02T10:19:31Z</time>
      </trkpt>
      <trkpt lat="43.44564" lon="2.62731">
        <ele>720.16</ele>
        <time>2011-10-02T10:19:44Z</time>
      </trkpt>
      <trkpt lat="43.44564" lon="2.62732">
        <ele>720.65</ele>
        <time>2011-10-02T10:19:45Z</time>
      </trkpt>
      <trkpt lat="43.44567" lon="2.62735">
        <ele>720.16</ele>
        <time>2011-10-02T10:19:48Z</time>
      </trkpt>
      <trkpt lat="43.44575" lon="2.62743">
        <ele>719.2</ele>
        <time>2011-10-02T10:19:55Z</time>
      </trkpt>
      <trkpt lat="43.44578" lon="2.62748">
        <ele>718.72</ele>
        <time>2011-10-02T10:19:59Z</time>
      </trkpt>
      <trkpt lat="43.44591" lon="2.6277">
        <ele>719.68</ele>
        <time>2011-10-02T10:20:15Z</time>
      </trkpt>
      <trkpt lat="43.44601" lon="2.6278">
        <ele>715.84</ele>
        <time>2011-10-02T10:20:28Z</time>
      </trkpt>
      <trkpt lat="43.44605" lon="2.62789">
        <ele>711.51</ele>
        <time>2011-10-02T10:20:37Z</time>
      </trkpt>
      <trkpt lat="43.44611" lon="2.62805">
        <ele>701.9</ele>
        <time>2011-10-02T10:20:52Z</time>
      </trkpt>
      <trkpt lat="43.44613" lon="2.62808">
        <ele>699.02</ele>
        <time>2011-10-02T10:20:57Z</time>
      </trkpt>
      <trkpt lat="43.44615" lon="2.62815">
        <ele>696.61</ele>
        <time>2011-10-02T10:21:02Z</time>
      </trkpt>
      <trkpt lat="43.44617" lon="2.62817">
        <ele>694.69</ele>
        <time>2011-10-02T10:21:05Z</time>
      </trkpt>
      <trkpt lat="43.44623" lon="2.62826">
        <ele>691.33</ele>
        <time>2011-10-02T10:21:12Z</time>
      </trkpt>
      <trkpt lat="43.44629" lon="2.62842">
        <ele>693.25</ele>
        <time>2011-10-02T10:21:23Z</time>
      </trkpt>
      <trkpt lat="43.44624" lon="2.62861">
        <ele>691.81</ele>
        <time>2011-10-02T10:21:38Z</time>
      </trkpt>
      <trkpt lat="43.44623" lon="2.6287">
        <ele>690.84</ele>
        <time>2011-10-02T10:21:50Z</time>
      </trkpt>
      <trkpt lat="43.44619" lon="2.62877">
        <ele>690.84</ele>
        <time>2011-10-02T10:22:04Z</time>
      </trkpt>
      <trkpt lat="43.44619" lon="2.62877">
        <ele>690.84</ele>
        <time>2011-10-02T10:23:01Z</time>
      </trkpt>
      <trkpt lat="43.44623" lon="2.62886">
        <ele>690.36</ele>
        <time>2011-10-02T10:23:11Z</time>
      </trkpt>
      <trkpt lat="43.4463" lon="2.62885">
        <ele>689.88</ele>
        <time>2011-10-02T10:23:24Z</time>
      </trkpt>
      <trkpt lat="43.44631" lon="2.62883">
        <ele>689.4</ele>
        <time>2011-10-02T10:23:26Z</time>
      </trkpt>
      <trkpt lat="43.44637" lon="2.6288">
        <ele>688.92</ele>
        <time>2011-10-02T10:23:42Z</time>
      </trkpt>
      <trkpt lat="43.44638" lon="2.62878">
        <ele>688.92</ele>
        <time>2011-10-02T10:23:52Z</time>
      </trkpt>
      <trkpt lat="43.4464" lon="2.62875">
        <ele>688.92</ele>
        <time>2011-10-02T10:23:56Z</time>
      </trkpt>
      <trkpt lat="43.44644" lon="2.62873">
        <ele>688.92</ele>
        <time>2011-10-02T10:24:02Z</time>
      </trkpt>
      <trkpt lat="43.44652" lon="2.62873">
        <ele>688.92</ele>
        <time>2011-10-02T10:24:09Z</time>
      </trkpt>
      <trkpt lat="43.44669" lon="2.62878">
        <ele>692.29</ele>
        <time>2011-10-02T10:24:18Z</time>
      </trkpt>
      <trkpt lat="43.44688" lon="2.62886">
        <ele>691.33</ele>
        <time>2011-10-02T10:24:33Z</time>
      </trkpt>
      <trkpt lat="43.4469" lon="2.62886">
        <ele>691.33</ele>
        <time>2011-10-02T10:24:35Z</time>
      </trkpt>
      <trkpt lat="43.44694" lon="2.62886">
        <ele>690.36</ele>
        <time>2011-10-02T10:24:40Z</time>
      </trkpt>
      <trkpt lat="43.44696" lon="2.62884">
        <ele>689.88</ele>
        <time>2011-10-02T10:24:43Z</time>
      </trkpt>
      <trkpt lat="43.44711" lon="2.62888">
        <ele>690.36</ele>
        <time>2011-10-02T10:24:54Z</time>
      </trkpt>
      <trkpt lat="43.44732" lon="2.62894">
        <ele>687.48</ele>
        <time>2011-10-02T10:25:10Z</time>
      </trkpt>
      <trkpt lat="43.44748" lon="2.62907">
        <ele>681.23</ele>
        <time>2011-10-02T10:25:25Z</time>
      </trkpt>
      <trkpt lat="43.44753" lon="2.62916">
        <ele>679.31</ele>
        <time>2011-10-02T10:25:32Z</time>
      </trkpt>
      <trkpt lat="43.44764" lon="2.6293">
        <ele>674.98</ele>
        <time>2011-10-02T10:25:45Z</time>
      </trkpt>
      <trkpt lat="43.44764" lon="2.62932">
        <ele>674.98</ele>
        <time>2011-10-02T10:25:46Z</time>
      </trkpt>
      <trkpt lat="43.44767" lon="2.6294">
        <ele>674.02</ele>
        <time>2011-10-02T10:25:52Z</time>
      </trkpt>
      <trkpt lat="43.44775" lon="2.62947">
        <ele>672.1</ele>
        <time>2011-10-02T10:26:01Z</time>
      </trkpt>
      <trkpt lat="43.44787" lon="2.62958">
        <ele>671.62</ele>
        <time>2011-10-02T10:26:13Z</time>
      </trkpt>
      <trkpt lat="43.44799" lon="2.62969">
        <ele>669.22</ele>
        <time>2011-10-02T10:26:28Z</time>
      </trkpt>
      <trkpt lat="43.44802" lon="2.62973">
        <ele>667.77</ele>
        <time>2011-10-02T10:26:32Z</time>
      </trkpt>
      <trkpt lat="43.44812" lon="2.62984">
        <ele>664.89</ele>
        <time>2011-10-02T10:26:46Z</time>
      </trkpt>
      <trkpt lat="43.44825" lon="2.62996">
        <ele>663.93</ele>
        <time>2011-10-02T10:26:58Z</time>
      </trkpt>
      <trkpt lat="43.44832" lon="2.63008">
        <ele>659.6</ele>
        <time>2011-10-02T10:27:12Z</time>
      </trkpt>
      <trkpt lat="43.44833" lon="2.63009">
        <ele>659.6</ele>
        <time>2011-10-02T10:27:13Z</time>
      </trkpt>
      <trkpt lat="43.44839" lon="2.63021">
        <ele>659.6</ele>
        <time>2011-10-02T10:27:22Z</time>
      </trkpt>
      <trkpt lat="43.44844" lon="2.63043">
        <ele>660.56</ele>
        <time>2011-10-02T10:27:37Z</time>
      </trkpt>
      <trkpt lat="43.44862" lon="2.63062">
        <ele>659.12</ele>
        <time>2011-10-02T10:27:53Z</time>
      </trkpt>
      <trkpt lat="43.44877" lon="2.63081">
        <ele>658.16</ele>
        <time>2011-10-02T10:28:07Z</time>
      </trkpt>
      <trkpt lat="43.4488" lon="2.63084">
        <ele>658.64</ele>
        <time>2011-10-02T10:28:10Z</time>
      </trkpt>
      <trkpt lat="43.44894" lon="2.63103">
        <ele>652.87</ele>
        <time>2011-10-02T10:28:27Z</time>
      </trkpt>
      <trkpt lat="43.44901" lon="2.63116">
        <ele>649.99</ele>
        <time>2011-10-02T10:28:39Z</time>
      </trkpt>
      <trkpt lat="43.44909" lon="2.63135">
        <ele>646.14</ele>
        <time>2011-10-02T10:28:53Z</time>
      </trkpt>
      <trkpt lat="43.44911" lon="2.6314">
        <ele>645.66</ele>
        <time>2011-10-02T10:28:56Z</time>
      </trkpt>
      <trkpt lat="43.44914" lon="2.6316">
        <ele>643.74</ele>
        <time>2011-10-02T10:29:10Z</time>
      </trkpt>
      <trkpt lat="43.44916" lon="2.63183">
        <ele>643.26</ele>
        <time>2011-10-02T10:29:24Z</time>
      </trkpt>
      <trkpt lat="43.44918" lon="2.63203">
        <ele>642.78</ele>
        <time>2011-10-02T10:29:35Z</time>
      </trkpt>
      <trkpt lat="43.44926" lon="2.63225">
        <ele>646.14</ele>
        <time>2011-10-02T10:29:48Z</time>
      </trkpt>
      <trkpt lat="43.44929" lon="2.63237">
        <ele>646.62</ele>
        <time>2011-10-02T10:29:55Z</time>
      </trkpt>
      <trkpt lat="43.44936" lon="2.63245">
        <ele>646.14</ele>
        <time>2011-10-02T10:30:02Z</time>
      </trkpt>
      <trkpt lat="43.44943" lon="2.6325">
        <ele>646.14</ele>
        <time>2011-10-02T10:30:08Z</time>
      </trkpt>
      <trkpt lat="43.44949" lon="2.63267">
        <ele>643.26</ele>
        <time>2011-10-02T10:30:22Z</time>
      </trkpt>
      <trkpt lat="43.44949" lon="2.63272">
        <ele>641.82</ele>
        <time>2011-10-02T10:30:29Z</time>
      </trkpt>
      <trkpt lat="43.44947" lon="2.63283">
        <ele>640.86</ele>
        <time>2011-10-02T10:30:38Z</time>
      </trkpt>
      <trkpt lat="43.44946" lon="2.63297">
        <ele>638.45</ele>
        <time>2011-10-02T10:30:50Z</time>
      </trkpt>
      <trkpt lat="43.44948" lon="2.63302">
        <ele>637.97</ele>
        <time>2011-10-02T10:31:04Z</time>
      </trkpt>
      <trkpt lat="43.44949" lon="2.63302">
        <ele>637.97</ele>
        <time>2011-10-02T10:31:44Z</time>
      </trkpt>
      <trkpt lat="43.44952" lon="2.63304">
        <ele>636.53</ele>
        <time>2011-10-02T10:31:52Z</time>
      </trkpt>
      <trkpt lat="43.44968" lon="2.63315">
        <ele>634.61</ele>
        <time>2011-10-02T10:32:05Z</time>
      </trkpt>
      <trkpt lat="43.44972" lon="2.63319">
        <ele>634.61</ele>
        <time>2011-10-02T10:32:09Z</time>
      </trkpt>
      <trkpt lat="43.44979" lon="2.63332">
        <ele>634.13</ele>
        <time>2011-10-02T10:32:19Z</time>
      </trkpt>
      <trkpt lat="43.44981" lon="2.63337">
        <ele>633.17</ele>
        <time>2011-10-02T10:32:23Z</time>
      </trkpt>
      <trkpt lat="43.44984" lon="2.63341">
        <ele>633.17</ele>
        <time>2011-10-02T10:32:26Z</time>
      </trkpt>
      <trkpt lat="43.44996" lon="2.63358">
        <ele>632.2</ele>
        <time>2011-10-02T10:32:40Z</time>
      </trkpt>
      <trkpt lat="43.45003" lon="2.63364">
        <ele>633.17</ele>
        <time>2011-10-02T10:32:46Z</time>
      </trkpt>
      <trkpt lat="43.45017" lon="2.63376">
        <ele>633.17</ele>
        <time>2011-10-02T10:32:59Z</time>
      </trkpt>
      <trkpt lat="43.45025" lon="2.63386">
        <ele>630.76</ele>
        <time>2011-10-02T10:33:11Z</time>
      </trkpt>
      <trkpt lat="43.45034" lon="2.63403">
        <ele>628.84</ele>
        <time>2011-10-02T10:33:26Z</time>
      </trkpt>
      <trkpt lat="43.45045" lon="2.6342">
        <ele>626.44</ele>
        <time>2011-10-02T10:33:38Z</time>
      </trkpt>
      <trkpt lat="43.45047" lon="2.63425">
        <ele>625.47</ele>
        <time>2011-10-02T10:33:43Z</time>
      </trkpt>
      <trkpt lat="43.45052" lon="2.6343">
        <ele>626.44</ele>
        <time>2011-10-02T10:33:51Z</time>
      </trkpt>
      <trkpt lat="43.45061" lon="2.6344">
        <ele>626.44</ele>
        <time>2011-10-02T10:34:01Z</time>
      </trkpt>
      <trkpt lat="43.45063" lon="2.63444">
        <ele>626.92</ele>
        <time>2011-10-02T10:34:04Z</time>
      </trkpt>
      <trkpt lat="43.45064" lon="2.63448">
        <ele>625.47</ele>
        <time>2011-10-02T10:34:08Z</time>
      </trkpt>
      <trkpt lat="43.45066" lon="2.63453">
        <ele>624.99</ele>
        <time>2011-10-02T10:34:10Z</time>
      </trkpt>
      <trkpt lat="43.45068" lon="2.63456">
        <ele>624.51</ele>
        <time>2011-10-02T10:34:14Z</time>
      </trkpt>
      <trkpt lat="43.45071" lon="2.63459">
        <ele>624.03</ele>
        <time>2011-10-02T10:34:16Z</time>
      </trkpt>
      <trkpt lat="43.45084" lon="2.63474">
        <ele>620.19</ele>
        <time>2011-10-02T10:34:31Z</time>
      </trkpt>
      <trkpt lat="43.45085" lon="2.63474">
        <ele>620.19</ele>
        <time>2011-10-02T10:34:32Z</time>
      </trkpt>
      <trkpt lat="43.45093" lon="2.63492">
        <ele>617.78</ele>
        <time>2011-10-02T10:34:46Z</time>
      </trkpt>
      <trkpt lat="43.45099" lon="2.63516">
        <ele>617.78</ele>
        <time>2011-10-02T10:35:01Z</time>
      </trkpt>
      <trkpt lat="43.45112" lon="2.63528">
        <ele>616.82</ele>
        <time>2011-10-02T10:35:13Z</time>
      </trkpt>
      <trkpt lat="43.45117" lon="2.63531">
        <ele>616.82</ele>
        <time>2011-10-02T10:35:17Z</time>
      </trkpt>
      <trkpt lat="43.45121" lon="2.63537">
        <ele>616.34</ele>
        <time>2011-10-02T10:35:21Z</time>
      </trkpt>
      <trkpt lat="43.45126" lon="2.63545">
        <ele>617.3</ele>
        <time>2011-10-02T10:35:28Z</time>
      </trkpt>
      <trkpt lat="43.45134" lon="2.63554">
        <ele>617.78</ele>
        <time>2011-10-02T10:35:36Z</time>
      </trkpt>
      <trkpt lat="43.45144" lon="2.63558">
        <ele>615.38</ele>
        <time>2011-10-02T10:35:50Z</time>
      </trkpt>
      <trkpt lat="43.45161" lon="2.63563">
        <ele>617.3</ele>
        <time>2011-10-02T10:36:04Z</time>
      </trkpt>
      <trkpt lat="43.45181" lon="2.63575">
        <ele>615.86</ele>
        <time>2011-10-02T10:36:17Z</time>
      </trkpt>
      <trkpt lat="43.45186" lon="2.63579">
        <ele>613.94</ele>
        <time>2011-10-02T10:36:22Z</time>
      </trkpt>
      <trkpt lat="43.45193" lon="2.63582">
        <ele>612.98</ele>
        <time>2011-10-02T10:36:26Z</time>
      </trkpt>
      <trkpt lat="43.45195" lon="2.63583">
        <ele>612.98</ele>
        <time>2011-10-02T10:36:28Z</time>
      </trkpt>
      <trkpt lat="43.452" lon="2.63585">
        <ele>612.5</ele>
        <time>2011-10-02T10:36:32Z</time>
      </trkpt>
      <trkpt lat="43.45203" lon="2.63592">
        <ele>612.02</ele>
        <time>2011-10-02T10:36:37Z</time>
      </trkpt>
      <trkpt lat="43.45204" lon="2.636">
        <ele>612.02</ele>
        <time>2011-10-02T10:36:41Z</time>
      </trkpt>
      <trkpt lat="43.45206" lon="2.63619">
        <ele>613.46</ele>
        <time>2011-10-02T10:36:51Z</time>
      </trkpt>
      <trkpt lat="43.45208" lon="2.63627">
        <ele>612.98</ele>
        <time>2011-10-02T10:36:55Z</time>
      </trkpt>
      <trkpt lat="43.45209" lon="2.63644">
        <ele>612.5</ele>
        <time>2011-10-02T10:37:05Z</time>
      </trkpt>
      <trkpt lat="43.45213" lon="2.63665">
        <ele>610.57</ele>
        <time>2011-10-02T10:37:19Z</time>
      </trkpt>
      <trkpt lat="43.45213" lon="2.63665">
        <ele>610.09</ele>
        <time>2011-10-02T10:37:20Z</time>
      </trkpt>
      <trkpt lat="43.45219" lon="2.63672">
        <ele>607.21</ele>
        <time>2011-10-02T10:37:28Z</time>
      </trkpt>
      <trkpt lat="43.4523" lon="2.6368">
        <ele>601.92</ele>
        <time>2011-10-02T10:37:42Z</time>
      </trkpt>
      <trkpt lat="43.45232" lon="2.63679">
        <ele>599.04</ele>
        <time>2011-10-02T10:38:00Z</time>
      </trkpt>
      <trkpt lat="43.45243" lon="2.63687">
        <ele>591.83</ele>
        <time>2011-10-02T10:38:16Z</time>
      </trkpt>
      <trkpt lat="43.45266" lon="2.63709">
        <ele>590.87</ele>
        <time>2011-10-02T10:38:30Z</time>
      </trkpt>
      <trkpt lat="43.45278" lon="2.63726">
        <ele>588.95</ele>
        <time>2011-10-02T10:38:45Z</time>
      </trkpt>
      <trkpt lat="43.45279" lon="2.63733">
        <ele>587.98</ele>
        <time>2011-10-02T10:38:50Z</time>
      </trkpt>
      <trkpt lat="43.45281" lon="2.63735">
        <ele>587.98</ele>
        <time>2011-10-02T10:38:52Z</time>
      </trkpt>
      <trkpt lat="43.45289" lon="2.6375">
        <ele>587.02</ele>
        <time>2011-10-02T10:39:04Z</time>
      </trkpt>
      <trkpt lat="43.45293" lon="2.63766">
        <ele>586.54</ele>
        <time>2011-10-02T10:39:15Z</time>
      </trkpt>
      <trkpt lat="43.45295" lon="2.63769">
        <ele>586.54</ele>
        <time>2011-10-02T10:39:18Z</time>
      </trkpt>
      <trkpt lat="43.4531" lon="2.6379">
        <ele>586.06</ele>
        <time>2011-10-02T10:39:36Z</time>
      </trkpt>
      <trkpt lat="43.45333" lon="2.63802">
        <ele>585.58</ele>
        <time>2011-10-02T10:39:48Z</time>
      </trkpt>
      <trkpt lat="43.45347" lon="2.63811">
        <ele>584.14</ele>
        <time>2011-10-02T10:40:02Z</time>
      </trkpt>
      <trkpt lat="43.4535" lon="2.63815">
        <ele>584.62</ele>
        <time>2011-10-02T10:40:09Z</time>
      </trkpt>
      <trkpt lat="43.45355" lon="2.63819">
        <ele>586.06</ele>
        <time>2011-10-02T10:40:15Z</time>
      </trkpt>
      <trkpt lat="43.45373" lon="2.6383">
        <ele>587.98</ele>
        <time>2011-10-02T10:40:27Z</time>
      </trkpt>
      <trkpt lat="43.45378" lon="2.63835">
        <ele>588.46</ele>
        <time>2011-10-02T10:40:32Z</time>
      </trkpt>
      <trkpt lat="43.45385" lon="2.63845">
        <ele>587.5</ele>
        <time>2011-10-02T10:40:45Z</time>
      </trkpt>
      <trkpt lat="43.4539" lon="2.63862">
        <ele>583.66</ele>
        <time>2011-10-02T10:40:57Z</time>
      </trkpt>
      <trkpt lat="43.45394" lon="2.63875">
        <ele>581.73</ele>
        <time>2011-10-02T10:41:06Z</time>
      </trkpt>
      <trkpt lat="43.45403" lon="2.63896">
        <ele>579.33</ele>
        <time>2011-10-02T10:41:21Z</time>
      </trkpt>
      <trkpt lat="43.45401" lon="2.6391">
        <ele>577.89</ele>
        <time>2011-10-02T10:41:35Z</time>
      </trkpt>
      <trkpt lat="43.45408" lon="2.63922">
        <ele>577.41</ele>
        <time>2011-10-02T10:41:44Z</time>
      </trkpt>
      <trkpt lat="43.4541" lon="2.63928">
        <ele>577.41</ele>
        <time>2011-10-02T10:41:50Z</time>
      </trkpt>
      <trkpt lat="43.45418" lon="2.63933">
        <ele>577.41</ele>
        <time>2011-10-02T10:41:54Z</time>
      </trkpt>
      <trkpt lat="43.45421" lon="2.63936">
        <ele>576.45</ele>
        <time>2011-10-02T10:41:58Z</time>
      </trkpt>
      <trkpt lat="43.4543" lon="2.63957">
        <ele>576.93</ele>
        <time>2011-10-02T10:42:15Z</time>
      </trkpt>
      <trkpt lat="43.45437" lon="2.63963">
        <ele>577.89</ele>
        <time>2011-10-02T10:42:24Z</time>
      </trkpt>
      <trkpt lat="43.45443" lon="2.63981">
        <ele>576.93</ele>
        <time>2011-10-02T10:42:35Z</time>
      </trkpt>
      <trkpt lat="43.45453" lon="2.64002">
        <ele>573.08</ele>
        <time>2011-10-02T10:42:49Z</time>
      </trkpt>
      <trkpt lat="43.45462" lon="2.64022">
        <ele>572.12</ele>
        <time>2011-10-02T10:43:04Z</time>
      </trkpt>
      <trkpt lat="43.45463" lon="2.64029">
        <ele>572.12</ele>
        <time>2011-10-02T10:43:20Z</time>
      </trkpt>
      <trkpt lat="43.45464" lon="2.6403">
        <ele>572.12</ele>
        <time>2011-10-02T10:43:34Z</time>
      </trkpt>
      <trkpt lat="43.45472" lon="2.64034">
        <ele>571.16</ele>
        <time>2011-10-02T10:43:43Z</time>
      </trkpt>
      <trkpt lat="43.45484" lon="2.64026">
        <ele>568.28</ele>
        <time>2011-10-02T10:43:57Z</time>
      </trkpt>
      <trkpt lat="43.4549" lon="2.6401">
        <ele>563.95</ele>
        <time>2011-10-02T10:44:12Z</time>
      </trkpt>
      <trkpt lat="43.45496" lon="2.64002">
        <ele>563.47</ele>
        <time>2011-10-02T10:44:23Z</time>
      </trkpt>
      <trkpt lat="43.45503" lon="2.64006">
        <ele>562.03</ele>
        <time>2011-10-02T10:44:28Z</time>
      </trkpt>
      <trkpt lat="43.45505" lon="2.64017">
        <ele>562.03</ele>
        <time>2011-10-02T10:44:39Z</time>
      </trkpt>
      <trkpt lat="43.45516" lon="2.64026">
        <ele>557.22</ele>
        <time>2011-10-02T10:45:00Z</time>
      </trkpt>
      <trkpt lat="43.45518" lon="2.64027">
        <ele>556.74</ele>
        <time>2011-10-02T10:45:24Z</time>
      </trkpt>
      <trkpt lat="43.45526" lon="2.64032">
        <ele>557.22</ele>
        <time>2011-10-02T10:45:56Z</time>
      </trkpt>
      <trkpt lat="43.45528" lon="2.64034">
        <ele>557.22</ele>
        <time>2011-10-02T10:46:01Z</time>
      </trkpt>
      <trkpt lat="43.4553" lon="2.64035">
        <ele>556.26</ele>
        <time>2011-10-02T10:46:03Z</time>
      </trkpt>
      <trkpt lat="43.45539" lon="2.64032">
        <ele>553.38</ele>
        <time>2011-10-02T10:46:11Z</time>
      </trkpt>
      <trkpt lat="43.4554" lon="2.64031">
        <ele>552.9</ele>
        <time>2011-10-02T10:46:16Z</time>
      </trkpt>
      <trkpt lat="43.45542" lon="2.64029">
        <ele>551.93</ele>
        <time>2011-10-02T10:46:20Z</time>
      </trkpt>
      <trkpt lat="43.45543" lon="2.64023">
        <ele>551.45</ele>
        <time>2011-10-02T10:46:24Z</time>
      </trkpt>
      <trkpt lat="43.45542" lon="2.64021">
        <ele>550.01</ele>
        <time>2011-10-02T10:46:44Z</time>
      </trkpt>
      <trkpt lat="43.45542" lon="2.64022">
        <ele>550.49</ele>
        <time>2011-10-02T10:50:05Z</time>
      </trkpt>
      <trkpt lat="43.45543" lon="2.64026">
        <ele>551.93</ele>
        <time>2011-10-02T10:50:29Z</time>
      </trkpt>
      <trkpt lat="43.45543" lon="2.64024">
        <ele>550.97</ele>
        <time>2011-10-02T10:54:54Z</time>
      </trkpt>
      <trkpt lat="43.45543" lon="2.64023">
        <ele>550.01</ele>
        <time>2011-10-02T10:58:35Z</time>
      </trkpt>
      <trkpt lat="43.45543" lon="2.64025">
        <ele>549.53</ele>
        <time>2011-10-02T11:01:41Z</time>
      </trkpt>
      <trkpt lat="43.45544" lon="2.64025">
        <ele>548.57</ele>
        <time>2011-10-02T11:03:52Z</time>
      </trkpt>
      <trkpt lat="43.45544" lon="2.64025">
        <ele>548.57</ele>
        <time>2011-10-02T11:05:05Z</time>
      </trkpt>
      <trkpt lat="43.45544" lon="2.64025">
        <ele>547.13</ele>
        <time>2011-10-02T11:06:45Z</time>
      </trkpt>
      <trkpt lat="43.45544" lon="2.64023">
        <ele>545.69</ele>
        <time>2011-10-02T11:08:56Z</time>
      </trkpt>
      <trkpt lat="43.45544" lon="2.64023">
        <ele>544.24</ele>
        <time>2011-10-02T11:11:48Z</time>
      </trkpt>
      <trkpt lat="43.45545" lon="2.64024">
        <ele>542.32</ele>
        <time>2011-10-02T11:15:51Z</time>
      </trkpt>
      <trkpt lat="43.45546" lon="2.64022">
        <ele>542.32</ele>
        <time>2011-10-02T11:17:50Z</time>
      </trkpt>
      <trkpt lat="43.45545" lon="2.64021">
        <ele>541.36</ele>
        <time>2011-10-02T11:20:44Z</time>
      </trkpt>
      <trkpt lat="43.45545" lon="2.6402">
        <ele>541.36</ele>
        <time>2011-10-02T11:22:43Z</time>
      </trkpt>
      <trkpt lat="43.45544" lon="2.64018">
        <ele>540.4</ele>
        <time>2011-10-02T11:25:58Z</time>
      </trkpt>
      <trkpt lat="43.45544" lon="2.64017">
        <ele>540.88</ele>
        <time>2011-10-02T11:27:57Z</time>
      </trkpt>
      <trkpt lat="43.45545" lon="2.64019">
        <ele>540.88</ele>
        <time>2011-10-02T11:31:51Z</time>
      </trkpt>
      <trkpt lat="43.45544" lon="2.64022">
        <ele>540.88</ele>
        <time>2011-10-02T11:34:46Z</time>
      </trkpt>
      <trkpt lat="43.45544" lon="2.64022">
        <ele>541.36</ele>
        <time>2011-10-02T11:37:14Z</time>
      </trkpt>
      <trkpt lat="43.45543" lon="2.64023">
        <ele>542.8</ele>
        <time>2011-10-02T11:41:15Z</time>
      </trkpt>
      <trkpt lat="43.45544" lon="2.64023">
        <ele>543.76</ele>
        <time>2011-10-02T11:42:21Z</time>
      </trkpt>
      <trkpt lat="43.45543" lon="2.64024">
        <ele>544.24</ele>
        <time>2011-10-02T11:43:42Z</time>
      </trkpt>
      <trkpt lat="43.45546" lon="2.64027">
        <ele>545.2</ele>
        <time>2011-10-02T11:44:11Z</time>
      </trkpt>
      <trkpt lat="43.45547" lon="2.64027">
        <ele>545.2</ele>
        <time>2011-10-02T11:44:14Z</time>
      </trkpt>
      <trkpt lat="43.45557" lon="2.6403">
        <ele>542.32</ele>
        <time>2011-10-02T11:44:31Z</time>
      </trkpt>
      <trkpt lat="43.45566" lon="2.64039">
        <ele>541.84</ele>
        <time>2011-10-02T11:44:46Z</time>
      </trkpt>
      <trkpt lat="43.4557" lon="2.6405">
        <ele>541.36</ele>
        <time>2011-10-02T11:44:59Z</time>
      </trkpt>
      <trkpt lat="43.45568" lon="2.64057">
        <ele>539.92</ele>
        <time>2011-10-02T11:45:09Z</time>
      </trkpt>
      <trkpt lat="43.45551" lon="2.64053">
        <ele>538.48</ele>
        <time>2011-10-02T11:45:24Z</time>
      </trkpt>
      <trkpt lat="43.45546" lon="2.64052">
        <ele>537.99</ele>
        <time>2011-10-02T11:45:30Z</time>
      </trkpt>
      <trkpt lat="43.45526" lon="2.64056">
        <ele>536.55</ele>
        <time>2011-10-02T11:45:47Z</time>
      </trkpt>
      <trkpt lat="43.45508" lon="2.64061">
        <ele>537.99</ele>
        <time>2011-10-02T11:46:04Z</time>
      </trkpt>
      <trkpt lat="43.45502" lon="2.64068">
        <ele>536.55</ele>
        <time>2011-10-02T11:46:11Z</time>
      </trkpt>
      <trkpt lat="43.45505" lon="2.64079">
        <ele>532.71</ele>
        <time>2011-10-02T11:46:25Z</time>
      </trkpt>
      <trkpt lat="43.45509" lon="2.6408">
        <ele>530.79</ele>
        <time>2011-10-02T11:46:28Z</time>
      </trkpt>
      <trkpt lat="43.4552" lon="2.64084">
        <ele>526.46</ele>
        <time>2011-10-02T11:46:42Z</time>
      </trkpt>
      <trkpt lat="43.45525" lon="2.64088">
        <ele>523.58</ele>
        <time>2011-10-02T11:46:49Z</time>
      </trkpt>
      <trkpt lat="43.45533" lon="2.6409">
        <ele>521.65</ele>
        <time>2011-10-02T11:47:09Z</time>
      </trkpt>
      <trkpt lat="43.45535" lon="2.6409">
        <ele>521.65</ele>
        <time>2011-10-02T11:47:24Z</time>
      </trkpt>
      <trkpt lat="43.45536" lon="2.64089">
        <ele>521.17</ele>
        <time>2011-10-02T11:48:45Z</time>
      </trkpt>
      <trkpt lat="43.45544" lon="2.64093">
        <ele>521.17</ele>
        <time>2011-10-02T11:50:50Z</time>
      </trkpt>
      <trkpt lat="43.45551" lon="2.64093">
        <ele>522.13</ele>
        <time>2011-10-02T11:50:56Z</time>
      </trkpt>
      <trkpt lat="43.45564" lon="2.64098">
        <ele>521.65</ele>
        <time>2011-10-02T11:51:11Z</time>
      </trkpt>
      <trkpt lat="43.45567" lon="2.64103">
        <ele>521.65</ele>
        <time>2011-10-02T11:51:15Z</time>
      </trkpt>
      <trkpt lat="43.45577" lon="2.64124">
        <ele>521.65</ele>
        <time>2011-10-02T11:51:31Z</time>
      </trkpt>
      <trkpt lat="43.45584" lon="2.64139">
        <ele>521.65</ele>
        <time>2011-10-02T11:51:47Z</time>
      </trkpt>
      <trkpt lat="43.45587" lon="2.64145">
        <ele>521.17</ele>
        <time>2011-10-02T11:51:55Z</time>
      </trkpt>
      <trkpt lat="43.45587" lon="2.64153">
        <ele>522.13</ele>
        <time>2011-10-02T11:52:06Z</time>
      </trkpt>
      <trkpt lat="43.45587" lon="2.6418">
        <ele>525.02</ele>
        <time>2011-10-02T11:52:22Z</time>
      </trkpt>
      <trkpt lat="43.45588" lon="2.64182">
        <ele>525.5</ele>
        <time>2011-10-02T11:52:23Z</time>
      </trkpt>
      <trkpt lat="43.45598" lon="2.64198">
        <ele>529.82</ele>
        <time>2011-10-02T11:52:36Z</time>
      </trkpt>
      <trkpt lat="43.45608" lon="2.64213">
        <ele>532.23</ele>
        <time>2011-10-02T11:52:47Z</time>
      </trkpt>
      <trkpt lat="43.45613" lon="2.64219">
        <ele>533.67</ele>
        <time>2011-10-02T11:52:54Z</time>
      </trkpt>
      <trkpt lat="43.45628" lon="2.64231">
        <ele>538.48</ele>
        <time>2011-10-02T11:53:08Z</time>
      </trkpt>
      <trkpt lat="43.45642" lon="2.64234">
        <ele>538.96</ele>
        <time>2011-10-02T11:53:18Z</time>
      </trkpt>
      <trkpt lat="43.45654" lon="2.64244">
        <ele>538.96</ele>
        <time>2011-10-02T11:53:33Z</time>
      </trkpt>
      <trkpt lat="43.45655" lon="2.64244">
        <ele>538.96</ele>
        <time>2011-10-02T11:53:34Z</time>
      </trkpt>
      <trkpt lat="43.45678" lon="2.64246">
        <ele>535.59</ele>
        <time>2011-10-02T11:53:49Z</time>
      </trkpt>
      <trkpt lat="43.45697" lon="2.64245">
        <ele>533.19</ele>
        <time>2011-10-02T11:54:03Z</time>
      </trkpt>
      <trkpt lat="43.45715" lon="2.64254">
        <ele>527.42</ele>
        <time>2011-10-02T11:54:20Z</time>
      </trkpt>
      <trkpt lat="43.45717" lon="2.64254">
        <ele>526.94</ele>
        <time>2011-10-02T11:54:23Z</time>
      </trkpt>
      <trkpt lat="43.45722" lon="2.64253">
        <ele>526.46</ele>
        <time>2011-10-02T11:54:27Z</time>
      </trkpt>
      <trkpt lat="43.45728" lon="2.64257">
        <ele>517.33</ele>
        <time>2011-10-02T11:54:43Z</time>
      </trkpt>
      <trkpt lat="43.45738" lon="2.64255">
        <ele>513.96</ele>
        <time>2011-10-02T11:54:55Z</time>
      </trkpt>
      <trkpt lat="43.45754" lon="2.64257">
        <ele>512.04</ele>
        <time>2011-10-02T11:55:10Z</time>
      </trkpt>
      <trkpt lat="43.45768" lon="2.64253">
        <ele>508.19</ele>
        <time>2011-10-02T11:55:22Z</time>
      </trkpt>
      <trkpt lat="43.45774" lon="2.64242">
        <ele>506.75</ele>
        <time>2011-10-02T11:55:29Z</time>
      </trkpt>
      <trkpt lat="43.4578" lon="2.64239">
        <ele>505.79</ele>
        <time>2011-10-02T11:55:45Z</time>
      </trkpt>
      <trkpt lat="43.45786" lon="2.64242">
        <ele>504.83</ele>
        <time>2011-10-02T11:55:54Z</time>
      </trkpt>
      <trkpt lat="43.45789" lon="2.64246">
        <ele>504.83</ele>
        <time>2011-10-02T11:55:58Z</time>
      </trkpt>
      <trkpt lat="43.45792" lon="2.64254">
        <ele>503.39</ele>
        <time>2011-10-02T11:56:05Z</time>
      </trkpt>
      <trkpt lat="43.45805" lon="2.64262">
        <ele>503.87</ele>
        <time>2011-10-02T11:56:20Z</time>
      </trkpt>
      <trkpt lat="43.45809" lon="2.64264">
        <ele>504.35</ele>
        <time>2011-10-02T11:56:25Z</time>
      </trkpt>
      <trkpt lat="43.45823" lon="2.64267">
        <ele>505.31</ele>
        <time>2011-10-02T11:56:40Z</time>
      </trkpt>
      <trkpt lat="43.45824" lon="2.64268">
        <ele>505.79</ele>
        <time>2011-10-02T11:56:42Z</time>
      </trkpt>
      <trkpt lat="43.45827" lon="2.64274">
        <ele>507.71</ele>
        <time>2011-10-02T11:56:50Z</time>
      </trkpt>
      <trkpt lat="43.45842" lon="2.64284">
        <ele>510.12</ele>
        <time>2011-10-02T11:57:06Z</time>
      </trkpt>
      <trkpt lat="43.4585" lon="2.64289">
        <ele>510.12</ele>
        <time>2011-10-02T11:57:18Z</time>
      </trkpt>
      <trkpt lat="43.45857" lon="2.64299">
        <ele>507.71</ele>
        <time>2011-10-02T11:57:33Z</time>
      </trkpt>
      <trkpt lat="43.45858" lon="2.64302">
        <ele>507.71</ele>
        <time>2011-10-02T11:57:37Z</time>
      </trkpt>
      <trkpt lat="43.45858" lon="2.64315">
        <ele>508.19</ele>
        <time>2011-10-02T11:57:46Z</time>
      </trkpt>
      <trkpt lat="43.45857" lon="2.64334">
        <ele>511.08</ele>
        <time>2011-10-02T11:58:00Z</time>
      </trkpt>
      <trkpt lat="43.45847" lon="2.64346">
        <ele>517.81</ele>
        <time>2011-10-02T11:58:13Z</time>
      </trkpt>
      <trkpt lat="43.45844" lon="2.64352">
        <ele>519.25</ele>
        <time>2011-10-02T11:58:19Z</time>
      </trkpt>
      <trkpt lat="43.45847" lon="2.6438">
        <ele>521.65</ele>
        <time>2011-10-02T11:58:38Z</time>
      </trkpt>
      <trkpt lat="43.45855" lon="2.64403">
        <ele>523.58</ele>
        <time>2011-10-02T11:58:54Z</time>
      </trkpt>
      <trkpt lat="43.45859" lon="2.64409">
        <ele>523.09</ele>
        <time>2011-10-02T11:59:02Z</time>
      </trkpt>
      <trkpt lat="43.45875" lon="2.64428">
        <ele>521.17</ele>
        <time>2011-10-02T11:59:17Z</time>
      </trkpt>
      <trkpt lat="43.45877" lon="2.6443">
        <ele>521.17</ele>
        <time>2011-10-02T11:59:35Z</time>
      </trkpt>
      <trkpt lat="43.45886" lon="2.64433">
        <ele>519.73</ele>
        <time>2011-10-02T11:59:50Z</time>
      </trkpt>
      <trkpt lat="43.45888" lon="2.64433">
        <ele>518.77</ele>
        <time>2011-10-02T11:59:59Z</time>
      </trkpt>
      <trkpt lat="43.45899" lon="2.64444">
        <ele>519.25</ele>
        <time>2011-10-02T12:00:12Z</time>
      </trkpt>
      <trkpt lat="43.45907" lon="2.6445">
        <ele>517.81</ele>
        <time>2011-10-02T12:00:20Z</time>
      </trkpt>
      <trkpt lat="43.45908" lon="2.64451">
        <ele>518.29</ele>
        <time>2011-10-02T12:00:23Z</time>
      </trkpt>
      <trkpt lat="43.45917" lon="2.64455">
        <ele>516.37</ele>
        <time>2011-10-02T12:00:37Z</time>
      </trkpt>
      <trkpt lat="43.45922" lon="2.64458">
        <ele>515.88</ele>
        <time>2011-10-02T12:00:49Z</time>
      </trkpt>
      <trkpt lat="43.45928" lon="2.64462">
        <ele>515.88</ele>
        <time>2011-10-02T12:01:19Z</time>
      </trkpt>
      <trkpt lat="43.45931" lon="2.64464">
        <ele>516.37</ele>
        <time>2011-10-02T12:01:22Z</time>
      </trkpt>
      <trkpt lat="43.45943" lon="2.6448">
        <ele>520.21</ele>
        <time>2011-10-02T12:01:36Z</time>
      </trkpt>
      <trkpt lat="43.4595" lon="2.64484">
        <ele>520.21</ele>
        <time>2011-10-02T12:01:52Z</time>
      </trkpt>
      <trkpt lat="43.45953" lon="2.64484">
        <ele>522.13</ele>
        <time>2011-10-02T12:02:07Z</time>
      </trkpt>
      <trkpt lat="43.45955" lon="2.64484">
        <ele>523.09</ele>
        <time>2011-10-02T12:02:22Z</time>
      </trkpt>
      <trkpt lat="43.45966" lon="2.64482">
        <ele>524.06</ele>
        <time>2011-10-02T12:02:33Z</time>
      </trkpt>
      <trkpt lat="43.45979" lon="2.64469">
        <ele>525.02</ele>
        <time>2011-10-02T12:02:49Z</time>
      </trkpt>
      <trkpt lat="43.4599" lon="2.64456">
        <ele>527.42</ele>
        <time>2011-10-02T12:03:05Z</time>
      </trkpt>
      <trkpt lat="43.45992" lon="2.64454">
        <ele>527.9</ele>
        <time>2011-10-02T12:03:14Z</time>
      </trkpt>
      <trkpt lat="43.45998" lon="2.64447">
        <ele>526.46</ele>
        <time>2011-10-02T12:03:29Z</time>
      </trkpt>
      <trkpt lat="43.46006" lon="2.64438">
        <ele>526.46</ele>
        <time>2011-10-02T12:03:34Z</time>
      </trkpt>
      <trkpt lat="43.46023" lon="2.64424">
        <ele>525.5</ele>
        <time>2011-10-02T12:03:47Z</time>
      </trkpt>
      <trkpt lat="43.46039" lon="2.64412">
        <ele>524.06</ele>
        <time>2011-10-02T12:04:02Z</time>
      </trkpt>
      <trkpt lat="43.46058" lon="2.6441">
        <ele>522.13</ele>
        <time>2011-10-02T12:04:17Z</time>
      </trkpt>
      <trkpt lat="43.46077" lon="2.64404">
        <ele>521.17</ele>
        <time>2011-10-02T12:04:31Z</time>
      </trkpt>
      <trkpt lat="43.461" lon="2.64399">
        <ele>519.73</ele>
        <time>2011-10-02T12:04:47Z</time>
      </trkpt>
      <trkpt lat="43.46115" lon="2.6439">
        <ele>520.69</ele>
        <time>2011-10-02T12:05:01Z</time>
      </trkpt>
      <trkpt lat="43.46128" lon="2.6437">
        <ele>521.65</ele>
        <time>2011-10-02T12:05:14Z</time>
      </trkpt>
      <trkpt lat="43.4614" lon="2.64351">
        <ele>522.13</ele>
        <time>2011-10-02T12:05:29Z</time>
      </trkpt>
      <trkpt lat="43.46146" lon="2.64345">
        <ele>522.13</ele>
        <time>2011-10-02T12:05:35Z</time>
      </trkpt>
      <trkpt lat="43.46159" lon="2.64326">
        <ele>522.13</ele>
        <time>2011-10-02T12:05:47Z</time>
      </trkpt>
      <trkpt lat="43.46171" lon="2.64307">
        <ele>516.37</ele>
        <time>2011-10-02T12:06:03Z</time>
      </trkpt>
      <trkpt lat="43.46184" lon="2.64288">
        <ele>511.08</ele>
        <time>2011-10-02T12:06:18Z</time>
      </trkpt>
      <trkpt lat="43.46193" lon="2.64278">
        <ele>512.52</ele>
        <time>2011-10-02T12:06:26Z</time>
      </trkpt>
      <trkpt lat="43.46213" lon="2.64253">
        <ele>513</ele>
        <time>2011-10-02T12:06:43Z</time>
      </trkpt>
      <trkpt lat="43.4622" lon="2.64243">
        <ele>513</ele>
        <time>2011-10-02T12:06:50Z</time>
      </trkpt>
      <trkpt lat="43.46239" lon="2.64222">
        <ele>509.16</ele>
        <time>2011-10-02T12:07:08Z</time>
      </trkpt>
      <trkpt lat="43.46247" lon="2.64207">
        <ele>501.46</ele>
        <time>2011-10-02T12:07:22Z</time>
      </trkpt>
      <trkpt lat="43.46261" lon="2.64172">
        <ele>505.31</ele>
        <time>2011-10-02T12:07:38Z</time>
      </trkpt>
      <trkpt lat="43.46274" lon="2.6415">
        <ele>502.91</ele>
        <time>2011-10-02T12:07:56Z</time>
      </trkpt>
      <trkpt lat="43.46282" lon="2.64134">
        <ele>499.54</ele>
        <time>2011-10-02T12:08:10Z</time>
      </trkpt>
      <trkpt lat="43.46292" lon="2.64123">
        <ele>494.26</ele>
        <time>2011-10-02T12:08:25Z</time>
      </trkpt>
      <trkpt lat="43.46301" lon="2.6411">
        <ele>489.45</ele>
        <time>2011-10-02T12:08:39Z</time>
      </trkpt>
      <trkpt lat="43.46309" lon="2.6409">
        <ele>483.68</ele>
        <time>2011-10-02T12:08:53Z</time>
      </trkpt>
      <trkpt lat="43.46315" lon="2.64077">
        <ele>478.39</ele>
        <time>2011-10-02T12:09:06Z</time>
      </trkpt>
      <trkpt lat="43.46322" lon="2.64058">
        <ele>479.84</ele>
        <time>2011-10-02T12:09:15Z</time>
      </trkpt>
      <trkpt lat="43.46327" lon="2.64053">
        <ele>479.84</ele>
        <time>2011-10-02T12:09:19Z</time>
      </trkpt>
      <trkpt lat="43.46335" lon="2.64041">
        <ele>482.72</ele>
        <time>2011-10-02T12:09:27Z</time>
      </trkpt>
      <trkpt lat="43.46342" lon="2.64025">
        <ele>483.2</ele>
        <time>2011-10-02T12:09:43Z</time>
      </trkpt>
      <trkpt lat="43.46347" lon="2.64018">
        <ele>482.24</ele>
        <time>2011-10-02T12:09:47Z</time>
      </trkpt>
      <trkpt lat="43.46356" lon="2.64006">
        <ele>482.72</ele>
        <time>2011-10-02T12:09:57Z</time>
      </trkpt>
      <trkpt lat="43.46366" lon="2.63991">
        <ele>481.76</ele>
        <time>2011-10-02T12:10:10Z</time>
      </trkpt>
      <trkpt lat="43.46366" lon="2.63987">
        <ele>481.76</ele>
        <time>2011-10-02T12:10:13Z</time>
      </trkpt>
      <trkpt lat="43.46375" lon="2.63974">
        <ele>481.76</ele>
        <time>2011-10-02T12:10:24Z</time>
      </trkpt>
      <trkpt lat="43.46384" lon="2.63955">
        <ele>480.8</ele>
        <time>2011-10-02T12:10:36Z</time>
      </trkpt>
      <trkpt lat="43.46398" lon="2.63931">
        <ele>481.76</ele>
        <time>2011-10-02T12:10:53Z</time>
      </trkpt>
      <trkpt lat="43.46398" lon="2.6393">
        <ele>481.76</ele>
        <time>2011-10-02T12:10:54Z</time>
      </trkpt>
      <trkpt lat="43.46407" lon="2.63914">
        <ele>482.24</ele>
        <time>2011-10-02T12:11:08Z</time>
      </trkpt>
      <trkpt lat="43.46413" lon="2.63901">
        <ele>481.76</ele>
        <time>2011-10-02T12:11:21Z</time>
      </trkpt>
      <trkpt lat="43.46418" lon="2.63889">
        <ele>480.32</ele>
        <time>2011-10-02T12:11:35Z</time>
      </trkpt>
      <trkpt lat="43.46419" lon="2.63885">
        <ele>479.84</ele>
        <time>2011-10-02T12:11:38Z</time>
      </trkpt>
      <trkpt lat="43.46417" lon="2.63881">
        <ele>477.91</ele>
        <time>2011-10-02T12:11:53Z</time>
      </trkpt>
      <trkpt lat="43.46417" lon="2.63874">
        <ele>473.59</ele>
        <time>2011-10-02T12:12:40Z</time>
      </trkpt>
      <trkpt lat="43.46417" lon="2.63869">
        <ele>472.63</ele>
        <time>2011-10-02T12:12:44Z</time>
      </trkpt>
      <trkpt lat="43.46416" lon="2.63865">
        <ele>471.66</ele>
        <time>2011-10-02T12:12:47Z</time>
      </trkpt>
      <trkpt lat="43.46419" lon="2.63848">
        <ele>469.26</ele>
        <time>2011-10-02T12:12:58Z</time>
      </trkpt>
      <trkpt lat="43.46423" lon="2.63839">
        <ele>467.34</ele>
        <time>2011-10-02T12:13:06Z</time>
      </trkpt>
      <trkpt lat="43.4643" lon="2.63842">
        <ele>460.61</ele>
        <time>2011-10-02T12:13:16Z</time>
      </trkpt>
      <trkpt lat="43.46449" lon="2.63835">
        <ele>449.07</ele>
        <time>2011-10-02T12:13:35Z</time>
      </trkpt>
      <trkpt lat="43.46455" lon="2.63833">
        <ele>446.67</ele>
        <time>2011-10-02T12:13:41Z</time>
      </trkpt>
      <trkpt lat="43.46461" lon="2.63827">
        <ele>444.75</ele>
        <time>2011-10-02T12:13:46Z</time>
      </trkpt>
      <trkpt lat="43.46471" lon="2.6382">
        <ele>444.27</ele>
        <time>2011-10-02T12:13:55Z</time>
      </trkpt>
      <trkpt lat="43.46488" lon="2.63816">
        <ele>444.27</ele>
        <time>2011-10-02T12:14:09Z</time>
      </trkpt>
      <trkpt lat="43.46502" lon="2.63816">
        <ele>443.31</ele>
        <time>2011-10-02T12:14:22Z</time>
      </trkpt>
      <trkpt lat="43.46521" lon="2.63816">
        <ele>442.34</ele>
        <time>2011-10-02T12:14:35Z</time>
      </trkpt>
      <trkpt lat="43.46538" lon="2.63812">
        <ele>439.94</ele>
        <time>2011-10-02T12:14:50Z</time>
      </trkpt>
      <trkpt lat="43.46556" lon="2.63813">
        <ele>440.9</ele>
        <time>2011-10-02T12:15:03Z</time>
      </trkpt>
      <trkpt lat="43.46575" lon="2.63813">
        <ele>437.06</ele>
        <time>2011-10-02T12:15:17Z</time>
      </trkpt>
      <trkpt lat="43.4659" lon="2.63811">
        <ele>437.54</ele>
        <time>2011-10-02T12:15:29Z</time>
      </trkpt>
      <trkpt lat="43.466" lon="2.63812">
        <ele>438.5</ele>
        <time>2011-10-02T12:15:38Z</time>
      </trkpt>
      <trkpt lat="43.4661" lon="2.63811">
        <ele>440.42</ele>
        <time>2011-10-02T12:15:47Z</time>
      </trkpt>
      <trkpt lat="43.46625" lon="2.63801">
        <ele>441.38</ele>
        <time>2011-10-02T12:16:02Z</time>
      </trkpt>
      <trkpt lat="43.46625" lon="2.63801">
        <ele>441.38</ele>
        <time>2011-10-02T12:16:25Z</time>
      </trkpt>
      <trkpt lat="43.46642" lon="2.63797">
        <ele>439.46</ele>
        <time>2011-10-02T12:16:37Z</time>
      </trkpt>
      <trkpt lat="43.46663" lon="2.63795">
        <ele>438.02</ele>
        <time>2011-10-02T12:16:52Z</time>
      </trkpt>
      <trkpt lat="43.4667" lon="2.63795">
        <ele>439.46</ele>
        <time>2011-10-02T12:17:00Z</time>
      </trkpt>
      <trkpt lat="43.46677" lon="2.63796">
        <ele>441.38</ele>
        <time>2011-10-02T12:17:08Z</time>
      </trkpt>
      <trkpt lat="43.46704" lon="2.63795">
        <ele>441.86</ele>
        <time>2011-10-02T12:17:22Z</time>
      </trkpt>
      <trkpt lat="43.46716" lon="2.63802">
        <ele>440.42</ele>
        <time>2011-10-02T12:17:31Z</time>
      </trkpt>
      <trkpt lat="43.46732" lon="2.63818">
        <ele>438.5</ele>
        <time>2011-10-02T12:17:47Z</time>
      </trkpt>
      <trkpt lat="43.46744" lon="2.63831">
        <ele>437.54</ele>
        <time>2011-10-02T12:17:58Z</time>
      </trkpt>
      <trkpt lat="43.4675" lon="2.63841">
        <ele>437.54</ele>
        <time>2011-10-02T12:18:06Z</time>
      </trkpt>
      <trkpt lat="43.46757" lon="2.63852">
        <ele>438.02</ele>
        <time>2011-10-02T12:18:14Z</time>
      </trkpt>
      <trkpt lat="43.4676" lon="2.63862">
        <ele>438.02</ele>
        <time>2011-10-02T12:18:21Z</time>
      </trkpt>
      <trkpt lat="43.46775" lon="2.63881">
        <ele>438.02</ele>
        <time>2011-10-02T12:18:36Z</time>
      </trkpt>
      <trkpt lat="43.46785" lon="2.63899">
        <ele>436.58</ele>
        <time>2011-10-02T12:18:49Z</time>
      </trkpt>
      <trkpt lat="43.46798" lon="2.63918">
        <ele>437.06</ele>
        <time>2011-10-02T12:19:05Z</time>
      </trkpt>
      <trkpt lat="43.46808" lon="2.63933">
        <ele>437.54</ele>
        <time>2011-10-02T12:19:17Z</time>
      </trkpt>
      <trkpt lat="43.46811" lon="2.63936">
        <ele>438.02</ele>
        <time>2011-10-02T12:19:20Z</time>
      </trkpt>
      <trkpt lat="43.46819" lon="2.63943">
        <ele>438.02</ele>
        <time>2011-10-02T12:19:27Z</time>
      </trkpt>
      <trkpt lat="43.46827" lon="2.63951">
        <ele>439.46</ele>
        <time>2011-10-02T12:19:35Z</time>
      </trkpt>
      <trkpt lat="43.46839" lon="2.63955">
        <ele>439.46</ele>
        <time>2011-10-02T12:19:45Z</time>
      </trkpt>
      <trkpt lat="43.46846" lon="2.6396">
        <ele>439.94</ele>
        <time>2011-10-02T12:19:51Z</time>
      </trkpt>
      <trkpt lat="43.4686" lon="2.63972">
        <ele>438.02</ele>
        <time>2011-10-02T12:20:05Z</time>
      </trkpt>
      <trkpt lat="43.46872" lon="2.63985">
        <ele>435.61</ele>
        <time>2011-10-02T12:20:19Z</time>
      </trkpt>
      <trkpt lat="43.46884" lon="2.64004">
        <ele>434.17</ele>
        <time>2011-10-02T12:20:34Z</time>
      </trkpt>
      <trkpt lat="43.46896" lon="2.64024">
        <ele>434.17</ele>
        <time>2011-10-02T12:20:49Z</time>
      </trkpt>
      <trkpt lat="43.46898" lon="2.64027">
        <ele>434.17</ele>
        <time>2011-10-02T12:20:51Z</time>
      </trkpt>
      <trkpt lat="43.46909" lon="2.64042">
        <ele>433.69</ele>
        <time>2011-10-02T12:21:05Z</time>
      </trkpt>
      <trkpt lat="43.46921" lon="2.64057">
        <ele>432.25</ele>
        <time>2011-10-02T12:21:18Z</time>
      </trkpt>
      <trkpt lat="43.46931" lon="2.64078">
        <ele>430.81</ele>
        <time>2011-10-02T12:21:34Z</time>
      </trkpt>
      <trkpt lat="43.4694" lon="2.64095">
        <ele>429.85</ele>
        <time>2011-10-02T12:21:48Z</time>
      </trkpt>
      <trkpt lat="43.46942" lon="2.64099">
        <ele>430.33</ele>
        <time>2011-10-02T12:21:51Z</time>
      </trkpt>
      <trkpt lat="43.46946" lon="2.64119">
        <ele>430.81</ele>
        <time>2011-10-02T12:22:05Z</time>
      </trkpt>
      <trkpt lat="43.46949" lon="2.64131">
        <ele>430.81</ele>
        <time>2011-10-02T12:22:12Z</time>
      </trkpt>
      <trkpt lat="43.46951" lon="2.64144">
        <ele>430.81</ele>
        <time>2011-10-02T12:22:20Z</time>
      </trkpt>
      <trkpt lat="43.4696" lon="2.64171">
        <ele>428.4</ele>
        <time>2011-10-02T12:22:37Z</time>
      </trkpt>
      <trkpt lat="43.46966" lon="2.64195">
        <ele>426.48</ele>
        <time>2011-10-02T12:22:51Z</time>
      </trkpt>
      <trkpt lat="43.46967" lon="2.64198">
        <ele>426</ele>
        <time>2011-10-02T12:22:53Z</time>
      </trkpt>
      <trkpt lat="43.46969" lon="2.64204">
        <ele>425.04</ele>
        <time>2011-10-02T12:22:57Z</time>
      </trkpt>
      <trkpt lat="43.4698" lon="2.64227">
        <ele>422.16</ele>
        <time>2011-10-02T12:23:13Z</time>
      </trkpt>
      <trkpt lat="43.46994" lon="2.64245">
        <ele>418.79</ele>
        <time>2011-10-02T12:23:28Z</time>
      </trkpt>
      <trkpt lat="43.46998" lon="2.6425">
        <ele>417.83</ele>
        <time>2011-10-02T12:23:33Z</time>
      </trkpt>
      <trkpt lat="43.47012" lon="2.64267">
        <ele>416.39</ele>
        <time>2011-10-02T12:23:47Z</time>
      </trkpt>
      <trkpt lat="43.47012" lon="2.64272">
        <ele>417.35</ele>
        <time>2011-10-02T12:23:49Z</time>
      </trkpt>
      <trkpt lat="43.47025" lon="2.64296">
        <ele>418.79</ele>
        <time>2011-10-02T12:24:06Z</time>
      </trkpt>
      <trkpt lat="43.47026" lon="2.643">
        <ele>420.23</ele>
        <time>2011-10-02T12:24:08Z</time>
      </trkpt>
      <trkpt lat="43.4704" lon="2.64319">
        <ele>421.19</ele>
        <time>2011-10-02T12:24:24Z</time>
      </trkpt>
      <trkpt lat="43.47061" lon="2.64321">
        <ele>424.56</ele>
        <time>2011-10-02T12:24:40Z</time>
      </trkpt>
      <trkpt lat="43.47069" lon="2.64323">
        <ele>426.48</ele>
        <time>2011-10-02T12:24:48Z</time>
      </trkpt>
      <trkpt lat="43.47088" lon="2.64306">
        <ele>426</ele>
        <time>2011-10-02T12:25:04Z</time>
      </trkpt>
      <trkpt lat="43.47104" lon="2.64294">
        <ele>426</ele>
        <time>2011-10-02T12:25:18Z</time>
      </trkpt>
      <trkpt lat="43.47125" lon="2.6428">
        <ele>426.96</ele>
        <time>2011-10-02T12:25:34Z</time>
      </trkpt>
      <trkpt lat="43.47143" lon="2.64263">
        <ele>427.44</ele>
        <time>2011-10-02T12:25:51Z</time>
      </trkpt>
      <trkpt lat="43.47161" lon="2.64248">
        <ele>426.96</ele>
        <time>2011-10-02T12:26:07Z</time>
      </trkpt>
      <trkpt lat="43.47181" lon="2.64231">
        <ele>426.48</ele>
        <time>2011-10-02T12:26:25Z</time>
      </trkpt>
      <trkpt lat="43.47196" lon="2.64213">
        <ele>426</ele>
        <time>2011-10-02T12:26:40Z</time>
      </trkpt>
      <trkpt lat="43.47205" lon="2.64204">
        <ele>424.56</ele>
        <time>2011-10-02T12:26:50Z</time>
      </trkpt>
      <trkpt lat="43.4722" lon="2.64185">
        <ele>424.56</ele>
        <time>2011-10-02T12:27:05Z</time>
      </trkpt>
      <trkpt lat="43.47236" lon="2.64165">
        <ele>426</ele>
        <time>2011-10-02T12:27:21Z</time>
      </trkpt>
      <trkpt lat="43.4725" lon="2.64148">
        <ele>424.56</ele>
        <time>2011-10-02T12:27:36Z</time>
      </trkpt>
      <trkpt lat="43.47269" lon="2.64131">
        <ele>422.16</ele>
        <time>2011-10-02T12:27:53Z</time>
      </trkpt>
      <trkpt lat="43.47283" lon="2.64117">
        <ele>422.64</ele>
        <time>2011-10-02T12:28:06Z</time>
      </trkpt>
      <trkpt lat="43.47297" lon="2.64103">
        <ele>423.12</ele>
        <time>2011-10-02T12:28:21Z</time>
      </trkpt>
      <trkpt lat="43.47311" lon="2.6409">
        <ele>421.68</ele>
        <time>2011-10-02T12:28:36Z</time>
      </trkpt>
      <trkpt lat="43.47326" lon="2.64076">
        <ele>417.83</ele>
        <time>2011-10-02T12:28:50Z</time>
      </trkpt>
      <trkpt lat="43.47342" lon="2.64069">
        <ele>412.54</ele>
        <time>2011-10-02T12:29:04Z</time>
      </trkpt>
      <trkpt lat="43.47358" lon="2.64066">
        <ele>413.5</ele>
        <time>2011-10-02T12:29:19Z</time>
      </trkpt>
      <trkpt lat="43.4737" lon="2.64063">
        <ele>411.1</ele>
        <time>2011-10-02T12:29:31Z</time>
      </trkpt>
      <trkpt lat="43.47378" lon="2.64046">
        <ele>407.26</ele>
        <time>2011-10-02T12:29:44Z</time>
      </trkpt>
      <trkpt lat="43.47382" lon="2.64023">
        <ele>404.85</ele>
        <time>2011-10-02T12:30:02Z</time>
      </trkpt>
      <trkpt lat="43.47382" lon="2.6402">
        <ele>404.37</ele>
        <time>2011-10-02T12:30:05Z</time>
      </trkpt>
      <trkpt lat="43.47384" lon="2.64015">
        <ele>404.37</ele>
        <time>2011-10-02T12:30:08Z</time>
      </trkpt>
      <trkpt lat="43.47386" lon="2.63999">
        <ele>402.45</ele>
        <time>2011-10-02T12:30:19Z</time>
      </trkpt>
      <trkpt lat="43.47386" lon="2.63983">
        <ele>402.45</ele>
        <time>2011-10-02T12:30:29Z</time>
      </trkpt>
      <trkpt lat="43.47387" lon="2.63953">
        <ele>402.93</ele>
        <time>2011-10-02T12:30:48Z</time>
      </trkpt>
      <trkpt lat="43.47388" lon="2.63951">
        <ele>402.93</ele>
        <time>2011-10-02T12:30:50Z</time>
      </trkpt>
      <trkpt lat="43.47393" lon="2.6395">
        <ele>402.93</ele>
        <time>2011-10-02T12:30:54Z</time>
      </trkpt>
      <trkpt lat="43.4741" lon="2.63961">
        <ele>402.93</ele>
        <time>2011-10-02T12:31:09Z</time>
      </trkpt>
      <trkpt lat="43.47429" lon="2.63969">
        <ele>400.53</ele>
        <time>2011-10-02T12:31:24Z</time>
      </trkpt>
      <trkpt lat="43.47444" lon="2.63975">
        <ele>398.12</ele>
        <time>2011-10-02T12:31:37Z</time>
      </trkpt>
      <trkpt lat="43.47462" lon="2.6398">
        <ele>395.24</ele>
        <time>2011-10-02T12:31:52Z</time>
      </trkpt>
      <trkpt lat="43.47477" lon="2.63985">
        <ele>389.47</ele>
        <time>2011-10-02T12:32:07Z</time>
      </trkpt>
      <trkpt lat="43.47496" lon="2.63996">
        <ele>383.22</ele>
        <time>2011-10-02T12:32:24Z</time>
      </trkpt>
      <trkpt lat="43.4751" lon="2.64001">
        <ele>384.18</ele>
        <time>2011-10-02T12:32:34Z</time>
      </trkpt>
      <trkpt lat="43.47514" lon="2.64002">
        <ele>383.7</ele>
        <time>2011-10-02T12:32:37Z</time>
      </trkpt>
      <trkpt lat="43.47531" lon="2.63998">
        <ele>382.74</ele>
        <time>2011-10-02T12:32:53Z</time>
      </trkpt>
      <trkpt lat="43.47545" lon="2.63978">
        <ele>380.82</ele>
        <time>2011-10-02T12:33:09Z</time>
      </trkpt>
      <trkpt lat="43.47561" lon="2.63963">
        <ele>378.42</ele>
        <time>2011-10-02T12:33:24Z</time>
      </trkpt>
      <trkpt lat="43.47583" lon="2.6395">
        <ele>386.11</ele>
        <time>2011-10-02T12:33:40Z</time>
      </trkpt>
      <trkpt lat="43.47599" lon="2.63939">
        <ele>387.55</ele>
        <time>2011-10-02T12:33:55Z</time>
      </trkpt>
      <trkpt lat="43.4761" lon="2.63932">
        <ele>388.03</ele>
        <time>2011-10-02T12:34:08Z</time>
      </trkpt>
      <trkpt lat="43.47627" lon="2.63927">
        <ele>389.95</ele>
        <time>2011-10-02T12:34:23Z</time>
      </trkpt>
      <trkpt lat="43.4763" lon="2.63929">
        <ele>391.87</ele>
        <time>2011-10-02T12:34:33Z</time>
      </trkpt>
      <trkpt lat="43.4763" lon="2.63942">
        <ele>393.32</ele>
        <time>2011-10-02T12:34:43Z</time>
      </trkpt>
      <trkpt lat="43.4763" lon="2.63949">
        <ele>392.84</ele>
        <time>2011-10-02T12:34:48Z</time>
      </trkpt>
      <trkpt lat="43.47631" lon="2.63953">
        <ele>392.84</ele>
        <time>2011-10-02T12:34:51Z</time>
      </trkpt>
      <trkpt lat="43.47639" lon="2.63961">
        <ele>392.36</ele>
        <time>2011-10-02T12:34:58Z</time>
      </trkpt>
      <trkpt lat="43.47641" lon="2.63964">
        <ele>392.36</ele>
        <time>2011-10-02T12:35:00Z</time>
      </trkpt>
      <trkpt lat="43.47645" lon="2.63976">
        <ele>391.87</ele>
        <time>2011-10-02T12:35:16Z</time>
      </trkpt>
      <trkpt lat="43.47645" lon="2.63976">
        <ele>391.87</ele>
        <time>2011-10-02T12:35:42Z</time>
      </trkpt>
      <trkpt lat="43.47645" lon="2.63975">
        <ele>391.87</ele>
        <time>2011-10-02T12:36:53Z</time>
      </trkpt>
      <trkpt lat="43.47645" lon="2.63977">
        <ele>391.87</ele>
        <time>2011-10-02T12:37:37Z</time>
      </trkpt>
      <trkpt lat="43.47644" lon="2.63986">
        <ele>392.36</ele>
        <time>2011-10-02T12:37:42Z</time>
      </trkpt>
      <trkpt lat="43.47644" lon="2.63993">
        <ele>391.87</ele>
        <time>2011-10-02T12:37:48Z</time>
      </trkpt>
      <trkpt lat="43.47644" lon="2.6401">
        <ele>390.91</ele>
        <time>2011-10-02T12:38:00Z</time>
      </trkpt>
      <trkpt lat="43.4764" lon="2.64014">
        <ele>391.87</ele>
        <time>2011-10-02T12:38:04Z</time>
      </trkpt>
      <trkpt lat="43.47643" lon="2.6404">
        <ele>394.28</ele>
        <time>2011-10-02T12:38:20Z</time>
      </trkpt>
      <trkpt lat="43.47643" lon="2.64043">
        <ele>394.76</ele>
        <time>2011-10-02T12:38:22Z</time>
      </trkpt>
      <trkpt lat="43.47642" lon="2.64071">
        <ele>393.8</ele>
        <time>2011-10-02T12:38:38Z</time>
      </trkpt>
      <trkpt lat="43.47642" lon="2.64072">
        <ele>393.32</ele>
        <time>2011-10-02T12:38:39Z</time>
      </trkpt>
      <trkpt lat="43.4764" lon="2.64081">
        <ele>393.32</ele>
        <time>2011-10-02T12:38:46Z</time>
      </trkpt>
      <trkpt lat="43.47641" lon="2.64085">
        <ele>393.32</ele>
        <time>2011-10-02T12:38:58Z</time>
      </trkpt>
      <trkpt lat="43.47631" lon="2.64108">
        <ele>392.36</ele>
        <time>2011-10-02T12:39:16Z</time>
      </trkpt>
      <trkpt lat="43.47624" lon="2.64124">
        <ele>392.36</ele>
        <time>2011-10-02T12:39:30Z</time>
      </trkpt>
      <trkpt lat="43.47615" lon="2.64142">
        <ele>393.8</ele>
        <time>2011-10-02T12:39:44Z</time>
      </trkpt>
      <trkpt lat="43.47606" lon="2.64156">
        <ele>395.72</ele>
        <time>2011-10-02T12:39:58Z</time>
      </trkpt>
      <trkpt lat="43.47605" lon="2.64157">
        <ele>395.72</ele>
        <time>2011-10-02T12:40:00Z</time>
      </trkpt>
      <trkpt lat="43.47605" lon="2.64161">
        <ele>396.2</ele>
        <time>2011-10-02T12:40:02Z</time>
      </trkpt>
      <trkpt lat="43.47609" lon="2.64192">
        <ele>397.16</ele>
        <time>2011-10-02T12:40:18Z</time>
      </trkpt>
      <trkpt lat="43.47608" lon="2.64222">
        <ele>400.05</ele>
        <time>2011-10-02T12:40:33Z</time>
      </trkpt>
      <trkpt lat="43.47605" lon="2.64224">
        <ele>401.01</ele>
        <time>2011-10-02T12:40:36Z</time>
      </trkpt>
      <trkpt lat="43.47604" lon="2.64229">
        <ele>401.49</ele>
        <time>2011-10-02T12:40:40Z</time>
      </trkpt>
      <trkpt lat="43.47595" lon="2.64249">
        <ele>401.01</ele>
        <time>2011-10-02T12:40:56Z</time>
      </trkpt>
      <trkpt lat="43.47589" lon="2.64278">
        <ele>401.97</ele>
        <time>2011-10-02T12:41:14Z</time>
      </trkpt>
      <trkpt lat="43.47585" lon="2.64291">
        <ele>402.93</ele>
        <time>2011-10-02T12:41:22Z</time>
      </trkpt>
      <trkpt lat="43.47576" lon="2.64318">
        <ele>404.37</ele>
        <time>2011-10-02T12:41:38Z</time>
      </trkpt>
      <trkpt lat="43.47568" lon="2.64339">
        <ele>405.33</ele>
        <time>2011-10-02T12:41:53Z</time>
      </trkpt>
      <trkpt lat="43.47566" lon="2.64342">
        <ele>405.81</ele>
        <time>2011-10-02T12:41:55Z</time>
      </trkpt>
      <trkpt lat="43.47555" lon="2.64367">
        <ele>406.29</ele>
        <time>2011-10-02T12:42:13Z</time>
      </trkpt>
      <trkpt lat="43.47555" lon="2.64369">
        <ele>406.77</ele>
        <time>2011-10-02T12:42:14Z</time>
      </trkpt>
      <trkpt lat="43.4755" lon="2.64379">
        <ele>407.74</ele>
        <time>2011-10-02T12:42:21Z</time>
      </trkpt>
      <trkpt lat="43.47544" lon="2.64387">
        <ele>409.18</ele>
        <time>2011-10-02T12:42:28Z</time>
      </trkpt>
      <trkpt lat="43.47536" lon="2.64413">
        <ele>411.58</ele>
        <time>2011-10-02T12:42:44Z</time>
      </trkpt>
      <trkpt lat="43.4753" lon="2.64443">
        <ele>412.06</ele>
        <time>2011-10-02T12:43:01Z</time>
      </trkpt>
      <trkpt lat="43.47522" lon="2.64469">
        <ele>412.54</ele>
        <time>2011-10-02T12:43:17Z</time>
      </trkpt>
      <trkpt lat="43.47522" lon="2.64498">
        <ele>412.06</ele>
        <time>2011-10-02T12:43:34Z</time>
      </trkpt>
      <trkpt lat="43.47525" lon="2.64528">
        <ele>412.06</ele>
        <time>2011-10-02T12:43:52Z</time>
      </trkpt>
      <trkpt lat="43.47532" lon="2.64553">
        <ele>412.06</ele>
        <time>2011-10-02T12:44:07Z</time>
      </trkpt>
      <trkpt lat="43.47538" lon="2.64574">
        <ele>410.62</ele>
        <time>2011-10-02T12:44:20Z</time>
      </trkpt>
      <trkpt lat="43.47542" lon="2.64579">
        <ele>410.62</ele>
        <time>2011-10-02T12:44:25Z</time>
      </trkpt>
      <trkpt lat="43.47547" lon="2.64592">
        <ele>409.66</ele>
        <time>2011-10-02T12:44:32Z</time>
      </trkpt>
      <trkpt lat="43.47554" lon="2.64611">
        <ele>407.74</ele>
        <time>2011-10-02T12:44:44Z</time>
      </trkpt>
      <trkpt lat="43.47563" lon="2.64632">
        <ele>406.29</ele>
        <time>2011-10-02T12:44:59Z</time>
      </trkpt>
      <trkpt lat="43.47574" lon="2.64657">
        <ele>408.22</ele>
        <time>2011-10-02T12:45:14Z</time>
      </trkpt>
      <trkpt lat="43.47583" lon="2.64684">
        <ele>408.7</ele>
        <time>2011-10-02T12:45:30Z</time>
      </trkpt>
      <trkpt lat="43.47587" lon="2.64697">
        <ele>409.18</ele>
        <time>2011-10-02T12:45:38Z</time>
      </trkpt>
      <trkpt lat="43.47584" lon="2.64723">
        <ele>408.22</ele>
        <time>2011-10-02T12:45:54Z</time>
      </trkpt>
      <trkpt lat="43.47577" lon="2.64751">
        <ele>406.29</ele>
        <time>2011-10-02T12:46:10Z</time>
      </trkpt>
      <trkpt lat="43.47568" lon="2.64777">
        <ele>409.66</ele>
        <time>2011-10-02T12:46:26Z</time>
      </trkpt>
      <trkpt lat="43.4756" lon="2.64802">
        <ele>410.14</ele>
        <time>2011-10-02T12:46:41Z</time>
      </trkpt>
      <trkpt lat="43.47556" lon="2.64833">
        <ele>411.1</ele>
        <time>2011-10-02T12:46:57Z</time>
      </trkpt>
      <trkpt lat="43.47551" lon="2.64862">
        <ele>413.02</ele>
        <time>2011-10-02T12:47:13Z</time>
      </trkpt>
      <trkpt lat="43.47547" lon="2.64887">
        <ele>411.58</ele>
        <time>2011-10-02T12:47:29Z</time>
      </trkpt>
      <trkpt lat="43.47545" lon="2.64914">
        <ele>413.02</ele>
        <time>2011-10-02T12:47:44Z</time>
      </trkpt>
      <trkpt lat="43.47541" lon="2.64928">
        <ele>414.95</ele>
        <time>2011-10-02T12:47:52Z</time>
      </trkpt>
      <trkpt lat="43.47538" lon="2.64936">
        <ele>416.87</ele>
        <time>2011-10-02T12:47:57Z</time>
      </trkpt>
      <trkpt lat="43.47538" lon="2.64939">
        <ele>417.35</ele>
        <time>2011-10-02T12:47:59Z</time>
      </trkpt>
      <trkpt lat="43.47534" lon="2.64962">
        <ele>419.27</ele>
        <time>2011-10-02T12:48:15Z</time>
      </trkpt>
      <trkpt lat="43.47531" lon="2.64987">
        <ele>422.64</ele>
        <time>2011-10-02T12:48:32Z</time>
      </trkpt>
      <trkpt lat="43.47528" lon="2.65011">
        <ele>424.08</ele>
        <time>2011-10-02T12:48:47Z</time>
      </trkpt>
      <trkpt lat="43.47529" lon="2.65022">
        <ele>424.08</ele>
        <time>2011-10-02T12:48:57Z</time>
      </trkpt>
      <trkpt lat="43.47535" lon="2.65024">
        <ele>424.56</ele>
        <time>2011-10-02T12:49:03Z</time>
      </trkpt>
      <trkpt lat="43.47547" lon="2.65015">
        <ele>426</ele>
        <time>2011-10-02T12:49:15Z</time>
      </trkpt>
      <trkpt lat="43.47551" lon="2.65013">
        <ele>426.48</ele>
        <time>2011-10-02T12:49:19Z</time>
      </trkpt>
      <trkpt lat="43.47551" lon="2.65011">
        <ele>426.96</ele>
        <time>2011-10-02T12:49:24Z</time>
      </trkpt>
      <trkpt lat="43.47568" lon="2.65005">
        <ele>429.37</ele>
        <time>2011-10-02T12:49:39Z</time>
      </trkpt>
      <trkpt lat="43.47575" lon="2.65007">
        <ele>429.37</ele>
        <time>2011-10-02T12:49:52Z</time>
      </trkpt>
      <trkpt lat="43.47589" lon="2.65016">
        <ele>428.4</ele>
        <time>2011-10-02T12:50:05Z</time>
      </trkpt>
      <trkpt lat="43.47603" lon="2.65027">
        <ele>428.4</ele>
        <time>2011-10-02T12:50:21Z</time>
      </trkpt>
      <trkpt lat="43.47621" lon="2.65043">
        <ele>428.89</ele>
        <time>2011-10-02T12:50:38Z</time>
      </trkpt>
      <trkpt lat="43.47636" lon="2.65053">
        <ele>430.33</ele>
        <time>2011-10-02T12:50:52Z</time>
      </trkpt>
      <trkpt lat="43.47652" lon="2.65054">
        <ele>429.37</ele>
        <time>2011-10-02T12:51:07Z</time>
      </trkpt>
      <trkpt lat="43.47652" lon="2.65054">
        <ele>429.37</ele>
        <time>2011-10-02T12:51:08Z</time>
      </trkpt>
      <trkpt lat="43.4767" lon="2.65046">
        <ele>429.85</ele>
        <time>2011-10-02T12:51:23Z</time>
      </trkpt>
      <trkpt lat="43.47685" lon="2.65036">
        <ele>432.73</ele>
        <time>2011-10-02T12:51:39Z</time>
      </trkpt>
      <trkpt lat="43.47701" lon="2.6503">
        <ele>435.13</ele>
        <time>2011-10-02T12:51:52Z</time>
      </trkpt>
      <trkpt lat="43.47717" lon="2.65027">
        <ele>438.5</ele>
        <time>2011-10-02T12:52:07Z</time>
      </trkpt>
      <trkpt lat="43.47727" lon="2.65028">
        <ele>441.86</ele>
        <time>2011-10-02T12:52:23Z</time>
      </trkpt>
      <trkpt lat="43.47727" lon="2.65028">
        <ele>441.86</ele>
        <time>2011-10-02T12:53:06Z</time>
      </trkpt>
      <trkpt lat="43.47724" lon="2.65031">
        <ele>442.34</ele>
        <time>2011-10-02T12:54:43Z</time>
      </trkpt>
      <trkpt lat="43.47722" lon="2.65032">
        <ele>442.34</ele>
        <time>2011-10-02T12:54:45Z</time>
      </trkpt>
      <trkpt lat="43.47713" lon="2.6505">
        <ele>445.71</ele>
        <time>2011-10-02T12:55:02Z</time>
      </trkpt>
      <trkpt lat="43.4771" lon="2.65058">
        <ele>447.15</ele>
        <time>2011-10-02T12:55:10Z</time>
      </trkpt>
      <trkpt lat="43.47706" lon="2.65077">
        <ele>448.59</ele>
        <time>2011-10-02T12:55:27Z</time>
      </trkpt>
      <trkpt lat="43.47706" lon="2.65082">
        <ele>448.59</ele>
        <time>2011-10-02T12:55:37Z</time>
      </trkpt>
      <trkpt lat="43.47706" lon="2.65093">
        <ele>449.07</ele>
        <time>2011-10-02T12:55:44Z</time>
      </trkpt>
      <trkpt lat="43.47706" lon="2.65097">
        <ele>449.07</ele>
        <time>2011-10-02T12:55:47Z</time>
      </trkpt>
      <trkpt lat="43.47706" lon="2.65104">
        <ele>449.07</ele>
        <time>2011-10-02T12:55:51Z</time>
      </trkpt>
      <trkpt lat="43.47712" lon="2.65129">
        <ele>452.44</ele>
        <time>2011-10-02T12:56:08Z</time>
      </trkpt>
      <trkpt lat="43.47721" lon="2.65145">
        <ele>453.88</ele>
        <time>2011-10-02T12:56:21Z</time>
      </trkpt>
      <trkpt lat="43.47722" lon="2.65148">
        <ele>453.88</ele>
        <time>2011-10-02T12:56:24Z</time>
      </trkpt>
      <trkpt lat="43.47728" lon="2.65161">
        <ele>455.32</ele>
        <time>2011-10-02T12:56:34Z</time>
      </trkpt>
      <trkpt lat="43.47735" lon="2.65177">
        <ele>456.28</ele>
        <time>2011-10-02T12:56:48Z</time>
      </trkpt>
      <trkpt lat="43.47736" lon="2.65181">
        <ele>456.28</ele>
        <time>2011-10-02T12:56:51Z</time>
      </trkpt>
      <trkpt lat="43.47747" lon="2.65194">
        <ele>458.21</ele>
        <time>2011-10-02T12:57:05Z</time>
      </trkpt>
      <trkpt lat="43.47759" lon="2.65202">
        <ele>461.57</ele>
        <time>2011-10-02T12:57:19Z</time>
      </trkpt>
      <trkpt lat="43.47759" lon="2.65202">
        <ele>462.05</ele>
        <time>2011-10-02T12:57:20Z</time>
      </trkpt>
      <trkpt lat="43.4777" lon="2.65208">
        <ele>463.97</ele>
        <time>2011-10-02T12:57:34Z</time>
      </trkpt>
      <trkpt lat="43.4778" lon="2.65211">
        <ele>465.42</ele>
        <time>2011-10-02T12:57:47Z</time>
      </trkpt>
      <trkpt lat="43.47786" lon="2.65211">
        <ele>466.86</ele>
        <time>2011-10-02T12:57:54Z</time>
      </trkpt>
      <trkpt lat="43.47788" lon="2.6521">
        <ele>467.34</ele>
        <time>2011-10-02T12:57:56Z</time>
      </trkpt>
      <trkpt lat="43.47801" lon="2.6521">
        <ele>469.74</ele>
        <time>2011-10-02T12:58:11Z</time>
      </trkpt>
      <trkpt lat="43.47807" lon="2.65209">
        <ele>471.18</ele>
        <time>2011-10-02T12:58:17Z</time>
      </trkpt>
      <trkpt lat="43.47817" lon="2.65207">
        <ele>475.51</ele>
        <time>2011-10-02T12:58:31Z</time>
      </trkpt>
      <trkpt lat="43.47831" lon="2.65203">
        <ele>479.35</ele>
        <time>2011-10-02T12:58:47Z</time>
      </trkpt>
      <trkpt lat="43.47841" lon="2.65202">
        <ele>482.24</ele>
        <time>2011-10-02T12:59:00Z</time>
      </trkpt>
      <trkpt lat="43.47851" lon="2.65204">
        <ele>483.68</ele>
        <time>2011-10-02T12:59:14Z</time>
      </trkpt>
      <trkpt lat="43.47864" lon="2.65208">
        <ele>485.6</ele>
        <time>2011-10-02T12:59:28Z</time>
      </trkpt>
      <trkpt lat="43.47883" lon="2.65213">
        <ele>488.49</ele>
        <time>2011-10-02T12:59:45Z</time>
      </trkpt>
      <trkpt lat="43.47901" lon="2.65218">
        <ele>488.97</ele>
        <time>2011-10-02T13:00:00Z</time>
      </trkpt>
      <trkpt lat="43.47917" lon="2.65223">
        <ele>488.97</ele>
        <time>2011-10-02T13:00:14Z</time>
      </trkpt>
      <trkpt lat="43.47933" lon="2.65226">
        <ele>487.53</ele>
        <time>2011-10-02T13:00:29Z</time>
      </trkpt>
      <trkpt lat="43.47948" lon="2.65229">
        <ele>488.01</ele>
        <time>2011-10-02T13:00:44Z</time>
      </trkpt>
      <trkpt lat="43.47959" lon="2.65233">
        <ele>489.45</ele>
        <time>2011-10-02T13:00:54Z</time>
      </trkpt>
      <trkpt lat="43.47961" lon="2.65233">
        <ele>489.93</ele>
        <time>2011-10-02T13:00:56Z</time>
      </trkpt>
      <trkpt lat="43.47975" lon="2.6524">
        <ele>495.22</ele>
        <time>2011-10-02T13:01:12Z</time>
      </trkpt>
      <trkpt lat="43.47988" lon="2.65248">
        <ele>498.58</ele>
        <time>2011-10-02T13:01:27Z</time>
      </trkpt>
      <trkpt lat="43.47996" lon="2.65255">
        <ele>500.5</ele>
        <time>2011-10-02T13:01:36Z</time>
      </trkpt>
      <trkpt lat="43.4801" lon="2.65267">
        <ele>502.91</ele>
        <time>2011-10-02T13:01:52Z</time>
      </trkpt>
      <trkpt lat="43.48015" lon="2.65271">
        <ele>503.39</ele>
        <time>2011-10-02T13:01:57Z</time>
      </trkpt>
      <trkpt lat="43.4803" lon="2.65286">
        <ele>504.83</ele>
        <time>2011-10-02T13:02:15Z</time>
      </trkpt>
      <trkpt lat="43.48041" lon="2.653">
        <ele>507.71</ele>
        <time>2011-10-02T13:02:30Z</time>
      </trkpt>
      <trkpt lat="43.48053" lon="2.65318">
        <ele>509.64</ele>
        <time>2011-10-02T13:02:47Z</time>
      </trkpt>
      <trkpt lat="43.48063" lon="2.65334">
        <ele>511.08</ele>
        <time>2011-10-02T13:03:02Z</time>
      </trkpt>
      <trkpt lat="43.48074" lon="2.65353">
        <ele>512.52</ele>
        <time>2011-10-02T13:03:18Z</time>
      </trkpt>
      <trkpt lat="43.48086" lon="2.65373">
        <ele>513.96</ele>
        <time>2011-10-02T13:03:34Z</time>
      </trkpt>
      <trkpt lat="43.48089" lon="2.65379">
        <ele>514.44</ele>
        <time>2011-10-02T13:03:51Z</time>
      </trkpt>
      <trkpt lat="43.48093" lon="2.65387">
        <ele>513.96</ele>
        <time>2011-10-02T13:04:09Z</time>
      </trkpt>
      <trkpt lat="43.48104" lon="2.65407">
        <ele>515.88</ele>
        <time>2011-10-02T13:04:26Z</time>
      </trkpt>
      <trkpt lat="43.48118" lon="2.65425">
        <ele>516.37</ele>
        <time>2011-10-02T13:04:42Z</time>
      </trkpt>
      <trkpt lat="43.48128" lon="2.65438">
        <ele>517.33</ele>
        <time>2011-10-02T13:04:55Z</time>
      </trkpt>
      <trkpt lat="43.48133" lon="2.65442">
        <ele>518.29</ele>
        <time>2011-10-02T13:05:00Z</time>
      </trkpt>
      <trkpt lat="43.48146" lon="2.65459">
        <ele>518.29</ele>
        <time>2011-10-02T13:05:18Z</time>
      </trkpt>
      <trkpt lat="43.48154" lon="2.65472">
        <ele>518.29</ele>
        <time>2011-10-02T13:05:31Z</time>
      </trkpt>
      <trkpt lat="43.48165" lon="2.65492">
        <ele>520.69</ele>
        <time>2011-10-02T13:05:46Z</time>
      </trkpt>
      <trkpt lat="43.4818" lon="2.65514">
        <ele>520.69</ele>
        <time>2011-10-02T13:06:05Z</time>
      </trkpt>
      <trkpt lat="43.48191" lon="2.65532">
        <ele>522.13</ele>
        <time>2011-10-02T13:06:19Z</time>
      </trkpt>
      <trkpt lat="43.48193" lon="2.65537">
        <ele>522.61</ele>
        <time>2011-10-02T13:06:36Z</time>
      </trkpt>
      <trkpt lat="43.48193" lon="2.65537">
        <ele>522.61</ele>
        <time>2011-10-02T13:07:22Z</time>
      </trkpt>
      <trkpt lat="43.48199" lon="2.65548">
        <ele>524.06</ele>
        <time>2011-10-02T13:09:35Z</time>
      </trkpt>
      <trkpt lat="43.4821" lon="2.65567">
        <ele>525.5</ele>
        <time>2011-10-02T13:09:51Z</time>
      </trkpt>
      <trkpt lat="43.48217" lon="2.65583">
        <ele>526.94</ele>
        <time>2011-10-02T13:10:05Z</time>
      </trkpt>
      <trkpt lat="43.48222" lon="2.65596">
        <ele>530.3</ele>
        <time>2011-10-02T13:10:18Z</time>
      </trkpt>
      <trkpt lat="43.48227" lon="2.65614">
        <ele>535.59</ele>
        <time>2011-10-02T13:10:33Z</time>
      </trkpt>
      <trkpt lat="43.48236" lon="2.65631">
        <ele>538.48</ele>
        <time>2011-10-02T13:10:48Z</time>
      </trkpt>
      <trkpt lat="43.48245" lon="2.65638">
        <ele>541.84</ele>
        <time>2011-10-02T13:11:01Z</time>
      </trkpt>
      <trkpt lat="43.48249" lon="2.65643">
        <ele>544.24</ele>
        <time>2011-10-02T13:11:14Z</time>
      </trkpt>
      <trkpt lat="43.48253" lon="2.65651">
        <ele>546.65</ele>
        <time>2011-10-02T13:11:27Z</time>
      </trkpt>
      <trkpt lat="43.48257" lon="2.65666">
        <ele>549.53</ele>
        <time>2011-10-02T13:11:42Z</time>
      </trkpt>
      <trkpt lat="43.48259" lon="2.65669">
        <ele>550.01</ele>
        <time>2011-10-02T13:11:45Z</time>
      </trkpt>
      <trkpt lat="43.48262" lon="2.65677">
        <ele>550.97</ele>
        <time>2011-10-02T13:11:52Z</time>
      </trkpt>
      <trkpt lat="43.48265" lon="2.65683">
        <ele>551.93</ele>
        <time>2011-10-02T13:12:09Z</time>
      </trkpt>
      <trkpt lat="43.48271" lon="2.65688">
        <ele>550.49</ele>
        <time>2011-10-02T13:12:23Z</time>
      </trkpt>
      <trkpt lat="43.48273" lon="2.6569">
        <ele>550.49</ele>
        <time>2011-10-02T13:12:25Z</time>
      </trkpt>
      <trkpt lat="43.48281" lon="2.65696">
        <ele>552.41</ele>
        <time>2011-10-02T13:12:33Z</time>
      </trkpt>
      <trkpt lat="43.48288" lon="2.65706">
        <ele>552.41</ele>
        <time>2011-10-02T13:12:49Z</time>
      </trkpt>
      <trkpt lat="43.48289" lon="2.65708">
        <ele>552.9</ele>
        <time>2011-10-02T13:12:52Z</time>
      </trkpt>
      <trkpt lat="43.48292" lon="2.65724">
        <ele>554.82</ele>
        <time>2011-10-02T13:13:09Z</time>
      </trkpt>
      <trkpt lat="43.48298" lon="2.65741">
        <ele>562.51</ele>
        <time>2011-10-02T13:13:28Z</time>
      </trkpt>
      <trkpt lat="43.48302" lon="2.65752">
        <ele>568.28</ele>
        <time>2011-10-02T13:13:44Z</time>
      </trkpt>
      <trkpt lat="43.48305" lon="2.65762">
        <ele>570.68</ele>
        <time>2011-10-02T13:13:57Z</time>
      </trkpt>
      <trkpt lat="43.48307" lon="2.65767">
        <ele>573.08</ele>
        <time>2011-10-02T13:14:05Z</time>
      </trkpt>
      <trkpt lat="43.48312" lon="2.6578">
        <ele>575.97</ele>
        <time>2011-10-02T13:14:21Z</time>
      </trkpt>
      <trkpt lat="43.48316" lon="2.65785">
        <ele>577.89</ele>
        <time>2011-10-02T13:14:36Z</time>
      </trkpt>
      <trkpt lat="43.48316" lon="2.65786">
        <ele>577.89</ele>
        <time>2011-10-02T13:15:14Z</time>
      </trkpt>
      <trkpt lat="43.48318" lon="2.65784">
        <ele>577.89</ele>
        <time>2011-10-02T13:17:52Z</time>
      </trkpt>
      <trkpt lat="43.48318" lon="2.65785">
        <ele>578.85</ele>
        <time>2011-10-02T13:19:40Z</time>
      </trkpt>
      <trkpt lat="43.48319" lon="2.65785">
        <ele>578.85</ele>
        <time>2011-10-02T13:21:21Z</time>
      </trkpt>
      <trkpt lat="43.48318" lon="2.65786">
        <ele>579.33</ele>
        <time>2011-10-02T13:22:54Z</time>
      </trkpt>
      <trkpt lat="43.48318" lon="2.65785">
        <ele>580.29</ele>
        <time>2011-10-02T13:24:03Z</time>
      </trkpt>
      <trkpt lat="43.48317" lon="2.65784">
        <ele>581.25</ele>
        <time>2011-10-02T13:24:37Z</time>
      </trkpt>
      <trkpt lat="43.48316" lon="2.65786">
        <ele>581.73</ele>
        <time>2011-10-02T13:25:56Z</time>
      </trkpt>
      <trkpt lat="43.4832" lon="2.65784">
        <ele>584.62</ele>
        <time>2011-10-02T13:26:01Z</time>
      </trkpt>
      <trkpt lat="43.48321" lon="2.65784">
        <ele>585.58</ele>
        <time>2011-10-02T13:26:09Z</time>
      </trkpt>
      <trkpt lat="43.48335" lon="2.65791">
        <ele>591.35</ele>
        <time>2011-10-02T13:26:25Z</time>
      </trkpt>
      <trkpt lat="43.48349" lon="2.65796">
        <ele>594.23</ele>
        <time>2011-10-02T13:26:37Z</time>
      </trkpt>
      <trkpt lat="43.48363" lon="2.65809">
        <ele>597.12</ele>
        <time>2011-10-02T13:26:53Z</time>
      </trkpt>
      <trkpt lat="43.48378" lon="2.65819">
        <ele>593.75</ele>
        <time>2011-10-02T13:27:08Z</time>
      </trkpt>
      <trkpt lat="43.48393" lon="2.65829">
        <ele>590.39</ele>
        <time>2011-10-02T13:27:20Z</time>
      </trkpt>
      <trkpt lat="43.48409" lon="2.65838">
        <ele>585.1</ele>
        <time>2011-10-02T13:27:34Z</time>
      </trkpt>
      <trkpt lat="43.4843" lon="2.65855">
        <ele>580.77</ele>
        <time>2011-10-02T13:27:52Z</time>
      </trkpt>
      <trkpt lat="43.4844" lon="2.65869">
        <ele>581.25</ele>
        <time>2011-10-02T13:28:06Z</time>
      </trkpt>
      <trkpt lat="43.48457" lon="2.65883">
        <ele>570.68</ele>
        <time>2011-10-02T13:28:24Z</time>
      </trkpt>
      <trkpt lat="43.48469" lon="2.65891">
        <ele>564.43</ele>
        <time>2011-10-02T13:28:38Z</time>
      </trkpt>
      <trkpt lat="43.48476" lon="2.65893">
        <ele>562.03</ele>
        <time>2011-10-02T13:28:45Z</time>
      </trkpt>
      <trkpt lat="43.48481" lon="2.65895">
        <ele>560.59</ele>
        <time>2011-10-02T13:28:48Z</time>
      </trkpt>
      <trkpt lat="43.48499" lon="2.65909">
        <ele>563.95</ele>
        <time>2011-10-02T13:29:03Z</time>
      </trkpt>
      <trkpt lat="43.48507" lon="2.65916">
        <ele>564.43</ele>
        <time>2011-10-02T13:29:12Z</time>
      </trkpt>
      <trkpt lat="43.48515" lon="2.65938">
        <ele>566.35</ele>
        <time>2011-10-02T13:29:28Z</time>
      </trkpt>
      <trkpt lat="43.48525" lon="2.65957">
        <ele>567.32</ele>
        <time>2011-10-02T13:29:41Z</time>
      </trkpt>
      <trkpt lat="43.48547" lon="2.65979">
        <ele>568.28</ele>
        <time>2011-10-02T13:29:58Z</time>
      </trkpt>
      <trkpt lat="43.48559" lon="2.65992">
        <ele>570.2</ele>
        <time>2011-10-02T13:30:12Z</time>
      </trkpt>
      <trkpt lat="43.48575" lon="2.66005">
        <ele>569.72</ele>
        <time>2011-10-02T13:30:26Z</time>
      </trkpt>
      <trkpt lat="43.48593" lon="2.66012">
        <ele>567.8</ele>
        <time>2011-10-02T13:30:39Z</time>
      </trkpt>
      <trkpt lat="43.4861" lon="2.66025">
        <ele>567.32</ele>
        <time>2011-10-02T13:30:54Z</time>
      </trkpt>
      <trkpt lat="43.4861" lon="2.66028">
        <ele>567.32</ele>
        <time>2011-10-02T13:30:56Z</time>
      </trkpt>
      <trkpt lat="43.48609" lon="2.66057">
        <ele>567.32</ele>
        <time>2011-10-02T13:31:13Z</time>
      </trkpt>
      <trkpt lat="43.48607" lon="2.66082">
        <ele>568.76</ele>
        <time>2011-10-02T13:31:27Z</time>
      </trkpt>
      <trkpt lat="43.48607" lon="2.66087">
        <ele>569.72</ele>
        <time>2011-10-02T13:31:30Z</time>
      </trkpt>
      <trkpt lat="43.48608" lon="2.66096">
        <ele>569.72</ele>
        <time>2011-10-02T13:31:35Z</time>
      </trkpt>
      <trkpt lat="43.48613" lon="2.6613">
        <ele>572.6</ele>
        <time>2011-10-02T13:31:54Z</time>
      </trkpt>
      <trkpt lat="43.48617" lon="2.6616">
        <ele>574.04</ele>
        <time>2011-10-02T13:32:11Z</time>
      </trkpt>
      <trkpt lat="43.48619" lon="2.6619">
        <ele>575.49</ele>
        <time>2011-10-02T13:32:28Z</time>
      </trkpt>
      <trkpt lat="43.48619" lon="2.66219">
        <ele>574.04</ele>
        <time>2011-10-02T13:32:45Z</time>
      </trkpt>
      <trkpt lat="43.48622" lon="2.66245">
        <ele>572.6</ele>
        <time>2011-10-02T13:33:00Z</time>
      </trkpt>
      <trkpt lat="43.48625" lon="2.66263">
        <ele>570.68</ele>
        <time>2011-10-02T13:33:10Z</time>
      </trkpt>
      <trkpt lat="43.4863" lon="2.66293">
        <ele>570.2</ele>
        <time>2011-10-02T13:33:27Z</time>
      </trkpt>
      <trkpt lat="43.48636" lon="2.66295">
        <ele>570.68</ele>
        <time>2011-10-02T13:33:34Z</time>
      </trkpt>
      <trkpt lat="43.48643" lon="2.66288">
        <ele>572.6</ele>
        <time>2011-10-02T13:33:44Z</time>
      </trkpt>
      <trkpt lat="43.48655" lon="2.66275">
        <ele>576.93</ele>
        <time>2011-10-02T13:33:59Z</time>
      </trkpt>
      <trkpt lat="43.48665" lon="2.66264">
        <ele>580.29</ele>
        <time>2011-10-02T13:34:14Z</time>
      </trkpt>
      <trkpt lat="43.48677" lon="2.66253">
        <ele>582.7</ele>
        <time>2011-10-02T13:34:27Z</time>
      </trkpt>
      <trkpt lat="43.48692" lon="2.66238">
        <ele>584.62</ele>
        <time>2011-10-02T13:34:42Z</time>
      </trkpt>
      <trkpt lat="43.48698" lon="2.66228">
        <ele>586.54</ele>
        <time>2011-10-02T13:34:50Z</time>
      </trkpt>
      <trkpt lat="43.4871" lon="2.66207">
        <ele>589.43</ele>
        <time>2011-10-02T13:35:07Z</time>
      </trkpt>
      <trkpt lat="43.48712" lon="2.66203">
        <ele>589.43</ele>
        <time>2011-10-02T13:35:11Z</time>
      </trkpt>
      <trkpt lat="43.48711" lon="2.66193">
        <ele>589.91</ele>
        <time>2011-10-02T13:35:19Z</time>
      </trkpt>
      <trkpt lat="43.48718" lon="2.66184">
        <ele>590.87</ele>
        <time>2011-10-02T13:35:32Z</time>
      </trkpt>
      <trkpt lat="43.48727" lon="2.66183">
        <ele>592.31</ele>
        <time>2011-10-02T13:35:38Z</time>
      </trkpt>
      <trkpt lat="43.48748" lon="2.6618">
        <ele>597.12</ele>
        <time>2011-10-02T13:35:52Z</time>
      </trkpt>
      <trkpt lat="43.48767" lon="2.66175">
        <ele>599.52</ele>
        <time>2011-10-02T13:36:07Z</time>
      </trkpt>
      <trkpt lat="43.48775" lon="2.66171">
        <ele>600</ele>
        <time>2011-10-02T13:36:20Z</time>
      </trkpt>
      <trkpt lat="43.48777" lon="2.66189">
        <ele>599.52</ele>
        <time>2011-10-02T13:36:34Z</time>
      </trkpt>
      <trkpt lat="43.48776" lon="2.6622">
        <ele>600</ele>
        <time>2011-10-02T13:36:53Z</time>
      </trkpt>
      <trkpt lat="43.48777" lon="2.66225">
        <ele>600.96</ele>
        <time>2011-10-02T13:36:57Z</time>
      </trkpt>
      <trkpt lat="43.48782" lon="2.66247">
        <ele>603.85</ele>
        <time>2011-10-02T13:37:13Z</time>
      </trkpt>
      <trkpt lat="43.48783" lon="2.66248">
        <ele>604.33</ele>
        <time>2011-10-02T13:37:15Z</time>
      </trkpt>
      <trkpt lat="43.48791" lon="2.66272">
        <ele>606.25</ele>
        <time>2011-10-02T13:37:32Z</time>
      </trkpt>
      <trkpt lat="43.48795" lon="2.66289">
        <ele>607.69</ele>
        <time>2011-10-02T13:37:45Z</time>
      </trkpt>
      <trkpt lat="43.48806" lon="2.66305">
        <ele>611.54</ele>
        <time>2011-10-02T13:38:02Z</time>
      </trkpt>
      <trkpt lat="43.48819" lon="2.66309">
        <ele>614.42</ele>
        <time>2011-10-02T13:38:17Z</time>
      </trkpt>
      <trkpt lat="43.48828" lon="2.66318">
        <ele>618.75</ele>
        <time>2011-10-02T13:38:35Z</time>
      </trkpt>
      <trkpt lat="43.48836" lon="2.66324">
        <ele>619.71</ele>
        <time>2011-10-02T13:38:44Z</time>
      </trkpt>
      <trkpt lat="43.48845" lon="2.66332">
        <ele>622.11</ele>
        <time>2011-10-02T13:38:58Z</time>
      </trkpt>
      <trkpt lat="43.48853" lon="2.66334">
        <ele>622.11</ele>
        <time>2011-10-02T13:39:06Z</time>
      </trkpt>
      <trkpt lat="43.48862" lon="2.66337">
        <ele>622.11</ele>
        <time>2011-10-02T13:39:14Z</time>
      </trkpt>
      <trkpt lat="43.48881" lon="2.66337">
        <ele>627.88</ele>
        <time>2011-10-02T13:39:32Z</time>
      </trkpt>
      <trkpt lat="43.48893" lon="2.66332">
        <ele>629.8</ele>
        <time>2011-10-02T13:39:47Z</time>
      </trkpt>
      <trkpt lat="43.48902" lon="2.66324">
        <ele>630.76</ele>
        <time>2011-10-02T13:39:57Z</time>
      </trkpt>
      <trkpt lat="43.48909" lon="2.66317">
        <ele>632.2</ele>
        <time>2011-10-02T13:40:06Z</time>
      </trkpt>
      <trkpt lat="43.4892" lon="2.66312">
        <ele>632.68</ele>
        <time>2011-10-02T13:40:19Z</time>
      </trkpt>
      <trkpt lat="43.48927" lon="2.66308">
        <ele>634.61</ele>
        <time>2011-10-02T13:40:27Z</time>
      </trkpt>
      <trkpt lat="43.48948" lon="2.663">
        <ele>635.57</ele>
        <time>2011-10-02T13:40:45Z</time>
      </trkpt>
      <trkpt lat="43.48962" lon="2.66292">
        <ele>635.57</ele>
        <time>2011-10-02T13:40:59Z</time>
      </trkpt>
      <trkpt lat="43.48964" lon="2.66291">
        <ele>635.09</ele>
        <time>2011-10-02T13:41:02Z</time>
      </trkpt>
      <trkpt lat="43.48982" lon="2.66285">
        <ele>636.53</ele>
        <time>2011-10-02T13:41:18Z</time>
      </trkpt>
      <trkpt lat="43.48989" lon="2.66284">
        <ele>639.41</ele>
        <time>2011-10-02T13:41:25Z</time>
      </trkpt>
      <trkpt lat="43.49004" lon="2.66303">
        <ele>636.53</ele>
        <time>2011-10-02T13:41:41Z</time>
      </trkpt>
      <trkpt lat="43.49016" lon="2.6632">
        <ele>636.05</ele>
        <time>2011-10-02T13:41:57Z</time>
      </trkpt>
      <trkpt lat="43.49026" lon="2.66335">
        <ele>636.53</ele>
        <time>2011-10-02T13:42:11Z</time>
      </trkpt>
      <trkpt lat="43.49032" lon="2.66354">
        <ele>644.22</ele>
        <time>2011-10-02T13:42:25Z</time>
      </trkpt>
      <trkpt lat="43.49037" lon="2.66374">
        <ele>650.47</ele>
        <time>2011-10-02T13:42:39Z</time>
      </trkpt>
      <trkpt lat="43.49038" lon="2.66375">
        <ele>650.95</ele>
        <time>2011-10-02T13:42:40Z</time>
      </trkpt>
      <trkpt lat="43.49046" lon="2.66393">
        <ele>657.2</ele>
        <time>2011-10-02T13:42:58Z</time>
      </trkpt>
      <trkpt lat="43.49051" lon="2.66402">
        <ele>658.16</ele>
        <time>2011-10-02T13:43:05Z</time>
      </trkpt>
      <trkpt lat="43.49063" lon="2.6642">
        <ele>662.97</ele>
        <time>2011-10-02T13:43:21Z</time>
      </trkpt>
      <trkpt lat="43.49071" lon="2.66431">
        <ele>666.33</ele>
        <time>2011-10-02T13:43:33Z</time>
      </trkpt>
      <trkpt lat="43.49082" lon="2.66445">
        <ele>666.33</ele>
        <time>2011-10-02T13:43:48Z</time>
      </trkpt>
      <trkpt lat="43.49096" lon="2.66453">
        <ele>666.33</ele>
        <time>2011-10-02T13:44:02Z</time>
      </trkpt>
      <trkpt lat="43.49108" lon="2.66469">
        <ele>666.33</ele>
        <time>2011-10-02T13:44:17Z</time>
      </trkpt>
      <trkpt lat="43.49124" lon="2.66481">
        <ele>667.29</ele>
        <time>2011-10-02T13:44:33Z</time>
      </trkpt>
      <trkpt lat="43.49131" lon="2.66488">
        <ele>667.77</ele>
        <time>2011-10-02T13:44:41Z</time>
      </trkpt>
      <trkpt lat="43.49139" lon="2.66488">
        <ele>668.25</ele>
        <time>2011-10-02T13:44:48Z</time>
      </trkpt>
      <trkpt lat="43.49145" lon="2.66492">
        <ele>668.73</ele>
        <time>2011-10-02T13:44:54Z</time>
      </trkpt>
      <trkpt lat="43.49148" lon="2.66496">
        <ele>669.22</ele>
        <time>2011-10-02T13:44:58Z</time>
      </trkpt>
      <trkpt lat="43.49164" lon="2.66502">
        <ele>672.1</ele>
        <time>2011-10-02T13:45:14Z</time>
      </trkpt>
      <trkpt lat="43.49178" lon="2.66508">
        <ele>674.02</ele>
        <time>2011-10-02T13:45:28Z</time>
      </trkpt>
      <trkpt lat="43.49188" lon="2.66512">
        <ele>675.94</ele>
        <time>2011-10-02T13:45:40Z</time>
      </trkpt>
      <trkpt lat="43.49199" lon="2.66518">
        <ele>681.23</ele>
        <time>2011-10-02T13:45:54Z</time>
      </trkpt>
      <trkpt lat="43.49209" lon="2.66525">
        <ele>684.6</ele>
        <time>2011-10-02T13:46:08Z</time>
      </trkpt>
      <trkpt lat="43.49223" lon="2.66537">
        <ele>684.12</ele>
        <time>2011-10-02T13:46:22Z</time>
      </trkpt>
      <trkpt lat="43.49231" lon="2.66539">
        <ele>682.67</ele>
        <time>2011-10-02T13:46:40Z</time>
      </trkpt>
      <trkpt lat="43.49227" lon="2.66543">
        <ele>682.19</ele>
        <time>2011-10-02T13:47:45Z</time>
      </trkpt>
      <trkpt lat="43.49228" lon="2.66547">
        <ele>682.19</ele>
        <time>2011-10-02T13:47:49Z</time>
      </trkpt>
      <trkpt lat="43.49228" lon="2.66548">
        <ele>682.19</ele>
        <time>2011-10-02T13:49:18Z</time>
      </trkpt>
      <trkpt lat="43.49229" lon="2.66548">
        <ele>681.71</ele>
        <time>2011-10-02T13:51:09Z</time>
      </trkpt>
      <trkpt lat="43.49229" lon="2.66546">
        <ele>680.27</ele>
        <time>2011-10-02T13:52:31Z</time>
      </trkpt>
      <trkpt lat="43.49229" lon="2.66546">
        <ele>680.27</ele>
        <time>2011-10-02T13:54:33Z</time>
      </trkpt>
      <trkpt lat="43.49235" lon="2.66554">
        <ele>680.27</ele>
        <time>2011-10-02T13:55:18Z</time>
      </trkpt>
      <trkpt lat="43.49244" lon="2.66572">
        <ele>683.63</ele>
        <time>2011-10-02T13:55:37Z</time>
      </trkpt>
      <trkpt lat="43.49249" lon="2.66583">
        <ele>685.08</ele>
        <time>2011-10-02T13:55:50Z</time>
      </trkpt>
      <trkpt lat="43.49254" lon="2.66593">
        <ele>686.52</ele>
        <time>2011-10-02T13:55:57Z</time>
      </trkpt>
      <trkpt lat="43.49258" lon="2.66606">
        <ele>687.96</ele>
        <time>2011-10-02T13:56:06Z</time>
      </trkpt>
      <trkpt lat="43.49269" lon="2.66629">
        <ele>692.29</ele>
        <time>2011-10-02T13:56:22Z</time>
      </trkpt>
      <trkpt lat="43.49281" lon="2.66644">
        <ele>693.73</ele>
        <time>2011-10-02T13:56:36Z</time>
      </trkpt>
      <trkpt lat="43.49288" lon="2.66651">
        <ele>693.73</ele>
        <time>2011-10-02T13:56:44Z</time>
      </trkpt>
      <trkpt lat="43.49299" lon="2.66661">
        <ele>695.65</ele>
        <time>2011-10-02T13:56:58Z</time>
      </trkpt>
      <trkpt lat="43.49309" lon="2.66672">
        <ele>698.05</ele>
        <time>2011-10-02T13:57:10Z</time>
      </trkpt>
      <trkpt lat="43.49321" lon="2.66687">
        <ele>702.38</ele>
        <time>2011-10-02T13:57:27Z</time>
      </trkpt>
      <trkpt lat="43.4933" lon="2.66696">
        <ele>706.23</ele>
        <time>2011-10-02T13:57:40Z</time>
      </trkpt>
      <trkpt lat="43.49336" lon="2.66702">
        <ele>709.59</ele>
        <time>2011-10-02T13:57:54Z</time>
      </trkpt>
      <trkpt lat="43.49336" lon="2.66698">
        <ele>711.03</ele>
        <time>2011-10-02T13:58:07Z</time>
      </trkpt>
      <trkpt lat="43.49335" lon="2.66697">
        <ele>711.03</ele>
        <time>2011-10-02T13:58:09Z</time>
      </trkpt>
      <trkpt lat="43.4933" lon="2.6668">
        <ele>712.47</ele>
        <time>2011-10-02T13:58:26Z</time>
      </trkpt>
      <trkpt lat="43.4933" lon="2.66673">
        <ele>712.47</ele>
        <time>2011-10-02T13:58:43Z</time>
      </trkpt>
      <trkpt lat="43.49327" lon="2.66656">
        <ele>714.88</ele>
        <time>2011-10-02T13:58:47Z</time>
      </trkpt>
      <trkpt lat="43.49324" lon="2.66646">
        <ele>715.36</ele>
        <time>2011-10-02T13:58:56Z</time>
      </trkpt>
      <trkpt lat="43.4932" lon="2.66632">
        <ele>717.76</ele>
        <time>2011-10-02T13:59:02Z</time>
      </trkpt>
      <trkpt lat="43.49315" lon="2.6662">
        <ele>719.68</ele>
        <time>2011-10-02T13:59:11Z</time>
      </trkpt>
      <trkpt lat="43.4931" lon="2.66607">
        <ele>719.68</ele>
        <time>2011-10-02T13:59:22Z</time>
      </trkpt>
      <trkpt lat="43.4931" lon="2.66602">
        <ele>719.2</ele>
        <time>2011-10-02T13:59:28Z</time>
      </trkpt>
      <trkpt lat="43.49301" lon="2.6657">
        <ele>716.32</ele>
        <time>2011-10-02T13:59:46Z</time>
      </trkpt>
      <trkpt lat="43.49294" lon="2.66546">
        <ele>715.84</ele>
        <time>2011-10-02T14:00:01Z</time>
      </trkpt>
      <trkpt lat="43.4929" lon="2.66539">
        <ele>718.24</ele>
        <time>2011-10-02T14:00:07Z</time>
      </trkpt>
      <trkpt lat="43.49289" lon="2.66536">
        <ele>718.72</ele>
        <time>2011-10-02T14:00:09Z</time>
      </trkpt>
      <trkpt lat="43.49285" lon="2.66515">
        <ele>722.57</ele>
        <time>2011-10-02T14:00:25Z</time>
      </trkpt>
      <trkpt lat="43.49284" lon="2.66506">
        <ele>723.05</ele>
        <time>2011-10-02T14:00:31Z</time>
      </trkpt>
      <trkpt lat="43.49282" lon="2.66478">
        <ele>723.53</ele>
        <time>2011-10-02T14:00:48Z</time>
      </trkpt>
      <trkpt lat="43.49279" lon="2.66472">
        <ele>724.01</ele>
        <time>2011-10-02T14:00:53Z</time>
      </trkpt>
      <trkpt lat="43.49272" lon="2.66451">
        <ele>725.45</ele>
        <time>2011-10-02T14:01:10Z</time>
      </trkpt>
      <trkpt lat="43.49274" lon="2.66438">
        <ele>724.49</ele>
        <time>2011-10-02T14:01:23Z</time>
      </trkpt>
      <trkpt lat="43.49287" lon="2.66464">
        <ele>720.65</ele>
        <time>2011-10-02T14:01:39Z</time>
      </trkpt>
      <trkpt lat="43.49294" lon="2.66479">
        <ele>718.72</ele>
        <time>2011-10-02T14:01:53Z</time>
      </trkpt>
      <trkpt lat="43.49305" lon="2.66494">
        <ele>721.13</ele>
        <time>2011-10-02T14:02:06Z</time>
      </trkpt>
      <trkpt lat="43.49316" lon="2.66511">
        <ele>724.01</ele>
        <time>2011-10-02T14:02:22Z</time>
      </trkpt>
      <trkpt lat="43.4932" lon="2.66515">
        <ele>726.89</ele>
        <time>2011-10-02T14:02:27Z</time>
      </trkpt>
      <trkpt lat="43.49331" lon="2.66521">
        <ele>734.58</ele>
        <time>2011-10-02T14:02:42Z</time>
      </trkpt>
      <trkpt lat="43.49346" lon="2.66533">
        <ele>738.91</ele>
        <time>2011-10-02T14:02:57Z</time>
      </trkpt>
      <trkpt lat="43.49357" lon="2.66539">
        <ele>742.28</ele>
        <time>2011-10-02T14:03:11Z</time>
      </trkpt>
      <trkpt lat="43.49368" lon="2.66523">
        <ele>742.28</ele>
        <time>2011-10-02T14:03:25Z</time>
      </trkpt>
      <trkpt lat="43.49367" lon="2.66512">
        <ele>742.76</ele>
        <time>2011-10-02T14:03:33Z</time>
      </trkpt>
      <trkpt lat="43.49364" lon="2.66498">
        <ele>740.35</ele>
        <time>2011-10-02T14:03:41Z</time>
      </trkpt>
      <trkpt lat="43.49361" lon="2.66489">
        <ele>740.35</ele>
        <time>2011-10-02T14:03:47Z</time>
      </trkpt>
      <trkpt lat="43.4936" lon="2.66484">
        <ele>740.35</ele>
        <time>2011-10-02T14:03:54Z</time>
      </trkpt>
      <trkpt lat="43.49352" lon="2.66464">
        <ele>742.28</ele>
        <time>2011-10-02T14:04:08Z</time>
      </trkpt>
      <trkpt lat="43.49351" lon="2.66462">
        <ele>742.76</ele>
        <time>2011-10-02T14:04:12Z</time>
      </trkpt>
      <trkpt lat="43.4935" lon="2.66458">
        <ele>743.24</ele>
        <time>2011-10-02T14:04:14Z</time>
      </trkpt>
      <trkpt lat="43.49341" lon="2.66437">
        <ele>746.6</ele>
        <time>2011-10-02T14:04:32Z</time>
      </trkpt>
      <trkpt lat="43.4934" lon="2.66434">
        <ele>747.08</ele>
        <time>2011-10-02T14:04:34Z</time>
      </trkpt>
      <trkpt lat="43.49334" lon="2.66415">
        <ele>749.49</ele>
        <time>2011-10-02T14:04:49Z</time>
      </trkpt>
      <trkpt lat="43.49339" lon="2.66411">
        <ele>751.89</ele>
        <time>2011-10-02T14:05:02Z</time>
      </trkpt>
      <trkpt lat="43.4934" lon="2.66416">
        <ele>751.41</ele>
        <time>2011-10-02T14:05:38Z</time>
      </trkpt>
      <trkpt lat="43.49345" lon="2.66422">
        <ele>751.41</ele>
        <time>2011-10-02T14:05:45Z</time>
      </trkpt>
      <trkpt lat="43.49352" lon="2.66432">
        <ele>750.93</ele>
        <time>2011-10-02T14:05:56Z</time>
      </trkpt>
      <trkpt lat="43.49354" lon="2.66435">
        <ele>750.93</ele>
        <time>2011-10-02T14:05:58Z</time>
      </trkpt>
      <trkpt lat="43.49363" lon="2.66455">
        <ele>754.29</ele>
        <time>2011-10-02T14:06:13Z</time>
      </trkpt>
      <trkpt lat="43.49371" lon="2.66471">
        <ele>753.81</ele>
        <time>2011-10-02T14:06:26Z</time>
      </trkpt>
      <trkpt lat="43.49383" lon="2.66484">
        <ele>751.41</ele>
        <time>2011-10-02T14:06:40Z</time>
      </trkpt>
      <trkpt lat="43.4939" lon="2.66487">
        <ele>749.49</ele>
        <time>2011-10-02T14:06:48Z</time>
      </trkpt>
      <trkpt lat="43.49407" lon="2.66494">
        <ele>747.56</ele>
        <time>2011-10-02T14:07:04Z</time>
      </trkpt>
      <trkpt lat="43.4941" lon="2.66494">
        <ele>746.6</ele>
        <time>2011-10-02T14:07:07Z</time>
      </trkpt>
      <trkpt lat="43.49417" lon="2.6649">
        <ele>745.16</ele>
        <time>2011-10-02T14:07:29Z</time>
      </trkpt>
      <trkpt lat="43.49418" lon="2.6649">
        <ele>745.16</ele>
        <time>2011-10-02T14:07:32Z</time>
      </trkpt>
      <trkpt lat="43.49434" lon="2.66484">
        <ele>751.89</ele>
        <time>2011-10-02T14:07:48Z</time>
      </trkpt>
      <trkpt lat="43.4944" lon="2.66482">
        <ele>753.33</ele>
        <time>2011-10-02T14:07:59Z</time>
      </trkpt>
      <trkpt lat="43.49453" lon="2.66479">
        <ele>755.25</ele>
        <time>2011-10-02T14:08:14Z</time>
      </trkpt>
      <trkpt lat="43.49461" lon="2.66475">
        <ele>754.29</ele>
        <time>2011-10-02T14:08:23Z</time>
      </trkpt>
      <trkpt lat="43.49473" lon="2.66472">
        <ele>754.29</ele>
        <time>2011-10-02T14:08:34Z</time>
      </trkpt>
      <trkpt lat="43.49481" lon="2.66472">
        <ele>753.81</ele>
        <time>2011-10-02T14:08:41Z</time>
      </trkpt>
      <trkpt lat="43.49495" lon="2.66471">
        <ele>756.21</ele>
        <time>2011-10-02T14:08:54Z</time>
      </trkpt>
      <trkpt lat="43.49497" lon="2.6647">
        <ele>756.69</ele>
        <time>2011-10-02T14:08:56Z</time>
      </trkpt>
      <trkpt lat="43.49509" lon="2.66463">
        <ele>760.54</ele>
        <time>2011-10-02T14:09:07Z</time>
      </trkpt>
      <trkpt lat="43.49513" lon="2.66461">
        <ele>761.98</ele>
        <time>2011-10-02T14:09:14Z</time>
      </trkpt>
      <trkpt lat="43.49523" lon="2.66436">
        <ele>757.18</ele>
        <time>2011-10-02T14:09:30Z</time>
      </trkpt>
      <trkpt lat="43.49525" lon="2.6642">
        <ele>755.25</ele>
        <time>2011-10-02T14:09:42Z</time>
      </trkpt>
      <trkpt lat="43.4953" lon="2.66412">
        <ele>754.77</ele>
        <time>2011-10-02T14:09:50Z</time>
      </trkpt>
      <trkpt lat="43.49539" lon="2.66396">
        <ele>757.66</ele>
        <time>2011-10-02T14:10:06Z</time>
      </trkpt>
      <trkpt lat="43.49539" lon="2.66388">
        <ele>760.06</ele>
        <time>2011-10-02T14:10:20Z</time>
      </trkpt>
      <trkpt lat="43.49539" lon="2.66391">
        <ele>760.06</ele>
        <time>2011-10-02T14:11:03Z</time>
      </trkpt>
      <trkpt lat="43.49539" lon="2.66412">
        <ele>761.5</ele>
        <time>2011-10-02T14:11:18Z</time>
      </trkpt>
      <trkpt lat="43.4954" lon="2.66413">
        <ele>761.98</ele>
        <time>2011-10-02T14:11:19Z</time>
      </trkpt>
      <trkpt lat="43.49543" lon="2.66432">
        <ele>761.5</ele>
        <time>2011-10-02T14:11:33Z</time>
      </trkpt>
      <trkpt lat="43.49544" lon="2.66439">
        <ele>760.06</ele>
        <time>2011-10-02T14:11:39Z</time>
      </trkpt>
      <trkpt lat="43.49548" lon="2.66449">
        <ele>760.06</ele>
        <time>2011-10-02T14:11:47Z</time>
      </trkpt>
      <trkpt lat="43.49559" lon="2.66462">
        <ele>762.46</ele>
        <time>2011-10-02T14:12:02Z</time>
      </trkpt>
      <trkpt lat="43.49566" lon="2.66467">
        <ele>764.39</ele>
        <time>2011-10-02T14:12:15Z</time>
      </trkpt>
      <trkpt lat="43.49579" lon="2.66467">
        <ele>771.6</ele>
        <time>2011-10-02T14:12:28Z</time>
      </trkpt>
      <trkpt lat="43.49584" lon="2.66463">
        <ele>774.48</ele>
        <time>2011-10-02T14:12:40Z</time>
      </trkpt>
      <trkpt lat="43.49586" lon="2.66447">
        <ele>775.44</ele>
        <time>2011-10-02T14:12:54Z</time>
      </trkpt>
      <trkpt lat="43.49587" lon="2.66439">
        <ele>773.52</ele>
        <time>2011-10-02T14:13:03Z</time>
      </trkpt>
      <trkpt lat="43.49589" lon="2.66427">
        <ele>771.11</ele>
        <time>2011-10-02T14:13:11Z</time>
      </trkpt>
      <trkpt lat="43.4959" lon="2.66423">
        <ele>770.63</ele>
        <time>2011-10-02T14:13:13Z</time>
      </trkpt>
      <trkpt lat="43.49598" lon="2.66407">
        <ele>768.71</ele>
        <time>2011-10-02T14:13:27Z</time>
      </trkpt>
      <trkpt lat="43.49611" lon="2.664">
        <ele>772.08</ele>
        <time>2011-10-02T14:13:42Z</time>
      </trkpt>
      <trkpt lat="43.49624" lon="2.66408">
        <ele>776.4</ele>
        <time>2011-10-02T14:13:57Z</time>
      </trkpt>
      <trkpt lat="43.49628" lon="2.66409">
        <ele>776.88</ele>
        <time>2011-10-02T14:14:03Z</time>
      </trkpt>
      <trkpt lat="43.49635" lon="2.66417">
        <ele>780.73</ele>
        <time>2011-10-02T14:14:14Z</time>
      </trkpt>
      <trkpt lat="43.49642" lon="2.66421">
        <ele>784.57</ele>
        <time>2011-10-02T14:14:21Z</time>
      </trkpt>
      <trkpt lat="43.49647" lon="2.66423">
        <ele>787.94</ele>
        <time>2011-10-02T14:14:28Z</time>
      </trkpt>
      <trkpt lat="43.4965" lon="2.66422">
        <ele>788.9</ele>
        <time>2011-10-02T14:14:30Z</time>
      </trkpt>
      <trkpt lat="43.49665" lon="2.66414">
        <ele>791.3</ele>
        <time>2011-10-02T14:14:45Z</time>
      </trkpt>
      <trkpt lat="43.49668" lon="2.66411">
        <ele>790.82</ele>
        <time>2011-10-02T14:14:48Z</time>
      </trkpt>
      <trkpt lat="43.49675" lon="2.66396">
        <ele>788.42</ele>
        <time>2011-10-02T14:15:02Z</time>
      </trkpt>
      <trkpt lat="43.49677" lon="2.66384">
        <ele>787.46</ele>
        <time>2011-10-02T14:15:13Z</time>
      </trkpt>
      <trkpt lat="43.49679" lon="2.66376">
        <ele>788.42</ele>
        <time>2011-10-02T14:15:18Z</time>
      </trkpt>
      <trkpt lat="43.49688" lon="2.66359">
        <ele>790.34</ele>
        <time>2011-10-02T14:15:29Z</time>
      </trkpt>
      <trkpt lat="43.49697" lon="2.66341">
        <ele>790.34</ele>
        <time>2011-10-02T14:15:44Z</time>
      </trkpt>
      <trkpt lat="43.49707" lon="2.6633">
        <ele>789.38</ele>
        <time>2011-10-02T14:15:57Z</time>
      </trkpt>
      <trkpt lat="43.49721" lon="2.66317">
        <ele>790.82</ele>
        <time>2011-10-02T14:16:12Z</time>
      </trkpt>
      <trkpt lat="43.49739" lon="2.66307">
        <ele>794.67</ele>
        <time>2011-10-02T14:16:26Z</time>
      </trkpt>
      <trkpt lat="43.49745" lon="2.66301">
        <ele>798.03</ele>
        <time>2011-10-02T14:16:33Z</time>
      </trkpt>
      <trkpt lat="43.49757" lon="2.66292">
        <ele>799.47</ele>
        <time>2011-10-02T14:16:48Z</time>
      </trkpt>
      <trkpt lat="43.49769" lon="2.6628">
        <ele>801.4</ele>
        <time>2011-10-02T14:17:02Z</time>
      </trkpt>
      <trkpt lat="43.49779" lon="2.66267">
        <ele>806.68</ele>
        <time>2011-10-02T14:17:17Z</time>
      </trkpt>
      <trkpt lat="43.49781" lon="2.66255">
        <ele>808.61</ele>
        <time>2011-10-02T14:17:29Z</time>
      </trkpt>
      <trkpt lat="43.49783" lon="2.66253">
        <ele>809.09</ele>
        <time>2011-10-02T14:17:31Z</time>
      </trkpt>
      <trkpt lat="43.49793" lon="2.6624">
        <ele>810.05</ele>
        <time>2011-10-02T14:17:44Z</time>
      </trkpt>
      <trkpt lat="43.49805" lon="2.66241">
        <ele>811.01</ele>
        <time>2011-10-02T14:17:58Z</time>
      </trkpt>
      <trkpt lat="43.49812" lon="2.66246">
        <ele>813.89</ele>
        <time>2011-10-02T14:18:10Z</time>
      </trkpt>
      <trkpt lat="43.49817" lon="2.66247">
        <ele>813.89</ele>
        <time>2011-10-02T14:18:13Z</time>
      </trkpt>
      <trkpt lat="43.49821" lon="2.66246">
        <ele>813.89</ele>
        <time>2011-10-02T14:18:17Z</time>
      </trkpt>
      <trkpt lat="43.49826" lon="2.66246">
        <ele>812.93</ele>
        <time>2011-10-02T14:18:23Z</time>
      </trkpt>
      <trkpt lat="43.49841" lon="2.66239">
        <ele>811.49</ele>
        <time>2011-10-02T14:18:38Z</time>
      </trkpt>
      <trkpt lat="43.49842" lon="2.66239">
        <ele>811.49</ele>
        <time>2011-10-02T14:18:39Z</time>
      </trkpt>
      <trkpt lat="43.49844" lon="2.66239">
        <ele>811.01</ele>
        <time>2011-10-02T14:18:41Z</time>
      </trkpt>
      <trkpt lat="43.49855" lon="2.66232">
        <ele>809.09</ele>
        <time>2011-10-02T14:18:51Z</time>
      </trkpt>
      <trkpt lat="43.49868" lon="2.6623">
        <ele>809.57</ele>
        <time>2011-10-02T14:19:07Z</time>
      </trkpt>
      <trkpt lat="43.4987" lon="2.6623">
        <ele>810.05</ele>
        <time>2011-10-02T14:19:09Z</time>
      </trkpt>
      <trkpt lat="43.49882" lon="2.66228">
        <ele>812.45</ele>
        <time>2011-10-02T14:19:24Z</time>
      </trkpt>
      <trkpt lat="43.49885" lon="2.66229">
        <ele>812.93</ele>
        <time>2011-10-02T14:19:28Z</time>
      </trkpt>
      <trkpt lat="43.499" lon="2.66235">
        <ele>813.41</ele>
        <time>2011-10-02T14:19:44Z</time>
      </trkpt>
      <trkpt lat="43.49915" lon="2.66238">
        <ele>816.78</ele>
        <time>2011-10-02T14:19:57Z</time>
      </trkpt>
      <trkpt lat="43.49927" lon="2.66236">
        <ele>820.62</ele>
        <time>2011-10-02T14:20:10Z</time>
      </trkpt>
      <trkpt lat="43.49937" lon="2.66226">
        <ele>821.1</ele>
        <time>2011-10-02T14:20:25Z</time>
      </trkpt>
      <trkpt lat="43.49937" lon="2.66225">
        <ele>821.1</ele>
        <time>2011-10-02T14:21:00Z</time>
      </trkpt>
      <trkpt lat="43.49939" lon="2.66219">
        <ele>820.62</ele>
        <time>2011-10-02T14:22:34Z</time>
      </trkpt>
      <trkpt lat="43.49935" lon="2.6621">
        <ele>824.47</ele>
        <time>2011-10-02T14:22:45Z</time>
      </trkpt>
      <trkpt lat="43.49932" lon="2.66197">
        <ele>826.87</ele>
        <time>2011-10-02T14:22:56Z</time>
      </trkpt>
      <trkpt lat="43.49933" lon="2.66187">
        <ele>824.47</ele>
        <time>2011-10-02T14:23:05Z</time>
      </trkpt>
      <trkpt lat="43.49933" lon="2.66167">
        <ele>824.95</ele>
        <time>2011-10-02T14:23:20Z</time>
      </trkpt>
      <trkpt lat="43.49931" lon="2.66151">
        <ele>826.87</ele>
        <time>2011-10-02T14:23:34Z</time>
      </trkpt>
      <trkpt lat="43.49928" lon="2.66139">
        <ele>827.83</ele>
        <time>2011-10-02T14:23:45Z</time>
      </trkpt>
      <trkpt lat="43.49928" lon="2.66137">
        <ele>827.83</ele>
        <time>2011-10-02T14:23:49Z</time>
      </trkpt>
      <trkpt lat="43.49922" lon="2.6612">
        <ele>831.2</ele>
        <time>2011-10-02T14:24:03Z</time>
      </trkpt>
      <trkpt lat="43.49918" lon="2.66103">
        <ele>831.2</ele>
        <time>2011-10-02T14:24:19Z</time>
      </trkpt>
      <trkpt lat="43.49911" lon="2.66082">
        <ele>833.6</ele>
        <time>2011-10-02T14:24:36Z</time>
      </trkpt>
      <trkpt lat="43.49909" lon="2.66077">
        <ele>833.6</ele>
        <time>2011-10-02T14:24:42Z</time>
      </trkpt>
      <trkpt lat="43.49907" lon="2.66074">
        <ele>833.6</ele>
        <time>2011-10-02T14:24:48Z</time>
      </trkpt>
      <trkpt lat="43.49906" lon="2.6607">
        <ele>834.08</ele>
        <time>2011-10-02T14:24:50Z</time>
      </trkpt>
      <trkpt lat="43.49897" lon="2.66052">
        <ele>837.45</ele>
        <time>2011-10-02T14:25:04Z</time>
      </trkpt>
      <trkpt lat="43.49889" lon="2.66039">
        <ele>837.45</ele>
        <time>2011-10-02T14:25:14Z</time>
      </trkpt>
      <trkpt lat="43.49888" lon="2.66033">
        <ele>836.48</ele>
        <time>2011-10-02T14:25:18Z</time>
      </trkpt>
      <trkpt lat="43.49887" lon="2.66028">
        <ele>836.96</ele>
        <time>2011-10-02T14:25:21Z</time>
      </trkpt>
      <trkpt lat="43.49884" lon="2.66008">
        <ele>838.89</ele>
        <time>2011-10-02T14:25:36Z</time>
      </trkpt>
      <trkpt lat="43.49882" lon="2.66002">
        <ele>838.89</ele>
        <time>2011-10-02T14:25:41Z</time>
      </trkpt>
      <trkpt lat="43.49877" lon="2.6598">
        <ele>842.25</ele>
        <time>2011-10-02T14:25:57Z</time>
      </trkpt>
      <trkpt lat="43.49875" lon="2.65958">
        <ele>839.37</ele>
        <time>2011-10-02T14:26:11Z</time>
      </trkpt>
      <trkpt lat="43.49872" lon="2.65942">
        <ele>838.89</ele>
        <time>2011-10-02T14:26:22Z</time>
      </trkpt>
      <trkpt lat="43.4987" lon="2.65927">
        <ele>840.33</ele>
        <time>2011-10-02T14:26:30Z</time>
      </trkpt>
      <trkpt lat="43.49871" lon="2.65919">
        <ele>841.29</ele>
        <time>2011-10-02T14:26:34Z</time>
      </trkpt>
      <trkpt lat="43.4987" lon="2.65906">
        <ele>841.77</ele>
        <time>2011-10-02T14:26:44Z</time>
      </trkpt>
      <trkpt lat="43.49872" lon="2.6589">
        <ele>841.77</ele>
        <time>2011-10-02T14:26:53Z</time>
      </trkpt>
      <trkpt lat="43.49872" lon="2.65878">
        <ele>840.33</ele>
        <time>2011-10-02T14:27:00Z</time>
      </trkpt>
      <trkpt lat="43.49872" lon="2.65871">
        <ele>840.81</ele>
        <time>2011-10-02T14:27:07Z</time>
      </trkpt>
      <trkpt lat="43.49869" lon="2.65849">
        <ele>838.41</ele>
        <time>2011-10-02T14:27:20Z</time>
      </trkpt>
      <trkpt lat="43.49871" lon="2.65845">
        <ele>838.41</ele>
        <time>2011-10-02T14:27:22Z</time>
      </trkpt>
      <trkpt lat="43.49872" lon="2.65842">
        <ele>838.41</ele>
        <time>2011-10-02T14:27:24Z</time>
      </trkpt>
      <trkpt lat="43.49867" lon="2.65831">
        <ele>836.48</ele>
        <time>2011-10-02T14:27:31Z</time>
      </trkpt>
      <trkpt lat="43.49868" lon="2.6583">
        <ele>836.96</ele>
        <time>2011-10-02T14:27:33Z</time>
      </trkpt>
      <trkpt lat="43.49869" lon="2.65821">
        <ele>835.52</ele>
        <time>2011-10-02T14:27:39Z</time>
      </trkpt>
      <trkpt lat="43.49873" lon="2.6581">
        <ele>835.52</ele>
        <time>2011-10-02T14:27:46Z</time>
      </trkpt>
      <trkpt lat="43.49879" lon="2.65788">
        <ele>835.04</ele>
        <time>2011-10-02T14:28:00Z</time>
      </trkpt>
      <trkpt lat="43.49883" lon="2.65771">
        <ele>835.04</ele>
        <time>2011-10-02T14:28:13Z</time>
      </trkpt>
      <trkpt lat="43.49888" lon="2.65762">
        <ele>834.08</ele>
        <time>2011-10-02T14:28:20Z</time>
      </trkpt>
      <trkpt lat="43.49896" lon="2.65749">
        <ele>834.08</ele>
        <time>2011-10-02T14:28:31Z</time>
      </trkpt>
      <trkpt lat="43.49903" lon="2.65743">
        <ele>834.56</ele>
        <time>2011-10-02T14:28:37Z</time>
      </trkpt>
      <trkpt lat="43.4991" lon="2.65733">
        <ele>835.52</ele>
        <time>2011-10-02T14:28:46Z</time>
      </trkpt>
      <trkpt lat="43.49915" lon="2.65728">
        <ele>836.48</ele>
        <time>2011-10-02T14:28:50Z</time>
      </trkpt>
      <trkpt lat="43.49918" lon="2.65723">
        <ele>835.52</ele>
        <time>2011-10-02T14:28:54Z</time>
      </trkpt>
      <trkpt lat="43.49925" lon="2.65706">
        <ele>835.04</ele>
        <time>2011-10-02T14:29:07Z</time>
      </trkpt>
      <trkpt lat="43.49933" lon="2.65683">
        <ele>833.6</ele>
        <time>2011-10-02T14:29:23Z</time>
      </trkpt>
      <trkpt lat="43.49936" lon="2.65677">
        <ele>834.08</ele>
        <time>2011-10-02T14:29:27Z</time>
      </trkpt>
      <trkpt lat="43.49947" lon="2.65659">
        <ele>833.6</ele>
        <time>2011-10-02T14:29:42Z</time>
      </trkpt>
      <trkpt lat="43.49965" lon="2.65646">
        <ele>833.6</ele>
        <time>2011-10-02T14:30:00Z</time>
      </trkpt>
      <trkpt lat="43.49981" lon="2.65637">
        <ele>836</ele>
        <time>2011-10-02T14:30:15Z</time>
      </trkpt>
      <trkpt lat="43.49992" lon="2.65628">
        <ele>837.93</ele>
        <time>2011-10-02T14:30:26Z</time>
      </trkpt>
      <trkpt lat="43.49996" lon="2.65618">
        <ele>839.37</ele>
        <time>2011-10-02T14:30:33Z</time>
      </trkpt>
      <trkpt lat="43.50008" lon="2.65603">
        <ele>840.33</ele>
        <time>2011-10-02T14:30:48Z</time>
      </trkpt>
      <trkpt lat="43.5001" lon="2.65602">
        <ele>839.85</ele>
        <time>2011-10-02T14:30:49Z</time>
      </trkpt>
      <trkpt lat="43.50014" lon="2.656">
        <ele>839.37</ele>
        <time>2011-10-02T14:30:53Z</time>
      </trkpt>
      <trkpt lat="43.50032" lon="2.65583">
        <ele>832.16</ele>
        <time>2011-10-02T14:31:10Z</time>
      </trkpt>
      <trkpt lat="43.50042" lon="2.65573">
        <ele>830.72</ele>
        <time>2011-10-02T14:31:21Z</time>
      </trkpt>
      <trkpt lat="43.50057" lon="2.65555">
        <ele>829.27</ele>
        <time>2011-10-02T14:31:38Z</time>
      </trkpt>
      <trkpt lat="43.50072" lon="2.65535">
        <ele>827.83</ele>
        <time>2011-10-02T14:31:56Z</time>
      </trkpt>
      <trkpt lat="43.50081" lon="2.65522">
        <ele>828.79</ele>
        <time>2011-10-02T14:32:06Z</time>
      </trkpt>
      <trkpt lat="43.50084" lon="2.65511">
        <ele>828.31</ele>
        <time>2011-10-02T14:32:13Z</time>
      </trkpt>
      <trkpt lat="43.50089" lon="2.65487">
        <ele>828.79</ele>
        <time>2011-10-02T14:32:28Z</time>
      </trkpt>
      <trkpt lat="43.50095" lon="2.65468">
        <ele>826.87</ele>
        <time>2011-10-02T14:32:43Z</time>
      </trkpt>
      <trkpt lat="43.5009" lon="2.65465">
        <ele>830.24</ele>
        <time>2011-10-02T14:33:08Z</time>
      </trkpt>
      <trkpt lat="43.50087" lon="2.65462">
        <ele>831.2</ele>
        <time>2011-10-02T14:33:21Z</time>
      </trkpt>
      <trkpt lat="43.50069" lon="2.65445">
        <ele>832.64</ele>
        <time>2011-10-02T14:33:35Z</time>
      </trkpt>
      <trkpt lat="43.50059" lon="2.65434">
        <ele>832.64</ele>
        <time>2011-10-02T14:33:47Z</time>
      </trkpt>
      <trkpt lat="43.50057" lon="2.65431">
        <ele>832.64</ele>
        <time>2011-10-02T14:33:52Z</time>
      </trkpt>
      <trkpt lat="43.5004" lon="2.65419">
        <ele>831.2</ele>
        <time>2011-10-02T14:34:07Z</time>
      </trkpt>
      <trkpt lat="43.50024" lon="2.65404">
        <ele>828.31</ele>
        <time>2011-10-02T14:34:22Z</time>
      </trkpt>
      <trkpt lat="43.50015" lon="2.65395">
        <ele>825.91</ele>
        <time>2011-10-02T14:34:36Z</time>
      </trkpt>
      <trkpt lat="43.50002" lon="2.65383">
        <ele>823.51</ele>
        <time>2011-10-02T14:34:48Z</time>
      </trkpt>
      <trkpt lat="43.49987" lon="2.65364">
        <ele>822.06</ele>
        <time>2011-10-02T14:35:01Z</time>
      </trkpt>
      <trkpt lat="43.49974" lon="2.65348">
        <ele>821.58</ele>
        <time>2011-10-02T14:35:14Z</time>
      </trkpt>
      <trkpt lat="43.49963" lon="2.65333">
        <ele>822.55</ele>
        <time>2011-10-02T14:35:27Z</time>
      </trkpt>
      <trkpt lat="43.49957" lon="2.65327">
        <ele>821.1</ele>
        <time>2011-10-02T14:35:39Z</time>
      </trkpt>
      <trkpt lat="43.49947" lon="2.6532">
        <ele>820.14</ele>
        <time>2011-10-02T14:36:10Z</time>
      </trkpt>
      <trkpt lat="43.49944" lon="2.65315">
        <ele>821.1</ele>
        <time>2011-10-02T14:36:13Z</time>
      </trkpt>
      <trkpt lat="43.4994" lon="2.6531">
        <ele>821.58</ele>
        <time>2011-10-02T14:36:18Z</time>
      </trkpt>
      <trkpt lat="43.49926" lon="2.65301">
        <ele>820.14</ele>
        <time>2011-10-02T14:36:31Z</time>
      </trkpt>
      <trkpt lat="43.49912" lon="2.65293">
        <ele>819.66</ele>
        <time>2011-10-02T14:36:46Z</time>
      </trkpt>
      <trkpt lat="43.49902" lon="2.65285">
        <ele>819.66</ele>
        <time>2011-10-02T14:36:59Z</time>
      </trkpt>
      <trkpt lat="43.49886" lon="2.65272">
        <ele>818.22</ele>
        <time>2011-10-02T14:37:13Z</time>
      </trkpt>
      <trkpt lat="43.49868" lon="2.65264">
        <ele>815.34</ele>
        <time>2011-10-02T14:37:29Z</time>
      </trkpt>
      <trkpt lat="43.4985" lon="2.65263">
        <ele>815.34</ele>
        <time>2011-10-02T14:37:43Z</time>
      </trkpt>
      <trkpt lat="43.49834" lon="2.6526">
        <ele>813.89</ele>
        <time>2011-10-02T14:37:56Z</time>
      </trkpt>
      <trkpt lat="43.49816" lon="2.65257">
        <ele>811.97</ele>
        <time>2011-10-02T14:38:10Z</time>
      </trkpt>
      <trkpt lat="43.49799" lon="2.65254">
        <ele>810.53</ele>
        <time>2011-10-02T14:38:24Z</time>
      </trkpt>
      <trkpt lat="43.49785" lon="2.65249">
        <ele>808.61</ele>
        <time>2011-10-02T14:38:36Z</time>
      </trkpt>
      <trkpt lat="43.49769" lon="2.65239">
        <ele>805.72</ele>
        <time>2011-10-02T14:38:50Z</time>
      </trkpt>
      <trkpt lat="43.49763" lon="2.65234">
        <ele>805.72</ele>
        <time>2011-10-02T14:38:55Z</time>
      </trkpt>
      <trkpt lat="43.49747" lon="2.65224">
        <ele>805.24</ele>
        <time>2011-10-02T14:39:10Z</time>
      </trkpt>
      <trkpt lat="43.49735" lon="2.65214">
        <ele>804.28</ele>
        <time>2011-10-02T14:39:24Z</time>
      </trkpt>
      <trkpt lat="43.49722" lon="2.65202">
        <ele>806.68</ele>
        <time>2011-10-02T14:39:39Z</time>
      </trkpt>
      <trkpt lat="43.49711" lon="2.65195">
        <ele>809.57</ele>
        <time>2011-10-02T14:39:51Z</time>
      </trkpt>
      <trkpt lat="43.49709" lon="2.65193">
        <ele>809.57</ele>
        <time>2011-10-02T14:40:15Z</time>
      </trkpt>
      <trkpt lat="43.4971" lon="2.65193">
        <ele>810.05</ele>
        <time>2011-10-02T14:40:37Z</time>
      </trkpt>
      <trkpt lat="43.49707" lon="2.65193">
        <ele>810.05</ele>
        <time>2011-10-02T14:40:55Z</time>
      </trkpt>
      <trkpt lat="43.49703" lon="2.65189">
        <ele>809.09</ele>
        <time>2011-10-02T14:41:06Z</time>
      </trkpt>
      <trkpt lat="43.49698" lon="2.65187">
        <ele>809.09</ele>
        <time>2011-10-02T14:41:24Z</time>
      </trkpt>
      <trkpt lat="43.497" lon="2.65186">
        <ele>807.64</ele>
        <time>2011-10-02T14:41:43Z</time>
      </trkpt>
      <trkpt lat="43.497" lon="2.65194">
        <ele>807.16</ele>
        <time>2011-10-02T14:42:19Z</time>
      </trkpt>
      <trkpt lat="43.49701" lon="2.65193">
        <ele>807.16</ele>
        <time>2011-10-02T14:42:38Z</time>
      </trkpt>
      <trkpt lat="43.49689" lon="2.65189">
        <ele>807.16</ele>
        <time>2011-10-02T14:42:53Z</time>
      </trkpt>
      <trkpt lat="43.4967" lon="2.65181">
        <ele>804.76</ele>
        <time>2011-10-02T14:43:07Z</time>
      </trkpt>
      <trkpt lat="43.49651" lon="2.65171">
        <ele>801.4</ele>
        <time>2011-10-02T14:43:23Z</time>
      </trkpt>
      <trkpt lat="43.49636" lon="2.65163">
        <ele>799.47</ele>
        <time>2011-10-02T14:43:37Z</time>
      </trkpt>
      <trkpt lat="43.49623" lon="2.65152">
        <ele>798.03</ele>
        <time>2011-10-02T14:43:52Z</time>
      </trkpt>
      <trkpt lat="43.4961" lon="2.65133">
        <ele>795.15</ele>
        <time>2011-10-02T14:44:08Z</time>
      </trkpt>
      <trkpt lat="43.496" lon="2.65116">
        <ele>792.26</ele>
        <time>2011-10-02T14:44:21Z</time>
      </trkpt>
      <trkpt lat="43.49582" lon="2.65097">
        <ele>789.86</ele>
        <time>2011-10-02T14:44:39Z</time>
      </trkpt>
      <trkpt lat="43.49576" lon="2.65091">
        <ele>786.98</ele>
        <time>2011-10-02T14:44:53Z</time>
      </trkpt>
      <trkpt lat="43.49568" lon="2.65087">
        <ele>786.02</ele>
        <time>2011-10-02T14:45:00Z</time>
      </trkpt>
      <trkpt lat="43.49551" lon="2.65077">
        <ele>783.61</ele>
        <time>2011-10-02T14:45:15Z</time>
      </trkpt>
      <trkpt lat="43.49534" lon="2.65065">
        <ele>781.21</ele>
        <time>2011-10-02T14:45:30Z</time>
      </trkpt>
      <trkpt lat="43.4952" lon="2.65054">
        <ele>781.21</ele>
        <time>2011-10-02T14:45:44Z</time>
      </trkpt>
      <trkpt lat="43.49503" lon="2.65045">
        <ele>778.81</ele>
        <time>2011-10-02T14:45:58Z</time>
      </trkpt>
      <trkpt lat="43.49491" lon="2.65034">
        <ele>776.4</ele>
        <time>2011-10-02T14:46:11Z</time>
      </trkpt>
      <trkpt lat="43.49479" lon="2.65023">
        <ele>774.48</ele>
        <time>2011-10-02T14:46:23Z</time>
      </trkpt>
      <trkpt lat="43.49469" lon="2.65007">
        <ele>771.6</ele>
        <time>2011-10-02T14:46:37Z</time>
      </trkpt>
      <trkpt lat="43.49457" lon="2.64992">
        <ele>770.63</ele>
        <time>2011-10-02T14:46:52Z</time>
      </trkpt>
      <trkpt lat="43.49445" lon="2.64979">
        <ele>769.19</ele>
        <time>2011-10-02T14:47:06Z</time>
      </trkpt>
      <trkpt lat="43.49429" lon="2.64961">
        <ele>768.71</ele>
        <time>2011-10-02T14:47:22Z</time>
      </trkpt>
      <trkpt lat="43.49419" lon="2.64951">
        <ele>770.63</ele>
        <time>2011-10-02T14:47:32Z</time>
      </trkpt>
      <trkpt lat="43.49417" lon="2.64947">
        <ele>770.63</ele>
        <time>2011-10-02T14:47:36Z</time>
      </trkpt>
      <trkpt lat="43.49407" lon="2.64937">
        <ele>771.11</ele>
        <time>2011-10-02T14:47:48Z</time>
      </trkpt>
      <trkpt lat="43.49396" lon="2.64918">
        <ele>768.71</ele>
        <time>2011-10-02T14:48:04Z</time>
      </trkpt>
      <trkpt lat="43.49385" lon="2.64899">
        <ele>766.31</ele>
        <time>2011-10-02T14:48:18Z</time>
      </trkpt>
      <trkpt lat="43.49375" lon="2.64875">
        <ele>763.9</ele>
        <time>2011-10-02T14:48:35Z</time>
      </trkpt>
      <trkpt lat="43.49364" lon="2.64849">
        <ele>761.5</ele>
        <time>2011-10-02T14:48:53Z</time>
      </trkpt>
      <trkpt lat="43.49359" lon="2.64838">
        <ele>760.54</ele>
        <time>2011-10-02T14:49:01Z</time>
      </trkpt>
      <trkpt lat="43.49357" lon="2.64832">
        <ele>760.06</ele>
        <time>2011-10-02T14:49:05Z</time>
      </trkpt>
      <trkpt lat="43.49351" lon="2.64813">
        <ele>759.1</ele>
        <time>2011-10-02T14:49:18Z</time>
      </trkpt>
      <trkpt lat="43.49346" lon="2.64786">
        <ele>757.66</ele>
        <time>2011-10-02T14:49:35Z</time>
      </trkpt>
      <trkpt lat="43.49341" lon="2.6476">
        <ele>754.77</ele>
        <time>2011-10-02T14:49:51Z</time>
      </trkpt>
      <trkpt lat="43.49339" lon="2.64734">
        <ele>752.85</ele>
        <time>2011-10-02T14:50:07Z</time>
      </trkpt>
      <trkpt lat="43.49339" lon="2.64733">
        <ele>752.85</ele>
        <time>2011-10-02T14:50:08Z</time>
      </trkpt>
      <trkpt lat="43.49339" lon="2.64716">
        <ele>752.85</ele>
        <time>2011-10-02T14:50:18Z</time>
      </trkpt>
      <trkpt lat="43.49336" lon="2.64692">
        <ele>750.45</ele>
        <time>2011-10-02T14:50:33Z</time>
      </trkpt>
      <trkpt lat="43.49337" lon="2.64682">
        <ele>749.97</ele>
        <time>2011-10-02T14:50:39Z</time>
      </trkpt>
      <trkpt lat="43.49332" lon="2.64677">
        <ele>749.49</ele>
        <time>2011-10-02T14:50:43Z</time>
      </trkpt>
      <trkpt lat="43.49317" lon="2.64695">
        <ele>749.97</ele>
        <time>2011-10-02T14:50:59Z</time>
      </trkpt>
      <trkpt lat="43.4931" lon="2.64706">
        <ele>749.49</ele>
        <time>2011-10-02T14:51:06Z</time>
      </trkpt>
      <trkpt lat="43.493" lon="2.64729">
        <ele>750.93</ele>
        <time>2011-10-02T14:51:21Z</time>
      </trkpt>
      <trkpt lat="43.4929" lon="2.64751">
        <ele>749</ele>
        <time>2011-10-02T14:51:36Z</time>
      </trkpt>
      <trkpt lat="43.49281" lon="2.64778">
        <ele>746.12</ele>
        <time>2011-10-02T14:51:52Z</time>
      </trkpt>
      <trkpt lat="43.49274" lon="2.64807">
        <ele>742.76</ele>
        <time>2011-10-02T14:52:09Z</time>
      </trkpt>
      <trkpt lat="43.49272" lon="2.64813">
        <ele>741.79</ele>
        <time>2011-10-02T14:52:13Z</time>
      </trkpt>
      <trkpt lat="43.4927" lon="2.64821">
        <ele>740.83</ele>
        <time>2011-10-02T14:52:18Z</time>
      </trkpt>
      <trkpt lat="43.49269" lon="2.64827">
        <ele>740.83</ele>
        <time>2011-10-02T14:52:22Z</time>
      </trkpt>
      <trkpt lat="43.49264" lon="2.64841">
        <ele>739.39</ele>
        <time>2011-10-02T14:52:31Z</time>
      </trkpt>
      <trkpt lat="43.4926" lon="2.64862">
        <ele>736.51</ele>
        <time>2011-10-02T14:52:43Z</time>
      </trkpt>
      <trkpt lat="43.4926" lon="2.64884">
        <ele>733.62</ele>
        <time>2011-10-02T14:52:56Z</time>
      </trkpt>
      <trkpt lat="43.49262" lon="2.64908">
        <ele>730.26</ele>
        <time>2011-10-02T14:53:11Z</time>
      </trkpt>
      <trkpt lat="43.49263" lon="2.64937">
        <ele>724.97</ele>
        <time>2011-10-02T14:53:27Z</time>
      </trkpt>
      <trkpt lat="43.49262" lon="2.64945">
        <ele>723.05</ele>
        <time>2011-10-02T14:53:32Z</time>
      </trkpt>
      <trkpt lat="43.49259" lon="2.64956">
        <ele>720.65</ele>
        <time>2011-10-02T14:53:39Z</time>
      </trkpt>
      <trkpt lat="43.49252" lon="2.64955">
        <ele>720.65</ele>
        <time>2011-10-02T14:53:44Z</time>
      </trkpt>
      <trkpt lat="43.49249" lon="2.64954">
        <ele>721.13</ele>
        <time>2011-10-02T14:53:46Z</time>
      </trkpt>
      <trkpt lat="43.49232" lon="2.64947">
        <ele>724.01</ele>
        <time>2011-10-02T14:54:00Z</time>
      </trkpt>
      <trkpt lat="43.49217" lon="2.64938">
        <ele>722.57</ele>
        <time>2011-10-02T14:54:15Z</time>
      </trkpt>
      <trkpt lat="43.49201" lon="2.64929">
        <ele>722.57</ele>
        <time>2011-10-02T14:54:29Z</time>
      </trkpt>
      <trkpt lat="43.49186" lon="2.64918">
        <ele>726.41</ele>
        <time>2011-10-02T14:54:43Z</time>
      </trkpt>
      <trkpt lat="43.49183" lon="2.64922">
        <ele>725.93</ele>
        <time>2011-10-02T14:54:48Z</time>
      </trkpt>
      <trkpt lat="43.4917" lon="2.6493">
        <ele>722.57</ele>
        <time>2011-10-02T14:55:02Z</time>
      </trkpt>
      <trkpt lat="43.49149" lon="2.64917">
        <ele>723.05</ele>
        <time>2011-10-02T14:55:20Z</time>
      </trkpt>
      <trkpt lat="43.49131" lon="2.64909">
        <ele>723.05</ele>
        <time>2011-10-02T14:55:35Z</time>
      </trkpt>
      <trkpt lat="43.49121" lon="2.64903">
        <ele>718.72</ele>
        <time>2011-10-02T14:55:49Z</time>
      </trkpt>
      <trkpt lat="43.49112" lon="2.64901">
        <ele>717.28</ele>
        <time>2011-10-02T14:55:58Z</time>
      </trkpt>
      <trkpt lat="43.49094" lon="2.64895">
        <ele>714.4</ele>
        <time>2011-10-02T14:56:13Z</time>
      </trkpt>
      <trkpt lat="43.49087" lon="2.64894">
        <ele>714.4</ele>
        <time>2011-10-02T14:56:19Z</time>
      </trkpt>
      <trkpt lat="43.49077" lon="2.6489">
        <ele>714.4</ele>
        <time>2011-10-02T14:56:29Z</time>
      </trkpt>
      <trkpt lat="43.49073" lon="2.64891">
        <ele>713.92</ele>
        <time>2011-10-02T14:56:33Z</time>
      </trkpt>
      <trkpt lat="43.49055" lon="2.64882">
        <ele>711.51</ele>
        <time>2011-10-02T14:56:49Z</time>
      </trkpt>
      <trkpt lat="43.49039" lon="2.64872">
        <ele>709.59</ele>
        <time>2011-10-02T14:57:03Z</time>
      </trkpt>
      <trkpt lat="43.4902" lon="2.64862">
        <ele>707.19</ele>
        <time>2011-10-02T14:57:20Z</time>
      </trkpt>
      <trkpt lat="43.49013" lon="2.64862">
        <ele>706.71</ele>
        <time>2011-10-02T14:57:26Z</time>
      </trkpt>
      <trkpt lat="43.48999" lon="2.64851">
        <ele>707.67</ele>
        <time>2011-10-02T14:57:39Z</time>
      </trkpt>
      <trkpt lat="43.48985" lon="2.6484">
        <ele>707.19</ele>
        <time>2011-10-02T14:57:53Z</time>
      </trkpt>
      <trkpt lat="43.4897" lon="2.64836">
        <ele>704.3</ele>
        <time>2011-10-02T14:58:07Z</time>
      </trkpt>
      <trkpt lat="43.48961" lon="2.64837">
        <ele>702.86</ele>
        <time>2011-10-02T14:58:15Z</time>
      </trkpt>
      <trkpt lat="43.4895" lon="2.64849">
        <ele>699.98</ele>
        <time>2011-10-02T14:58:33Z</time>
      </trkpt>
      <trkpt lat="43.48948" lon="2.64853">
        <ele>699.5</ele>
        <time>2011-10-02T14:58:37Z</time>
      </trkpt>
      <trkpt lat="43.48945" lon="2.64857">
        <ele>699.02</ele>
        <time>2011-10-02T14:58:41Z</time>
      </trkpt>
      <trkpt lat="43.48937" lon="2.64868">
        <ele>697.09</ele>
        <time>2011-10-02T14:58:52Z</time>
      </trkpt>
      <trkpt lat="43.48924" lon="2.64876">
        <ele>693.25</ele>
        <time>2011-10-02T14:59:06Z</time>
      </trkpt>
      <trkpt lat="43.48912" lon="2.64873">
        <ele>689.4</ele>
        <time>2011-10-02T14:59:20Z</time>
      </trkpt>
      <trkpt lat="43.48911" lon="2.64871">
        <ele>688.92</ele>
        <time>2011-10-02T14:59:22Z</time>
      </trkpt>
      <trkpt lat="43.48908" lon="2.64866">
        <ele>689.88</ele>
        <time>2011-10-02T14:59:27Z</time>
      </trkpt>
      <trkpt lat="43.48905" lon="2.64866">
        <ele>689.88</ele>
        <time>2011-10-02T14:59:30Z</time>
      </trkpt>
      <trkpt lat="43.48896" lon="2.64853">
        <ele>688.44</ele>
        <time>2011-10-02T14:59:39Z</time>
      </trkpt>
      <trkpt lat="43.48884" lon="2.64856">
        <ele>685.56</ele>
        <time>2011-10-02T14:59:47Z</time>
      </trkpt>
      <trkpt lat="43.4888" lon="2.64856">
        <ele>685.56</ele>
        <time>2011-10-02T14:59:50Z</time>
      </trkpt>
      <trkpt lat="43.48877" lon="2.64854">
        <ele>685.08</ele>
        <time>2011-10-02T14:59:52Z</time>
      </trkpt>
      <trkpt lat="43.48862" lon="2.64863">
        <ele>681.23</ele>
        <time>2011-10-02T15:00:07Z</time>
      </trkpt>
      <trkpt lat="43.48859" lon="2.64865">
        <ele>680.27</ele>
        <time>2011-10-02T15:00:11Z</time>
      </trkpt>
      <trkpt lat="43.48855" lon="2.64865">
        <ele>679.31</ele>
        <time>2011-10-02T15:00:16Z</time>
      </trkpt>
      <trkpt lat="43.48847" lon="2.64853">
        <ele>677.87</ele>
        <time>2011-10-02T15:00:25Z</time>
      </trkpt>
      <trkpt lat="43.48842" lon="2.64856">
        <ele>676.91</ele>
        <time>2011-10-02T15:00:30Z</time>
      </trkpt>
      <trkpt lat="43.4882" lon="2.64859">
        <ele>676.42</ele>
        <time>2011-10-02T15:00:47Z</time>
      </trkpt>
      <trkpt lat="43.48803" lon="2.64856">
        <ele>676.91</ele>
        <time>2011-10-02T15:01:00Z</time>
      </trkpt>
      <trkpt lat="43.48788" lon="2.64849">
        <ele>676.42</ele>
        <time>2011-10-02T15:01:12Z</time>
      </trkpt>
      <trkpt lat="43.48769" lon="2.64844">
        <ele>677.39</ele>
        <time>2011-10-02T15:01:26Z</time>
      </trkpt>
      <trkpt lat="43.48753" lon="2.64833">
        <ele>678.35</ele>
        <time>2011-10-02T15:01:41Z</time>
      </trkpt>
      <trkpt lat="43.48748" lon="2.64824">
        <ele>676.42</ele>
        <time>2011-10-02T15:01:49Z</time>
      </trkpt>
      <trkpt lat="43.48732" lon="2.64798">
        <ele>672.58</ele>
        <time>2011-10-02T15:02:07Z</time>
      </trkpt>
      <trkpt lat="43.48722" lon="2.64783">
        <ele>669.7</ele>
        <time>2011-10-02T15:02:19Z</time>
      </trkpt>
      <trkpt lat="43.48708" lon="2.64763">
        <ele>668.25</ele>
        <time>2011-10-02T15:02:34Z</time>
      </trkpt>
      <trkpt lat="43.48694" lon="2.6475">
        <ele>667.77</ele>
        <time>2011-10-02T15:02:48Z</time>
      </trkpt>
      <trkpt lat="43.48679" lon="2.64734">
        <ele>663.93</ele>
        <time>2011-10-02T15:03:04Z</time>
      </trkpt>
      <trkpt lat="43.4867" lon="2.64728">
        <ele>661.04</ele>
        <time>2011-10-02T15:03:12Z</time>
      </trkpt>
      <trkpt lat="43.48663" lon="2.6472">
        <ele>659.6</ele>
        <time>2011-10-02T15:03:23Z</time>
      </trkpt>
      <trkpt lat="43.48656" lon="2.64713">
        <ele>657.68</ele>
        <time>2011-10-02T15:03:31Z</time>
      </trkpt>
      <trkpt lat="43.48649" lon="2.64703">
        <ele>657.2</ele>
        <time>2011-10-02T15:03:45Z</time>
      </trkpt>
      <trkpt lat="43.48649" lon="2.64704">
        <ele>656.72</ele>
        <time>2011-10-02T15:04:46Z</time>
      </trkpt>
      <trkpt lat="43.48643" lon="2.64703">
        <ele>656.24</ele>
        <time>2011-10-02T15:06:28Z</time>
      </trkpt>
      <trkpt lat="43.48635" lon="2.64702">
        <ele>655.28</ele>
        <time>2011-10-02T15:07:10Z</time>
      </trkpt>
      <trkpt lat="43.48629" lon="2.64702">
        <ele>654.8</ele>
        <time>2011-10-02T15:07:15Z</time>
      </trkpt>
      <trkpt lat="43.48624" lon="2.64723">
        <ele>652.87</ele>
        <time>2011-10-02T15:07:30Z</time>
      </trkpt>
      <trkpt lat="43.4862" lon="2.64733">
        <ele>651.91</ele>
        <time>2011-10-02T15:07:44Z</time>
      </trkpt>
      <trkpt lat="43.48618" lon="2.64737">
        <ele>651.43</ele>
        <time>2011-10-02T15:07:48Z</time>
      </trkpt>
      <trkpt lat="43.48609" lon="2.64754">
        <ele>649.03</ele>
        <time>2011-10-02T15:08:04Z</time>
      </trkpt>
      <trkpt lat="43.48597" lon="2.64772">
        <ele>646.62</ele>
        <time>2011-10-02T15:08:20Z</time>
      </trkpt>
      <trkpt lat="43.48586" lon="2.64783">
        <ele>643.74</ele>
        <time>2011-10-02T15:08:32Z</time>
      </trkpt>
      <trkpt lat="43.48564" lon="2.64774">
        <ele>637.49</ele>
        <time>2011-10-02T15:08:50Z</time>
      </trkpt>
      <trkpt lat="43.48552" lon="2.6477">
        <ele>629.8</ele>
        <time>2011-10-02T15:09:02Z</time>
      </trkpt>
      <trkpt lat="43.48534" lon="2.64772">
        <ele>626.92</ele>
        <time>2011-10-02T15:09:17Z</time>
      </trkpt>
      <trkpt lat="43.48515" lon="2.64792">
        <ele>624.99</ele>
        <time>2011-10-02T15:09:34Z</time>
      </trkpt>
      <trkpt lat="43.48508" lon="2.64797">
        <ele>623.55</ele>
        <time>2011-10-02T15:09:43Z</time>
      </trkpt>
      <trkpt lat="43.48501" lon="2.64804">
        <ele>623.07</ele>
        <time>2011-10-02T15:09:50Z</time>
      </trkpt>
      <trkpt lat="43.48494" lon="2.64809">
        <ele>622.11</ele>
        <time>2011-10-02T15:09:55Z</time>
      </trkpt>
      <trkpt lat="43.48488" lon="2.64814">
        <ele>620.19</ele>
        <time>2011-10-02T15:10:03Z</time>
      </trkpt>
      <trkpt lat="43.48474" lon="2.64825">
        <ele>615.86</ele>
        <time>2011-10-02T15:10:18Z</time>
      </trkpt>
      <trkpt lat="43.48455" lon="2.64832">
        <ele>609.61</ele>
        <time>2011-10-02T15:10:33Z</time>
      </trkpt>
      <trkpt lat="43.4844" lon="2.64835">
        <ele>600.96</ele>
        <time>2011-10-02T15:10:49Z</time>
      </trkpt>
      <trkpt lat="43.48427" lon="2.64833">
        <ele>594.71</ele>
        <time>2011-10-02T15:11:00Z</time>
      </trkpt>
      <trkpt lat="43.48408" lon="2.64826">
        <ele>586.54</ele>
        <time>2011-10-02T15:11:16Z</time>
      </trkpt>
      <trkpt lat="43.48406" lon="2.64825">
        <ele>585.1</ele>
        <time>2011-10-02T15:11:18Z</time>
      </trkpt>
      <trkpt lat="43.48395" lon="2.6482">
        <ele>578.85</ele>
        <time>2011-10-02T15:11:28Z</time>
      </trkpt>
      <trkpt lat="43.48387" lon="2.64818">
        <ele>575.97</ele>
        <time>2011-10-02T15:11:35Z</time>
      </trkpt>
      <trkpt lat="43.48369" lon="2.64809">
        <ele>565.39</ele>
        <time>2011-10-02T15:11:52Z</time>
      </trkpt>
      <trkpt lat="43.48355" lon="2.64797">
        <ele>563.47</ele>
        <time>2011-10-02T15:12:06Z</time>
      </trkpt>
      <trkpt lat="43.48353" lon="2.64796">
        <ele>562.99</ele>
        <time>2011-10-02T15:12:08Z</time>
      </trkpt>
      <trkpt lat="43.48334" lon="2.64787">
        <ele>562.51</ele>
        <time>2011-10-02T15:12:26Z</time>
      </trkpt>
      <trkpt lat="43.48319" lon="2.64781">
        <ele>568.76</ele>
        <time>2011-10-02T15:12:40Z</time>
      </trkpt>
      <trkpt lat="43.4831" lon="2.64781">
        <ele>571.16</ele>
        <time>2011-10-02T15:12:47Z</time>
      </trkpt>
      <trkpt lat="43.48308" lon="2.6479">
        <ele>577.89</ele>
        <time>2011-10-02T15:13:04Z</time>
      </trkpt>
      <trkpt lat="43.48308" lon="2.64793">
        <ele>578.37</ele>
        <time>2011-10-02T15:13:40Z</time>
      </trkpt>
      <trkpt lat="43.48309" lon="2.64792">
        <ele>578.85</ele>
        <time>2011-10-02T15:14:45Z</time>
      </trkpt>
      <trkpt lat="43.4831" lon="2.64792">
        <ele>577.89</ele>
        <time>2011-10-02T15:16:02Z</time>
      </trkpt>
      <trkpt lat="43.48311" lon="2.64791">
        <ele>577.89</ele>
        <time>2011-10-02T15:16:12Z</time>
      </trkpt>
      <trkpt lat="43.48312" lon="2.64789">
        <ele>578.37</ele>
        <time>2011-10-02T15:16:16Z</time>
      </trkpt>
      <trkpt lat="43.48312" lon="2.64788">
        <ele>578.37</ele>
        <time>2011-10-02T15:16:18Z</time>
      </trkpt>
      <trkpt lat="43.48312" lon="2.64787">
        <ele>578.85</ele>
        <time>2011-10-02T15:17:01Z</time>
      </trkpt>
      <trkpt lat="43.48311" lon="2.64804">
        <ele>582.7</ele>
        <time>2011-10-02T15:17:14Z</time>
      </trkpt>
      <trkpt lat="43.48314" lon="2.64814">
        <ele>582.7</ele>
        <time>2011-10-02T15:17:30Z</time>
      </trkpt>
      <trkpt lat="43.48312" lon="2.64809">
        <ele>581.25</ele>
        <time>2011-10-02T15:17:34Z</time>
      </trkpt>
      <trkpt lat="43.48311" lon="2.64808">
        <ele>580.29</ele>
        <time>2011-10-02T15:19:01Z</time>
      </trkpt>
      <trkpt lat="43.48304" lon="2.64801">
        <ele>579.33</ele>
        <time>2011-10-02T15:19:13Z</time>
      </trkpt>
      <trkpt lat="43.48291" lon="2.64788">
        <ele>578.37</ele>
        <time>2011-10-02T15:19:27Z</time>
      </trkpt>
      <trkpt lat="43.48287" lon="2.64786">
        <ele>576.93</ele>
        <time>2011-10-02T15:19:32Z</time>
      </trkpt>
      <trkpt lat="43.48285" lon="2.64786">
        <ele>575.97</ele>
        <time>2011-10-02T15:19:34Z</time>
      </trkpt>
      <trkpt lat="43.48267" lon="2.64775">
        <ele>571.16</ele>
        <time>2011-10-02T15:19:51Z</time>
      </trkpt>
      <trkpt lat="43.48255" lon="2.64765">
        <ele>564.91</ele>
        <time>2011-10-02T15:20:05Z</time>
      </trkpt>
      <trkpt lat="43.48252" lon="2.6476">
        <ele>562.51</ele>
        <time>2011-10-02T15:20:10Z</time>
      </trkpt>
      <trkpt lat="43.48248" lon="2.64754">
        <ele>559.62</ele>
        <time>2011-10-02T15:20:15Z</time>
      </trkpt>
      <trkpt lat="43.48242" lon="2.6475">
        <ele>555.78</ele>
        <time>2011-10-02T15:20:21Z</time>
      </trkpt>
      <trkpt lat="43.48229" lon="2.64742">
        <ele>548.09</ele>
        <time>2011-10-02T15:20:36Z</time>
      </trkpt>
      <trkpt lat="43.48213" lon="2.64734">
        <ele>544.24</ele>
        <time>2011-10-02T15:20:51Z</time>
      </trkpt>
      <trkpt lat="43.48202" lon="2.64728">
        <ele>539.92</ele>
        <time>2011-10-02T15:21:07Z</time>
      </trkpt>
      <trkpt lat="43.48195" lon="2.64724">
        <ele>538.48</ele>
        <time>2011-10-02T15:21:13Z</time>
      </trkpt>
      <trkpt lat="43.48187" lon="2.64724">
        <ele>537.99</ele>
        <time>2011-10-02T15:21:22Z</time>
      </trkpt>
      <trkpt lat="43.48167" lon="2.64714">
        <ele>538.48</ele>
        <time>2011-10-02T15:21:39Z</time>
      </trkpt>
      <trkpt lat="43.48153" lon="2.64702">
        <ele>544.72</ele>
        <time>2011-10-02T15:21:53Z</time>
      </trkpt>
      <trkpt lat="43.48135" lon="2.6469">
        <ele>544.72</ele>
        <time>2011-10-02T15:22:09Z</time>
      </trkpt>
      <trkpt lat="43.48118" lon="2.64683">
        <ele>539.44</ele>
        <time>2011-10-02T15:22:25Z</time>
      </trkpt>
      <trkpt lat="43.48102" lon="2.64676">
        <ele>531.75</ele>
        <time>2011-10-02T15:22:41Z</time>
      </trkpt>
      <trkpt lat="43.481" lon="2.64675">
        <ele>530.79</ele>
        <time>2011-10-02T15:22:43Z</time>
      </trkpt>
      <trkpt lat="43.48093" lon="2.64673">
        <ele>527.42</ele>
        <time>2011-10-02T15:22:49Z</time>
      </trkpt>
      <trkpt lat="43.48087" lon="2.64672">
        <ele>522.61</ele>
        <time>2011-10-02T15:22:56Z</time>
      </trkpt>
      <trkpt lat="43.48077" lon="2.64664">
        <ele>518.29</ele>
        <time>2011-10-02T15:23:10Z</time>
      </trkpt>
      <trkpt lat="43.48067" lon="2.64654">
        <ele>518.77</ele>
        <time>2011-10-02T15:23:18Z</time>
      </trkpt>
      <trkpt lat="43.48067" lon="2.64651">
        <ele>518.77</ele>
        <time>2011-10-02T15:23:21Z</time>
      </trkpt>
      <trkpt lat="43.4806" lon="2.64644">
        <ele>518.77</ele>
        <time>2011-10-02T15:23:27Z</time>
      </trkpt>
      <trkpt lat="43.48047" lon="2.64647">
        <ele>516.85</ele>
        <time>2011-10-02T15:23:41Z</time>
      </trkpt>
      <trkpt lat="43.48046" lon="2.64644">
        <ele>517.33</ele>
        <time>2011-10-02T15:23:43Z</time>
      </trkpt>
      <trkpt lat="43.48041" lon="2.64622">
        <ele>515.88</ele>
        <time>2011-10-02T15:23:57Z</time>
      </trkpt>
      <trkpt lat="43.48038" lon="2.64605">
        <ele>514.44</ele>
        <time>2011-10-02T15:24:12Z</time>
      </trkpt>
      <trkpt lat="43.48033" lon="2.64587">
        <ele>510.6</ele>
        <time>2011-10-02T15:24:27Z</time>
      </trkpt>
      <trkpt lat="43.48033" lon="2.6458">
        <ele>509.64</ele>
        <time>2011-10-02T15:24:33Z</time>
      </trkpt>
      <trkpt lat="43.4803" lon="2.64573">
        <ele>505.79</ele>
        <time>2011-10-02T15:24:40Z</time>
      </trkpt>
      <trkpt lat="43.48021" lon="2.64556">
        <ele>503.39</ele>
        <time>2011-10-02T15:24:53Z</time>
      </trkpt>
      <trkpt lat="43.48022" lon="2.64552">
        <ele>503.39</ele>
        <time>2011-10-02T15:24:56Z</time>
      </trkpt>
      <trkpt lat="43.48013" lon="2.64528">
        <ele>500.98</ele>
        <time>2011-10-02T15:25:14Z</time>
      </trkpt>
      <trkpt lat="43.48001" lon="2.64509">
        <ele>499.54</ele>
        <time>2011-10-02T15:25:29Z</time>
      </trkpt>
      <trkpt lat="43.47998" lon="2.64505">
        <ele>498.58</ele>
        <time>2011-10-02T15:25:33Z</time>
      </trkpt>
      <trkpt lat="43.47988" lon="2.64495">
        <ele>494.74</ele>
        <time>2011-10-02T15:25:45Z</time>
      </trkpt>
      <trkpt lat="43.47973" lon="2.64485">
        <ele>493.77</ele>
        <time>2011-10-02T15:25:58Z</time>
      </trkpt>
      <trkpt lat="43.4796" lon="2.64468">
        <ele>491.37</ele>
        <time>2011-10-02T15:26:12Z</time>
      </trkpt>
      <trkpt lat="43.47943" lon="2.64454">
        <ele>489.93</ele>
        <time>2011-10-02T15:26:27Z</time>
      </trkpt>
      <trkpt lat="43.47929" lon="2.6444">
        <ele>485.6</ele>
        <time>2011-10-02T15:26:42Z</time>
      </trkpt>
      <trkpt lat="43.47916" lon="2.64425">
        <ele>484.16</ele>
        <time>2011-10-02T15:26:55Z</time>
      </trkpt>
      <trkpt lat="43.47904" lon="2.64411">
        <ele>483.2</ele>
        <time>2011-10-02T15:27:09Z</time>
      </trkpt>
      <trkpt lat="43.47901" lon="2.64407">
        <ele>482.72</ele>
        <time>2011-10-02T15:27:12Z</time>
      </trkpt>
      <trkpt lat="43.47889" lon="2.64387">
        <ele>480.8</ele>
        <time>2011-10-02T15:27:28Z</time>
      </trkpt>
      <trkpt lat="43.47883" lon="2.6438">
        <ele>480.32</ele>
        <time>2011-10-02T15:27:34Z</time>
      </trkpt>
      <trkpt lat="43.47876" lon="2.64369">
        <ele>479.35</ele>
        <time>2011-10-02T15:27:44Z</time>
      </trkpt>
      <trkpt lat="43.47862" lon="2.64349">
        <ele>476.95</ele>
        <time>2011-10-02T15:28:01Z</time>
      </trkpt>
      <trkpt lat="43.47854" lon="2.64335">
        <ele>475.03</ele>
        <time>2011-10-02T15:28:14Z</time>
      </trkpt>
      <trkpt lat="43.47843" lon="2.64315">
        <ele>473.11</ele>
        <time>2011-10-02T15:28:29Z</time>
      </trkpt>
      <trkpt lat="43.47837" lon="2.64309">
        <ele>472.14</ele>
        <time>2011-10-02T15:28:34Z</time>
      </trkpt>
      <trkpt lat="43.47825" lon="2.64297">
        <ele>470.22</ele>
        <time>2011-10-02T15:28:44Z</time>
      </trkpt>
      <trkpt lat="43.47811" lon="2.64282">
        <ele>466.38</ele>
        <time>2011-10-02T15:28:59Z</time>
      </trkpt>
      <trkpt lat="43.47797" lon="2.64265">
        <ele>464.93</ele>
        <time>2011-10-02T15:29:14Z</time>
      </trkpt>
      <trkpt lat="43.47785" lon="2.64251">
        <ele>463.97</ele>
        <time>2011-10-02T15:29:28Z</time>
      </trkpt>
      <trkpt lat="43.47775" lon="2.64242">
        <ele>460.61</ele>
        <time>2011-10-02T15:29:41Z</time>
      </trkpt>
      <trkpt lat="43.47766" lon="2.64242">
        <ele>459.17</ele>
        <time>2011-10-02T15:29:49Z</time>
      </trkpt>
      <trkpt lat="43.47759" lon="2.64243">
        <ele>457.72</ele>
        <time>2011-10-02T15:29:58Z</time>
      </trkpt>
      <trkpt lat="43.47751" lon="2.64249">
        <ele>454.36</ele>
        <time>2011-10-02T15:30:07Z</time>
      </trkpt>
      <trkpt lat="43.4774" lon="2.64258">
        <ele>453.4</ele>
        <time>2011-10-02T15:30:21Z</time>
      </trkpt>
      <trkpt lat="43.47736" lon="2.64262">
        <ele>453.4</ele>
        <time>2011-10-02T15:30:27Z</time>
      </trkpt>
      <trkpt lat="43.47725" lon="2.64275">
        <ele>451.96</ele>
        <time>2011-10-02T15:30:42Z</time>
      </trkpt>
      <trkpt lat="43.47723" lon="2.64276">
        <ele>451.96</ele>
        <time>2011-10-02T15:30:44Z</time>
      </trkpt>
      <trkpt lat="43.47713" lon="2.64295">
        <ele>450.52</ele>
        <time>2011-10-02T15:31:00Z</time>
      </trkpt>
      <trkpt lat="43.4771" lon="2.64298">
        <ele>449.55</ele>
        <time>2011-10-02T15:31:06Z</time>
      </trkpt>
      <trkpt lat="43.47708" lon="2.64293">
        <ele>448.59</ele>
        <time>2011-10-02T15:31:10Z</time>
      </trkpt>
      <trkpt lat="43.47709" lon="2.64279">
        <ele>445.71</ele>
        <time>2011-10-02T15:31:22Z</time>
      </trkpt>
      <trkpt lat="43.47709" lon="2.64278">
        <ele>445.23</ele>
        <time>2011-10-02T15:31:23Z</time>
      </trkpt>
      <trkpt lat="43.47711" lon="2.64265">
        <ele>442.82</ele>
        <time>2011-10-02T15:31:34Z</time>
      </trkpt>
      <trkpt lat="43.4771" lon="2.64248">
        <ele>439.46</ele>
        <time>2011-10-02T15:31:46Z</time>
      </trkpt>
      <trkpt lat="43.4771" lon="2.64242">
        <ele>439.46</ele>
        <time>2011-10-02T15:31:50Z</time>
      </trkpt>
      <trkpt lat="43.47716" lon="2.64214">
        <ele>436.58</ele>
        <time>2011-10-02T15:32:06Z</time>
      </trkpt>
      <trkpt lat="43.47718" lon="2.64208">
        <ele>435.61</ele>
        <time>2011-10-02T15:32:10Z</time>
      </trkpt>
      <trkpt lat="43.47722" lon="2.64188">
        <ele>434.17</ele>
        <time>2011-10-02T15:32:22Z</time>
      </trkpt>
      <trkpt lat="43.47727" lon="2.64168">
        <ele>432.25</ele>
        <time>2011-10-02T15:32:38Z</time>
      </trkpt>
      <trkpt lat="43.4773" lon="2.64152">
        <ele>429.37</ele>
        <time>2011-10-02T15:32:49Z</time>
      </trkpt>
      <trkpt lat="43.47739" lon="2.64129">
        <ele>424.08</ele>
        <time>2011-10-02T15:33:05Z</time>
      </trkpt>
      <trkpt lat="43.47748" lon="2.64114">
        <ele>421.19</ele>
        <time>2011-10-02T15:33:19Z</time>
      </trkpt>
      <trkpt lat="43.47749" lon="2.64112">
        <ele>420.23</ele>
        <time>2011-10-02T15:33:21Z</time>
      </trkpt>
      <trkpt lat="43.47741" lon="2.64099">
        <ele>416.87</ele>
        <time>2011-10-02T15:33:30Z</time>
      </trkpt>
      <trkpt lat="43.47735" lon="2.64102">
        <ele>415.91</ele>
        <time>2011-10-02T15:33:34Z</time>
      </trkpt>
      <trkpt lat="43.47729" lon="2.64103">
        <ele>414.47</ele>
        <time>2011-10-02T15:33:39Z</time>
      </trkpt>
      <trkpt lat="43.47718" lon="2.64112">
        <ele>411.1</ele>
        <time>2011-10-02T15:33:48Z</time>
      </trkpt>
      <trkpt lat="43.47704" lon="2.6412">
        <ele>409.18</ele>
        <time>2011-10-02T15:34:02Z</time>
      </trkpt>
      <trkpt lat="43.47704" lon="2.6412">
        <ele>409.18</ele>
        <time>2011-10-02T15:34:04Z</time>
      </trkpt>
      <trkpt lat="43.47701" lon="2.64112">
        <ele>410.14</ele>
        <time>2011-10-02T15:34:10Z</time>
      </trkpt>
      <trkpt lat="43.47702" lon="2.64109">
        <ele>410.14</ele>
        <time>2011-10-02T15:34:12Z</time>
      </trkpt>
      <trkpt lat="43.47708" lon="2.64101">
        <ele>409.66</ele>
        <time>2011-10-02T15:34:28Z</time>
      </trkpt>
      <trkpt lat="43.47712" lon="2.64096">
        <ele>409.18</ele>
        <time>2011-10-02T15:34:34Z</time>
      </trkpt>
      <trkpt lat="43.47727" lon="2.64082">
        <ele>406.29</ele>
        <time>2011-10-02T15:34:48Z</time>
      </trkpt>
      <trkpt lat="43.47731" lon="2.64079">
        <ele>405.33</ele>
        <time>2011-10-02T15:34:52Z</time>
      </trkpt>
      <trkpt lat="43.47744" lon="2.64061">
        <ele>403.41</ele>
        <time>2011-10-02T15:35:06Z</time>
      </trkpt>
      <trkpt lat="43.47746" lon="2.64055">
        <ele>402.93</ele>
        <time>2011-10-02T15:35:09Z</time>
      </trkpt>
      <trkpt lat="43.47734" lon="2.64054">
        <ele>401.01</ele>
        <time>2011-10-02T15:35:19Z</time>
      </trkpt>
      <trkpt lat="43.47715" lon="2.64064">
        <ele>399.08</ele>
        <time>2011-10-02T15:35:34Z</time>
      </trkpt>
      <trkpt lat="43.47705" lon="2.64072">
        <ele>398.12</ele>
        <time>2011-10-02T15:35:44Z</time>
      </trkpt>
      <trkpt lat="43.47692" lon="2.64056">
        <ele>396.68</ele>
        <time>2011-10-02T15:35:59Z</time>
      </trkpt>
      <trkpt lat="43.47686" lon="2.64036">
        <ele>392.84</ele>
        <time>2011-10-02T15:36:13Z</time>
      </trkpt>
      <trkpt lat="43.47681" lon="2.64017">
        <ele>388.99</ele>
        <time>2011-10-02T15:36:26Z</time>
      </trkpt>
      <trkpt lat="43.4768" lon="2.64012">
        <ele>388.51</ele>
        <time>2011-10-02T15:36:30Z</time>
      </trkpt>
      <trkpt lat="43.47665" lon="2.64015">
        <ele>385.15</ele>
        <time>2011-10-02T15:36:44Z</time>
      </trkpt>
      <trkpt lat="43.47654" lon="2.64019">
        <ele>383.7</ele>
        <time>2011-10-02T15:36:58Z</time>
      </trkpt>
      <trkpt lat="43.4765" lon="2.64022">
        <ele>383.7</ele>
        <time>2011-10-02T15:37:55Z</time>
      </trkpt>
      <trkpt lat="43.4764" lon="2.64013">
        <ele>385.63</ele>
        <time>2011-10-02T15:38:12Z</time>
      </trkpt>
      <trkpt lat="43.47639" lon="2.64">
        <ele>385.63</ele>
        <time>2011-10-02T15:38:30Z</time>
      </trkpt>
      <trkpt lat="43.4764" lon="2.63997">
        <ele>386.59</ele>
        <time>2011-10-02T15:39:12Z</time>
      </trkpt>
      <trkpt lat="43.47639" lon="2.63991">
        <ele>387.55</ele>
        <time>2011-10-02T15:39:16Z</time>
      </trkpt>
    </trkseg>
  </trk>
</gpx>